<?xml version="1.0" encoding="UTF-8" standalone="no" ?>
<gpx xmlns="http://www.topografix.com/GPX/1/1" xmlns:xsi="http://www.w3.org/2001/XMLSchema-instance" xsi:schemaLocation="http://www.topografix.com/GPX/1/1 http://www.topografix.com/GPX/1/1/gpx.xsd" version="1.1" creator="VisuGPX - https://www.visugpx.com">
  <metadata>
    <name>Parcours de la ville historique de Chartres</name>
    <desc><![CDATA[Circuit historique de la vieille ville de Chartres]]></desc>
  </metadata>
  <trk>
    <name><![CDATA[SityTrail - Parcours de la ville historique de Chartres]]></name>
    <trkseg>
      <trkpt lat="48.44723" lon="1.48774">
        <ele>164</ele>
        <time>2024-12-19T13:42:12.167+00:00</time>
      </trkpt>
      <trkpt lat="48.44719" lon="1.48777">
        <ele>164</ele>
        <time>2024-12-19T13:43:08.167+00:00</time>
      </trkpt>
      <trkpt lat="48.44718" lon="1.48777">
        <ele>164</ele>
        <time>2024-12-19T13:43:13.168+00:00</time>
      </trkpt>
      <trkpt lat="48.44718" lon="1.48778">
        <ele>164</ele>
        <time>2024-12-19T13:43:18.168+00:00</time>
      </trkpt>
      <trkpt lat="48.44716" lon="1.48777">
        <ele>164</ele>
        <time>2024-12-19T13:43:22.168+00:00</time>
      </trkpt>
      <trkpt lat="48.44712" lon="1.48771">
        <ele>164</ele>
        <time>2024-12-19T13:43:26.168+00:00</time>
      </trkpt>
      <trkpt lat="48.44704" lon="1.48779">
        <ele>163</ele>
        <time>2024-12-19T13:43:55.405+00:00</time>
      </trkpt>
      <trkpt lat="48.44702" lon="1.48773">
        <ele>163</ele>
        <time>2024-12-19T13:43:59.660+00:00</time>
      </trkpt>
      <trkpt lat="48.447" lon="1.48768">
        <ele>163</ele>
        <time>2024-12-19T13:44:03.780+00:00</time>
      </trkpt>
      <trkpt lat="48.44697" lon="1.48762">
        <ele>163</ele>
        <time>2024-12-19T13:44:08.063+00:00</time>
      </trkpt>
      <trkpt lat="48.44691" lon="1.48761">
        <ele>163</ele>
        <time>2024-12-19T13:44:12.662+00:00</time>
      </trkpt>
      <trkpt lat="48.44689" lon="1.48769">
        <ele>163</ele>
        <time>2024-12-19T13:44:16.980+00:00</time>
      </trkpt>
      <trkpt lat="48.44688" lon="1.48773">
        <ele>163</ele>
        <time>2024-12-19T13:44:21.079+00:00</time>
      </trkpt>
      <trkpt lat="48.44685" lon="1.48781">
        <ele>163</ele>
        <time>2024-12-19T13:44:25.461+00:00</time>
      </trkpt>
      <trkpt lat="48.44685" lon="1.48786">
        <ele>163</ele>
        <time>2024-12-19T13:44:29.616+00:00</time>
      </trkpt>
      <trkpt lat="48.44678" lon="1.48784">
        <ele>162</ele>
        <time>2024-12-19T13:44:34.167+00:00</time>
      </trkpt>
      <trkpt lat="48.44672" lon="1.48776">
        <ele>162</ele>
        <time>2024-12-19T13:44:39.039+00:00</time>
      </trkpt>
      <trkpt lat="48.44668" lon="1.48772">
        <ele>162</ele>
        <time>2024-12-19T13:44:43.167+00:00</time>
      </trkpt>
      <trkpt lat="48.44663" lon="1.48768">
        <ele>162</ele>
        <time>2024-12-19T13:44:47.389+00:00</time>
      </trkpt>
      <trkpt lat="48.44659" lon="1.48765">
        <ele>162</ele>
        <time>2024-12-19T13:44:51.700+00:00</time>
      </trkpt>
      <trkpt lat="48.44658" lon="1.48769">
        <ele>162</ele>
        <time>2024-12-19T13:44:55.900+00:00</time>
      </trkpt>
      <trkpt lat="48.4466" lon="1.48777">
        <ele>162</ele>
        <time>2024-12-19T13:45:00.139+00:00</time>
      </trkpt>
      <trkpt lat="48.44665" lon="1.48779">
        <ele>162</ele>
        <time>2024-12-19T13:45:04.167+00:00</time>
      </trkpt>
      <trkpt lat="48.44665" lon="1.48786">
        <ele>162</ele>
        <time>2024-12-19T13:45:09.059+00:00</time>
      </trkpt>
      <trkpt lat="48.44659" lon="1.48792">
        <ele>162</ele>
        <time>2024-12-19T13:45:13.167+00:00</time>
      </trkpt>
      <trkpt lat="48.44657" lon="1.48798">
        <ele>162</ele>
        <time>2024-12-19T13:45:17.482+00:00</time>
      </trkpt>
      <trkpt lat="48.44655" lon="1.48802">
        <ele>162</ele>
        <time>2024-12-19T13:45:21.899+00:00</time>
      </trkpt>
      <trkpt lat="48.44651" lon="1.48811">
        <ele>161</ele>
        <time>2024-12-19T13:45:26.168+00:00</time>
      </trkpt>
      <trkpt lat="48.44643" lon="1.48816">
        <ele>161</ele>
        <time>2024-12-19T13:45:31.168+00:00</time>
      </trkpt>
      <trkpt lat="48.4464" lon="1.48822">
        <ele>161</ele>
        <time>2024-12-19T13:45:35.402+00:00</time>
      </trkpt>
      <trkpt lat="48.44638" lon="1.48823">
        <ele>161</ele>
        <time>2024-12-19T13:45:39.983+00:00</time>
      </trkpt>
      <trkpt lat="48.44639" lon="1.48814">
        <ele>161</ele>
        <time>2024-12-19T13:45:43.167+00:00</time>
      </trkpt>
      <trkpt lat="48.44638" lon="1.48808">
        <ele>161</ele>
        <time>2024-12-19T13:45:48.940+00:00</time>
      </trkpt>
      <trkpt lat="48.44634" lon="1.48802">
        <ele>161</ele>
        <time>2024-12-19T13:45:53.168+00:00</time>
      </trkpt>
      <trkpt lat="48.44632" lon="1.48795">
        <ele>161</ele>
        <time>2024-12-19T13:45:57.862+00:00</time>
      </trkpt>
      <trkpt lat="48.4463" lon="1.48791">
        <ele>161</ele>
        <time>2024-12-19T13:46:02.042+00:00</time>
      </trkpt>
      <trkpt lat="48.44627" lon="1.48783">
        <ele>161</ele>
        <time>2024-12-19T13:46:06.540+00:00</time>
      </trkpt>
      <trkpt lat="48.44625" lon="1.4878">
        <ele>160</ele>
        <time>2024-12-19T13:46:10.862+00:00</time>
      </trkpt>
      <trkpt lat="48.44624" lon="1.48779">
        <ele>160</ele>
        <time>2024-12-19T13:46:15.168+00:00</time>
      </trkpt>
      <trkpt lat="48.44622" lon="1.48769">
        <ele>160</ele>
        <time>2024-12-19T13:46:20.168+00:00</time>
      </trkpt>
      <trkpt lat="48.4462" lon="1.48764">
        <ele>161</ele>
        <time>2024-12-19T13:46:24.363+00:00</time>
      </trkpt>
      <trkpt lat="48.44618" lon="1.48755">
        <ele>161</ele>
        <time>2024-12-19T13:46:28.883+00:00</time>
      </trkpt>
      <trkpt lat="48.44616" lon="1.4875">
        <ele>161</ele>
        <time>2024-12-19T13:46:32.961+00:00</time>
      </trkpt>
      <trkpt lat="48.44615" lon="1.48742">
        <ele>161</ele>
        <time>2024-12-19T13:46:37.168+00:00</time>
      </trkpt>
      <trkpt lat="48.44612" lon="1.48738">
        <ele>161</ele>
        <time>2024-12-19T13:46:40.722+00:00</time>
      </trkpt>
      <trkpt lat="48.44609" lon="1.48732">
        <ele>163</ele>
        <time>2024-12-19T13:46:45.743+00:00</time>
      </trkpt>
      <trkpt lat="48.44609" lon="1.48727">
        <ele>163</ele>
        <time>2024-12-19T13:46:50.167+00:00</time>
      </trkpt>
      <trkpt lat="48.44606" lon="1.48723">
        <ele>163</ele>
        <time>2024-12-19T13:46:55.167+00:00</time>
      </trkpt>
      <trkpt lat="48.44605" lon="1.48723">
        <ele>163</ele>
        <time>2024-12-19T13:47:00.168+00:00</time>
      </trkpt>
      <trkpt lat="48.44606" lon="1.48719">
        <ele>163</ele>
        <time>2024-12-19T13:47:04.706+00:00</time>
      </trkpt>
      <trkpt lat="48.44606" lon="1.48716">
        <ele>163</ele>
        <time>2024-12-19T13:47:09.167+00:00</time>
      </trkpt>
      <trkpt lat="48.44603" lon="1.48707">
        <ele>163</ele>
        <time>2024-12-19T13:47:13.664+00:00</time>
      </trkpt>
      <trkpt lat="48.44597" lon="1.48704">
        <ele>163</ele>
        <time>2024-12-19T13:47:26.628+00:00</time>
      </trkpt>
      <trkpt lat="48.44595" lon="1.48699">
        <ele>163</ele>
        <time>2024-12-19T13:47:31.120+00:00</time>
      </trkpt>
      <trkpt lat="48.44592" lon="1.48693">
        <ele>163</ele>
        <time>2024-12-19T13:47:35.167+00:00</time>
      </trkpt>
      <trkpt lat="48.44587" lon="1.48688">
        <ele>163</ele>
        <time>2024-12-19T13:47:39.624+00:00</time>
      </trkpt>
      <trkpt lat="48.44585" lon="1.48678">
        <ele>163</ele>
        <time>2024-12-19T13:47:43.740+00:00</time>
      </trkpt>
      <trkpt lat="48.4458" lon="1.48673">
        <ele>163</ele>
        <time>2024-12-19T13:47:48.166+00:00</time>
      </trkpt>
      <trkpt lat="48.44575" lon="1.48672">
        <ele>163</ele>
        <time>2024-12-19T13:47:52.855+00:00</time>
      </trkpt>
      <trkpt lat="48.44573" lon="1.48668">
        <ele>163</ele>
        <time>2024-12-19T13:47:57.121+00:00</time>
      </trkpt>
      <trkpt lat="48.4457" lon="1.48667">
        <ele>163</ele>
        <time>2024-12-19T13:48:01.166+00:00</time>
      </trkpt>
      <trkpt lat="48.44565" lon="1.48664">
        <ele>164</ele>
        <time>2024-12-19T13:48:05.857+00:00</time>
      </trkpt>
      <trkpt lat="48.44566" lon="1.48664">
        <ele>164</ele>
        <time>2024-12-19T13:48:10.705+00:00</time>
      </trkpt>
      <trkpt lat="48.44565" lon="1.48661">
        <ele>164</ele>
        <time>2024-12-19T13:48:14.167+00:00</time>
      </trkpt>
      <trkpt lat="48.44557" lon="1.4865">
        <ele>163</ele>
        <time>2024-12-19T13:48:23.102+00:00</time>
      </trkpt>
      <trkpt lat="48.44557" lon="1.48647">
        <ele>163</ele>
        <time>2024-12-19T13:48:36.166+00:00</time>
      </trkpt>
      <trkpt lat="48.44557" lon="1.48647">
        <ele>163</ele>
        <time>2024-12-19T13:48:40.982+00:00</time>
      </trkpt>
      <trkpt lat="48.44559" lon="1.48649">
        <ele>163</ele>
        <time>2024-12-19T13:48:45.166+00:00</time>
      </trkpt>
      <trkpt lat="48.44562" lon="1.48653">
        <ele>164</ele>
        <time>2024-12-19T13:48:49.806+00:00</time>
      </trkpt>
      <trkpt lat="48.44565" lon="1.4866">
        <ele>164</ele>
        <time>2024-12-19T13:48:53.983+00:00</time>
      </trkpt>
      <trkpt lat="48.44566" lon="1.48667">
        <ele>164</ele>
        <time>2024-12-19T13:48:58.192+00:00</time>
      </trkpt>
      <trkpt lat="48.44561" lon="1.48672">
        <ele>164</ele>
        <time>2024-12-19T13:49:02.683+00:00</time>
      </trkpt>
      <trkpt lat="48.44556" lon="1.48676">
        <ele>164</ele>
        <time>2024-12-19T13:49:07.163+00:00</time>
      </trkpt>
      <trkpt lat="48.4455" lon="1.48678">
        <ele>164</ele>
        <time>2024-12-19T13:49:12.016+00:00</time>
      </trkpt>
      <trkpt lat="48.44546" lon="1.48682">
        <ele>164</ele>
        <time>2024-12-19T13:49:16.166+00:00</time>
      </trkpt>
      <trkpt lat="48.44546" lon="1.48683">
        <ele>164</ele>
        <time>2024-12-19T13:49:21.167+00:00</time>
      </trkpt>
      <trkpt lat="48.44542" lon="1.48686">
        <ele>164</ele>
        <time>2024-12-19T13:49:25.167+00:00</time>
      </trkpt>
      <trkpt lat="48.44538" lon="1.48691">
        <ele>164</ele>
        <time>2024-12-19T13:49:29.529+00:00</time>
      </trkpt>
      <trkpt lat="48.44536" lon="1.48697">
        <ele>164</ele>
        <time>2024-12-19T13:49:34.167+00:00</time>
      </trkpt>
      <trkpt lat="48.44536" lon="1.48698">
        <ele>164</ele>
        <time>2024-12-19T13:49:38.166+00:00</time>
      </trkpt>
      <trkpt lat="48.44535" lon="1.48698">
        <ele>164</ele>
        <time>2024-12-19T13:49:43.159+00:00</time>
      </trkpt>
      <trkpt lat="48.44532" lon="1.48698">
        <ele>164</ele>
        <time>2024-12-19T13:49:47.498+00:00</time>
      </trkpt>
      <trkpt lat="48.44527" lon="1.48705">
        <ele>164</ele>
        <time>2024-12-19T13:49:52.085+00:00</time>
      </trkpt>
      <trkpt lat="48.44523" lon="1.48711">
        <ele>164</ele>
        <time>2024-12-19T13:49:56.167+00:00</time>
      </trkpt>
      <trkpt lat="48.44518" lon="1.48712">
        <ele>164</ele>
        <time>2024-12-19T13:50:01.166+00:00</time>
      </trkpt>
      <trkpt lat="48.44516" lon="1.48716">
        <ele>164</ele>
        <time>2024-12-19T13:50:05.903+00:00</time>
      </trkpt>
      <trkpt lat="48.44516" lon="1.48719">
        <ele>164</ele>
        <time>2024-12-19T13:50:10.181+00:00</time>
      </trkpt>
      <trkpt lat="48.44513" lon="1.48719">
        <ele>164</ele>
        <time>2024-12-19T13:50:14.380+00:00</time>
      </trkpt>
      <trkpt lat="48.44511" lon="1.48723">
        <ele>164</ele>
        <time>2024-12-19T13:50:19.166+00:00</time>
      </trkpt>
      <trkpt lat="48.44509" lon="1.48727">
        <ele>164</ele>
        <time>2024-12-19T13:50:24.167+00:00</time>
      </trkpt>
      <trkpt lat="48.44505" lon="1.48732">
        <ele>164</ele>
        <time>2024-12-19T13:50:29.167+00:00</time>
      </trkpt>
      <trkpt lat="48.44504" lon="1.48737">
        <ele>164</ele>
        <time>2024-12-19T13:50:33.166+00:00</time>
      </trkpt>
      <trkpt lat="48.44499" lon="1.48738">
        <ele>164</ele>
        <time>2024-12-19T13:50:37.499+00:00</time>
      </trkpt>
      <trkpt lat="48.44495" lon="1.48738">
        <ele>164</ele>
        <time>2024-12-19T13:50:42.092+00:00</time>
      </trkpt>
      <trkpt lat="48.44492" lon="1.48742">
        <ele>164</ele>
        <time>2024-12-19T13:50:46.166+00:00</time>
      </trkpt>
      <trkpt lat="48.44492" lon="1.48743">
        <ele>164</ele>
        <time>2024-12-19T13:50:50.671+00:00</time>
      </trkpt>
      <trkpt lat="48.44491" lon="1.48746">
        <ele>164</ele>
        <time>2024-12-19T13:50:54.995+00:00</time>
      </trkpt>
      <trkpt lat="48.44485" lon="1.48753">
        <ele>166</ele>
        <time>2024-12-19T13:50:59.356+00:00</time>
      </trkpt>
      <trkpt lat="48.44482" lon="1.48755">
        <ele>166</ele>
        <time>2024-12-19T13:51:04.166+00:00</time>
      </trkpt>
      <trkpt lat="48.44477" lon="1.4876">
        <ele>166</ele>
        <time>2024-12-19T13:51:09.167+00:00</time>
      </trkpt>
      <trkpt lat="48.44474" lon="1.48763">
        <ele>166</ele>
        <time>2024-12-19T13:51:14.167+00:00</time>
      </trkpt>
      <trkpt lat="48.44472" lon="1.48765">
        <ele>164</ele>
        <time>2024-12-19T13:51:36.800+00:00</time>
      </trkpt>
      <trkpt lat="48.44471" lon="1.48766">
        <ele>164</ele>
        <time>2024-12-19T13:51:41.167+00:00</time>
      </trkpt>
      <trkpt lat="48.4447" lon="1.48765">
        <ele>164</ele>
        <time>2024-12-19T13:51:45.771+00:00</time>
      </trkpt>
      <trkpt lat="48.44466" lon="1.48767">
        <ele>164</ele>
        <time>2024-12-19T13:51:49.800+00:00</time>
      </trkpt>
      <trkpt lat="48.44465" lon="1.4877">
        <ele>164</ele>
        <time>2024-12-19T13:51:55.167+00:00</time>
      </trkpt>
      <trkpt lat="48.44466" lon="1.48773">
        <ele>164</ele>
        <time>2024-12-19T13:51:59.410+00:00</time>
      </trkpt>
      <trkpt lat="48.44463" lon="1.48772">
        <ele>164</ele>
        <time>2024-12-19T13:52:04.166+00:00</time>
      </trkpt>
      <trkpt lat="48.44461" lon="1.48776">
        <ele>164</ele>
        <time>2024-12-19T13:52:13.167+00:00</time>
      </trkpt>
      <trkpt lat="48.44461" lon="1.48778">
        <ele>164</ele>
        <time>2024-12-19T13:52:17.167+00:00</time>
      </trkpt>
      <trkpt lat="48.44458" lon="1.4878">
        <ele>164</ele>
        <time>2024-12-19T13:52:21.672+00:00</time>
      </trkpt>
      <trkpt lat="48.44454" lon="1.48781">
        <ele>164</ele>
        <time>2024-12-19T13:52:26.167+00:00</time>
      </trkpt>
      <trkpt lat="48.44454" lon="1.48781">
        <ele>164</ele>
        <time>2024-12-19T13:52:30.876+00:00</time>
      </trkpt>
      <trkpt lat="48.44449" lon="1.48783">
        <ele>164</ele>
        <time>2024-12-19T13:52:35.166+00:00</time>
      </trkpt>
      <trkpt lat="48.44444" lon="1.48783">
        <ele>164</ele>
        <time>2024-12-19T13:52:39.438+00:00</time>
      </trkpt>
      <trkpt lat="48.44438" lon="1.48781">
        <ele>164</ele>
        <time>2024-12-19T13:52:43.856+00:00</time>
      </trkpt>
      <trkpt lat="48.44433" lon="1.48779">
        <ele>164</ele>
        <time>2024-12-19T13:52:47.916+00:00</time>
      </trkpt>
      <trkpt lat="48.44427" lon="1.48776">
        <ele>162</ele>
        <time>2024-12-19T13:52:52.167+00:00</time>
      </trkpt>
      <trkpt lat="48.44422" lon="1.48774">
        <ele>162</ele>
        <time>2024-12-19T13:52:56.575+00:00</time>
      </trkpt>
      <trkpt lat="48.44421" lon="1.48777">
        <ele>162</ele>
        <time>2024-12-19T13:53:01.166+00:00</time>
      </trkpt>
      <trkpt lat="48.44416" lon="1.48777">
        <ele>162</ele>
        <time>2024-12-19T13:53:06.167+00:00</time>
      </trkpt>
      <trkpt lat="48.44411" lon="1.48775">
        <ele>162</ele>
        <time>2024-12-19T13:53:10.672+00:00</time>
      </trkpt>
      <trkpt lat="48.44406" lon="1.48768">
        <ele>162</ele>
        <time>2024-12-19T13:53:15.166+00:00</time>
      </trkpt>
      <trkpt lat="48.44402" lon="1.48767">
        <ele>160</ele>
        <time>2024-12-19T13:53:19.478+00:00</time>
      </trkpt>
      <trkpt lat="48.44399" lon="1.48771">
        <ele>160</ele>
        <time>2024-12-19T13:53:24.159+00:00</time>
      </trkpt>
      <trkpt lat="48.44399" lon="1.48776">
        <ele>160</ele>
        <time>2024-12-19T13:53:29.167+00:00</time>
      </trkpt>
      <trkpt lat="48.44402" lon="1.48785">
        <ele>160</ele>
        <time>2024-12-19T13:53:34.167+00:00</time>
      </trkpt>
      <trkpt lat="48.44404" lon="1.48793">
        <ele>162</ele>
        <time>2024-12-19T13:53:39.167+00:00</time>
      </trkpt>
      <trkpt lat="48.44406" lon="1.488">
        <ele>162</ele>
        <time>2024-12-19T13:53:44.071+00:00</time>
      </trkpt>
      <trkpt lat="48.44407" lon="1.48811">
        <ele>162</ele>
        <time>2024-12-19T13:53:48.694+00:00</time>
      </trkpt>
      <trkpt lat="48.44407" lon="1.48817">
        <ele>162</ele>
        <time>2024-12-19T13:53:53.093+00:00</time>
      </trkpt>
      <trkpt lat="48.44407" lon="1.48825">
        <ele>161</ele>
        <time>2024-12-19T13:53:57.596+00:00</time>
      </trkpt>
      <trkpt lat="48.44406" lon="1.48831">
        <ele>161</ele>
        <time>2024-12-19T13:54:02.167+00:00</time>
      </trkpt>
      <trkpt lat="48.44406" lon="1.48839">
        <ele>161</ele>
        <time>2024-12-19T13:54:06.632+00:00</time>
      </trkpt>
      <trkpt lat="48.4441" lon="1.4884">
        <ele>161</ele>
        <time>2024-12-19T13:54:11.153+00:00</time>
      </trkpt>
      <trkpt lat="48.44417" lon="1.4884">
        <ele>161</ele>
        <time>2024-12-19T13:54:15.166+00:00</time>
      </trkpt>
      <trkpt lat="48.44421" lon="1.48843">
        <ele>161</ele>
        <time>2024-12-19T13:54:20.167+00:00</time>
      </trkpt>
      <trkpt lat="48.44424" lon="1.48846">
        <ele>161</ele>
        <time>2024-12-19T13:54:24.934+00:00</time>
      </trkpt>
      <trkpt lat="48.44425" lon="1.4885">
        <ele>160</ele>
        <time>2024-12-19T13:54:28.971+00:00</time>
      </trkpt>
      <trkpt lat="48.44425" lon="1.48856">
        <ele>160</ele>
        <time>2024-12-19T13:54:33.167+00:00</time>
      </trkpt>
      <trkpt lat="48.44426" lon="1.48862">
        <ele>160</ele>
        <time>2024-12-19T13:54:37.621+00:00</time>
      </trkpt>
      <trkpt lat="48.44435" lon="1.48862">
        <ele>161</ele>
        <time>2024-12-19T13:54:42.167+00:00</time>
      </trkpt>
      <trkpt lat="48.44435" lon="1.48862">
        <ele>161</ele>
        <time>2024-12-19T13:54:45.078+00:00</time>
      </trkpt>
      <trkpt lat="48.44432" lon="1.48865">
        <ele>161</ele>
        <time>2024-12-19T13:54:54.074+00:00</time>
      </trkpt>
      <trkpt lat="48.44432" lon="1.48867">
        <ele>161</ele>
        <time>2024-12-19T13:54:58.167+00:00</time>
      </trkpt>
      <trkpt lat="48.44432" lon="1.48875">
        <ele>160</ele>
        <time>2024-12-19T13:55:03.167+00:00</time>
      </trkpt>
      <trkpt lat="48.44431" lon="1.48882">
        <ele>160</ele>
        <time>2024-12-19T13:55:07.791+00:00</time>
      </trkpt>
      <trkpt lat="48.44431" lon="1.48889">
        <ele>160</ele>
        <time>2024-12-19T13:55:12.166+00:00</time>
      </trkpt>
      <trkpt lat="48.44432" lon="1.48897">
        <ele>160</ele>
        <time>2024-12-19T13:55:16.755+00:00</time>
      </trkpt>
      <trkpt lat="48.4443" lon="1.48903">
        <ele>158</ele>
        <time>2024-12-19T13:55:21.167+00:00</time>
      </trkpt>
      <trkpt lat="48.44427" lon="1.48907">
        <ele>158</ele>
        <time>2024-12-19T13:55:24.723+00:00</time>
      </trkpt>
      <trkpt lat="48.44419" lon="1.48905">
        <ele>158</ele>
        <time>2024-12-19T13:55:32.166+00:00</time>
      </trkpt>
      <trkpt lat="48.44414" lon="1.48903">
        <ele>158</ele>
        <time>2024-12-19T13:55:37.167+00:00</time>
      </trkpt>
      <trkpt lat="48.4441" lon="1.48901">
        <ele>159</ele>
        <time>2024-12-19T13:55:42.167+00:00</time>
      </trkpt>
      <trkpt lat="48.44407" lon="1.48904">
        <ele>158</ele>
        <time>2024-12-19T13:55:47.082+00:00</time>
      </trkpt>
      <trkpt lat="48.44404" lon="1.48911">
        <ele>158</ele>
        <time>2024-12-19T13:56:42.167+00:00</time>
      </trkpt>
      <trkpt lat="48.44404" lon="1.48912">
        <ele>158</ele>
        <time>2024-12-19T13:56:46.167+00:00</time>
      </trkpt>
      <trkpt lat="48.44404" lon="1.48912">
        <ele>158</ele>
        <time>2024-12-19T13:56:51.167+00:00</time>
      </trkpt>
      <trkpt lat="48.44404" lon="1.48913">
        <ele>158</ele>
        <time>2024-12-19T13:56:56.013+00:00</time>
      </trkpt>
      <trkpt lat="48.44406" lon="1.48917">
        <ele>158</ele>
        <time>2024-12-19T13:57:00.166+00:00</time>
      </trkpt>
      <trkpt lat="48.44407" lon="1.48921">
        <ele>158</ele>
        <time>2024-12-19T13:57:04.992+00:00</time>
      </trkpt>
      <trkpt lat="48.44408" lon="1.48926">
        <ele>158</ele>
        <time>2024-12-19T13:57:09.486+00:00</time>
      </trkpt>
      <trkpt lat="48.44407" lon="1.48933">
        <ele>157</ele>
        <time>2024-12-19T13:57:13.991+00:00</time>
      </trkpt>
      <trkpt lat="48.44405" lon="1.48945">
        <ele>157</ele>
        <time>2024-12-19T13:57:18.614+00:00</time>
      </trkpt>
      <trkpt lat="48.44405" lon="1.48952">
        <ele>157</ele>
        <time>2024-12-19T13:57:22.929+00:00</time>
      </trkpt>
      <trkpt lat="48.44405" lon="1.48955">
        <ele>157</ele>
        <time>2024-12-19T13:57:26.956+00:00</time>
      </trkpt>
      <trkpt lat="48.44406" lon="1.48958">
        <ele>157</ele>
        <time>2024-12-19T13:57:30.983+00:00</time>
      </trkpt>
      <trkpt lat="48.44406" lon="1.48963">
        <ele>157</ele>
        <time>2024-12-19T13:57:35.166+00:00</time>
      </trkpt>
      <trkpt lat="48.44406" lon="1.48971">
        <ele>157</ele>
        <time>2024-12-19T13:57:40.178+00:00</time>
      </trkpt>
      <trkpt lat="48.44407" lon="1.48977">
        <ele>157</ele>
        <time>2024-12-19T13:57:44.554+00:00</time>
      </trkpt>
      <trkpt lat="48.44408" lon="1.48983">
        <ele>157</ele>
        <time>2024-12-19T13:57:49.166+00:00</time>
      </trkpt>
      <trkpt lat="48.44414" lon="1.48987">
        <ele>157</ele>
        <time>2024-12-19T13:57:53.836+00:00</time>
      </trkpt>
      <trkpt lat="48.44419" lon="1.48987">
        <ele>157</ele>
        <time>2024-12-19T13:57:57.971+00:00</time>
      </trkpt>
      <trkpt lat="48.44424" lon="1.48991">
        <ele>157</ele>
        <time>2024-12-19T13:58:02.459+00:00</time>
      </trkpt>
      <trkpt lat="48.44429" lon="1.48995">
        <ele>157</ele>
        <time>2024-12-19T13:58:06.676+00:00</time>
      </trkpt>
      <trkpt lat="48.44431" lon="1.48998">
        <ele>157</ele>
        <time>2024-12-19T13:58:11.166+00:00</time>
      </trkpt>
      <trkpt lat="48.44432" lon="1.48999">
        <ele>157</ele>
        <time>2024-12-19T13:58:15.167+00:00</time>
      </trkpt>
      <trkpt lat="48.44433" lon="1.49002">
        <ele>157</ele>
        <time>2024-12-19T13:58:20.167+00:00</time>
      </trkpt>
      <trkpt lat="48.44433" lon="1.49003">
        <ele>157</ele>
        <time>2024-12-19T13:58:24.166+00:00</time>
      </trkpt>
      <trkpt lat="48.44433" lon="1.49008">
        <ele>157</ele>
        <time>2024-12-19T13:58:32.632+00:00</time>
      </trkpt>
      <trkpt lat="48.44435" lon="1.49013">
        <ele>157</ele>
        <time>2024-12-19T13:58:37.167+00:00</time>
      </trkpt>
      <trkpt lat="48.44437" lon="1.49018">
        <ele>156</ele>
        <time>2024-12-19T13:58:42.166+00:00</time>
      </trkpt>
      <trkpt lat="48.44436" lon="1.4902">
        <ele>156</ele>
        <time>2024-12-19T13:58:46.969+00:00</time>
      </trkpt>
      <trkpt lat="48.44436" lon="1.49025">
        <ele>156</ele>
        <time>2024-12-19T13:58:51.475+00:00</time>
      </trkpt>
      <trkpt lat="48.44436" lon="1.49028">
        <ele>156</ele>
        <time>2024-12-19T13:58:55.834+00:00</time>
      </trkpt>
      <trkpt lat="48.44436" lon="1.4903">
        <ele>156</ele>
        <time>2024-12-19T13:58:57.166+00:00</time>
      </trkpt>
      <trkpt lat="48.44435" lon="1.49034">
        <ele>156</ele>
        <time>2024-12-19T13:59:06.174+00:00</time>
      </trkpt>
      <trkpt lat="48.44436" lon="1.49036">
        <ele>156</ele>
        <time>2024-12-19T13:59:10.520+00:00</time>
      </trkpt>
      <trkpt lat="48.44438" lon="1.49048">
        <ele>154</ele>
        <time>2024-12-19T13:59:15.167+00:00</time>
      </trkpt>
      <trkpt lat="48.44441" lon="1.49056">
        <ele>154</ele>
        <time>2024-12-19T13:59:20.166+00:00</time>
      </trkpt>
      <trkpt lat="48.44442" lon="1.49061">
        <ele>154</ele>
        <time>2024-12-19T13:59:24.723+00:00</time>
      </trkpt>
      <trkpt lat="48.44445" lon="1.49068">
        <ele>154</ele>
        <time>2024-12-19T13:59:29.235+00:00</time>
      </trkpt>
      <trkpt lat="48.44447" lon="1.49074">
        <ele>150</ele>
        <time>2024-12-19T13:59:33.739+00:00</time>
      </trkpt>
      <trkpt lat="48.44449" lon="1.49081">
        <ele>150</ele>
        <time>2024-12-19T13:59:38.141+00:00</time>
      </trkpt>
      <trkpt lat="48.44451" lon="1.49086">
        <ele>150</ele>
        <time>2024-12-19T13:59:42.501+00:00</time>
      </trkpt>
      <trkpt lat="48.4446" lon="1.49098">
        <ele>143</ele>
        <time>2024-12-19T14:00:00.991+00:00</time>
      </trkpt>
      <trkpt lat="48.44461" lon="1.49101">
        <ele>143</ele>
        <time>2024-12-19T14:00:05.692+00:00</time>
      </trkpt>
      <trkpt lat="48.44463" lon="1.49103">
        <ele>143</ele>
        <time>2024-12-19T14:00:09.881+00:00</time>
      </trkpt>
      <trkpt lat="48.44463" lon="1.49105">
        <ele>143</ele>
        <time>2024-12-19T14:00:14.641+00:00</time>
      </trkpt>
      <trkpt lat="48.44466" lon="1.4911">
        <ele>143</ele>
        <time>2024-12-19T14:00:19.167+00:00</time>
      </trkpt>
      <trkpt lat="48.44469" lon="1.49113">
        <ele>143</ele>
        <time>2024-12-19T14:00:24.053+00:00</time>
      </trkpt>
      <trkpt lat="48.44473" lon="1.49119">
        <ele>143</ele>
        <time>2024-12-19T14:00:28.956+00:00</time>
      </trkpt>
      <trkpt lat="48.44476" lon="1.49124">
        <ele>143</ele>
        <time>2024-12-19T14:00:33.597+00:00</time>
      </trkpt>
      <trkpt lat="48.44478" lon="1.49128">
        <ele>140</ele>
        <time>2024-12-19T14:00:37.674+00:00</time>
      </trkpt>
      <trkpt lat="48.4448" lon="1.49131">
        <ele>140</ele>
        <time>2024-12-19T14:00:42.137+00:00</time>
      </trkpt>
      <trkpt lat="48.44482" lon="1.49135">
        <ele>140</ele>
        <time>2024-12-19T14:00:46.315+00:00</time>
      </trkpt>
      <trkpt lat="48.44483" lon="1.49143">
        <ele>140</ele>
        <time>2024-12-19T14:00:51.060+00:00</time>
      </trkpt>
      <trkpt lat="48.44487" lon="1.49149">
        <ele>140</ele>
        <time>2024-12-19T14:00:55.733+00:00</time>
      </trkpt>
      <trkpt lat="48.44486" lon="1.49154">
        <ele>138</ele>
        <time>2024-12-19T14:01:00.058+00:00</time>
      </trkpt>
      <trkpt lat="48.44481" lon="1.49159">
        <ele>139</ele>
        <time>2024-12-19T14:01:04.167+00:00</time>
      </trkpt>
      <trkpt lat="48.44481" lon="1.49163">
        <ele>139</ele>
        <time>2024-12-19T14:01:08.499+00:00</time>
      </trkpt>
      <trkpt lat="48.44479" lon="1.49166">
        <ele>139</ele>
        <time>2024-12-19T14:01:12.533+00:00</time>
      </trkpt>
      <trkpt lat="48.44477" lon="1.49169">
        <ele>139</ele>
        <time>2024-12-19T14:01:16.800+00:00</time>
      </trkpt>
      <trkpt lat="48.44472" lon="1.49171">
        <ele>139</ele>
        <time>2024-12-19T14:01:21.167+00:00</time>
      </trkpt>
      <trkpt lat="48.44469" lon="1.49177">
        <ele>139</ele>
        <time>2024-12-19T14:01:25.814+00:00</time>
      </trkpt>
      <trkpt lat="48.44465" lon="1.49182">
        <ele>138</ele>
        <time>2024-12-19T14:01:30.166+00:00</time>
      </trkpt>
      <trkpt lat="48.44461" lon="1.49185">
        <ele>138</ele>
        <time>2024-12-19T14:01:35.166+00:00</time>
      </trkpt>
      <trkpt lat="48.44457" lon="1.49186">
        <ele>137</ele>
        <time>2024-12-19T14:01:40.166+00:00</time>
      </trkpt>
      <trkpt lat="48.44454" lon="1.49189">
        <ele>137</ele>
        <time>2024-12-19T14:01:44.837+00:00</time>
      </trkpt>
      <trkpt lat="48.44452" lon="1.49189">
        <ele>137</ele>
        <time>2024-12-19T14:01:49.167+00:00</time>
      </trkpt>
      <trkpt lat="48.4445" lon="1.49194">
        <ele>137</ele>
        <time>2024-12-19T14:01:53.639+00:00</time>
      </trkpt>
      <trkpt lat="48.44449" lon="1.49199">
        <ele>137</ele>
        <time>2024-12-19T14:01:57.913+00:00</time>
      </trkpt>
      <trkpt lat="48.44443" lon="1.49201">
        <ele>137</ele>
        <time>2024-12-19T14:02:02.167+00:00</time>
      </trkpt>
      <trkpt lat="48.44438" lon="1.49206">
        <ele>137</ele>
        <time>2024-12-19T14:02:06.700+00:00</time>
      </trkpt>
      <trkpt lat="48.44433" lon="1.4921">
        <ele>136</ele>
        <time>2024-12-19T14:02:10.939+00:00</time>
      </trkpt>
      <trkpt lat="48.4443" lon="1.49212">
        <ele>135</ele>
        <time>2024-12-19T14:02:15.167+00:00</time>
      </trkpt>
      <trkpt lat="48.44426" lon="1.49214">
        <ele>135</ele>
        <time>2024-12-19T14:02:19.953+00:00</time>
      </trkpt>
      <trkpt lat="48.44422" lon="1.4922">
        <ele>135</ele>
        <time>2024-12-19T14:02:25.166+00:00</time>
      </trkpt>
      <trkpt lat="48.44418" lon="1.49219">
        <ele>135</ele>
        <time>2024-12-19T14:02:29.711+00:00</time>
      </trkpt>
      <trkpt lat="48.44415" lon="1.49221">
        <ele>135</ele>
        <time>2024-12-19T14:02:34.166+00:00</time>
      </trkpt>
      <trkpt lat="48.4441" lon="1.49225">
        <ele>135</ele>
        <time>2024-12-19T14:02:38.675+00:00</time>
      </trkpt>
      <trkpt lat="48.44406" lon="1.49232">
        <ele>135</ele>
        <time>2024-12-19T14:02:42.855+00:00</time>
      </trkpt>
      <trkpt lat="48.44403" lon="1.49233">
        <ele>135</ele>
        <time>2024-12-19T14:02:47.166+00:00</time>
      </trkpt>
      <trkpt lat="48.44399" lon="1.49238">
        <ele>133</ele>
        <time>2024-12-19T14:02:51.394+00:00</time>
      </trkpt>
      <trkpt lat="48.44392" lon="1.49237">
        <ele>133</ele>
        <time>2024-12-19T14:02:55.692+00:00</time>
      </trkpt>
      <trkpt lat="48.44387" lon="1.49239">
        <ele>133</ele>
        <time>2024-12-19T14:03:00.166+00:00</time>
      </trkpt>
      <trkpt lat="48.44381" lon="1.4925">
        <ele>133</ele>
        <time>2024-12-19T14:03:24.155+00:00</time>
      </trkpt>
      <trkpt lat="48.44378" lon="1.49256">
        <ele>133</ele>
        <time>2024-12-19T14:03:28.167+00:00</time>
      </trkpt>
      <trkpt lat="48.44377" lon="1.49258">
        <ele>133</ele>
        <time>2024-12-19T14:03:31.167+00:00</time>
      </trkpt>
      <trkpt lat="48.44375" lon="1.4926">
        <ele>133</ele>
        <time>2024-12-19T14:03:40.167+00:00</time>
      </trkpt>
      <trkpt lat="48.44375" lon="1.49262">
        <ele>133</ele>
        <time>2024-12-19T14:03:44.167+00:00</time>
      </trkpt>
      <trkpt lat="48.44372" lon="1.49264">
        <ele>133</ele>
        <time>2024-12-19T14:03:49.079+00:00</time>
      </trkpt>
      <trkpt lat="48.44368" lon="1.49266">
        <ele>132</ele>
        <time>2024-12-19T14:03:53.155+00:00</time>
      </trkpt>
      <trkpt lat="48.4436" lon="1.49256">
        <ele>133</ele>
        <time>2024-12-19T14:03:57.388+00:00</time>
      </trkpt>
      <trkpt lat="48.44357" lon="1.49251">
        <ele>133</ele>
        <time>2024-12-19T14:04:01.560+00:00</time>
      </trkpt>
      <trkpt lat="48.44358" lon="1.49248">
        <ele>133</ele>
        <time>2024-12-19T14:04:06.035+00:00</time>
      </trkpt>
      <trkpt lat="48.44366" lon="1.49246">
        <ele>133</ele>
        <time>2024-12-19T14:04:10.410+00:00</time>
      </trkpt>
      <trkpt lat="48.44371" lon="1.49247">
        <ele>133</ele>
        <time>2024-12-19T14:04:14.915+00:00</time>
      </trkpt>
      <trkpt lat="48.44374" lon="1.49251">
        <ele>133</ele>
        <time>2024-12-19T14:04:19.111+00:00</time>
      </trkpt>
      <trkpt lat="48.44376" lon="1.49256">
        <ele>133</ele>
        <time>2024-12-19T14:04:23.166+00:00</time>
      </trkpt>
      <trkpt lat="48.4438" lon="1.49262">
        <ele>133</ele>
        <time>2024-12-19T14:04:27.419+00:00</time>
      </trkpt>
      <trkpt lat="48.44383" lon="1.49266">
        <ele>132</ele>
        <time>2024-12-19T14:04:31.480+00:00</time>
      </trkpt>
      <trkpt lat="48.44386" lon="1.49272">
        <ele>132</ele>
        <time>2024-12-19T14:04:35.572+00:00</time>
      </trkpt>
      <trkpt lat="48.4439" lon="1.49286">
        <ele>132</ele>
        <time>2024-12-19T14:04:40.135+00:00</time>
      </trkpt>
      <trkpt lat="48.44394" lon="1.49294">
        <ele>131</ele>
        <time>2024-12-19T14:04:44.639+00:00</time>
      </trkpt>
      <trkpt lat="48.44397" lon="1.49297">
        <ele>131</ele>
        <time>2024-12-19T14:04:49.166+00:00</time>
      </trkpt>
      <trkpt lat="48.444" lon="1.49296">
        <ele>131</ele>
        <time>2024-12-19T14:04:53.639+00:00</time>
      </trkpt>
      <trkpt lat="48.44402" lon="1.49293">
        <ele>131</ele>
        <time>2024-12-19T14:04:58.166+00:00</time>
      </trkpt>
      <trkpt lat="48.444" lon="1.49287">
        <ele>132</ele>
        <time>2024-12-19T14:05:02.680+00:00</time>
      </trkpt>
      <trkpt lat="48.44397" lon="1.49279">
        <ele>132</ele>
        <time>2024-12-19T14:05:07.167+00:00</time>
      </trkpt>
      <trkpt lat="48.44394" lon="1.49272">
        <ele>132</ele>
        <time>2024-12-19T14:05:11.737+00:00</time>
      </trkpt>
      <trkpt lat="48.44388" lon="1.49267">
        <ele>132</ele>
        <time>2024-12-19T14:05:34.076+00:00</time>
      </trkpt>
      <trkpt lat="48.44389" lon="1.49265">
        <ele>132</ele>
        <time>2024-12-19T14:05:38.449+00:00</time>
      </trkpt>
      <trkpt lat="48.44388" lon="1.49264">
        <ele>132</ele>
        <time>2024-12-19T14:05:43.142+00:00</time>
      </trkpt>
      <trkpt lat="48.44387" lon="1.4926">
        <ele>133</ele>
        <time>2024-12-19T14:05:47.090+00:00</time>
      </trkpt>
      <trkpt lat="48.44383" lon="1.49255">
        <ele>133</ele>
        <time>2024-12-19T14:05:51.211+00:00</time>
      </trkpt>
      <trkpt lat="48.44384" lon="1.49254">
        <ele>133</ele>
        <time>2024-12-19T14:05:56.167+00:00</time>
      </trkpt>
      <trkpt lat="48.44381" lon="1.49253">
        <ele>133</ele>
        <time>2024-12-19T14:06:01.167+00:00</time>
      </trkpt>
      <trkpt lat="48.44376" lon="1.49255">
        <ele>133</ele>
        <time>2024-12-19T14:06:06.167+00:00</time>
      </trkpt>
      <trkpt lat="48.44376" lon="1.49257">
        <ele>133</ele>
        <time>2024-12-19T14:06:11.167+00:00</time>
      </trkpt>
      <trkpt lat="48.44376" lon="1.4926">
        <ele>133</ele>
        <time>2024-12-19T14:06:16.167+00:00</time>
      </trkpt>
      <trkpt lat="48.44384" lon="1.49253">
        <ele>133</ele>
        <time>2024-12-19T14:08:50.166+00:00</time>
      </trkpt>
      <trkpt lat="48.44383" lon="1.49249">
        <ele>133</ele>
        <time>2024-12-19T14:08:55.166+00:00</time>
      </trkpt>
      <trkpt lat="48.44383" lon="1.49249">
        <ele>133</ele>
        <time>2024-12-19T14:08:59.819+00:00</time>
      </trkpt>
      <trkpt lat="48.44384" lon="1.49248">
        <ele>133</ele>
        <time>2024-12-19T14:09:04.119+00:00</time>
      </trkpt>
      <trkpt lat="48.44387" lon="1.49244">
        <ele>133</ele>
        <time>2024-12-19T14:09:08.519+00:00</time>
      </trkpt>
      <trkpt lat="48.44392" lon="1.49241">
        <ele>133</ele>
        <time>2024-12-19T14:09:12.981+00:00</time>
      </trkpt>
      <trkpt lat="48.44395" lon="1.49241">
        <ele>133</ele>
        <time>2024-12-19T14:09:17.167+00:00</time>
      </trkpt>
      <trkpt lat="48.44396" lon="1.49246">
        <ele>133</ele>
        <time>2024-12-19T14:09:21.979+00:00</time>
      </trkpt>
      <trkpt lat="48.44395" lon="1.49249">
        <ele>133</ele>
        <time>2024-12-19T14:09:26.167+00:00</time>
      </trkpt>
      <trkpt lat="48.44397" lon="1.49253">
        <ele>133</ele>
        <time>2024-12-19T14:09:30.501+00:00</time>
      </trkpt>
      <trkpt lat="48.44398" lon="1.49259">
        <ele>133</ele>
        <time>2024-12-19T14:09:45.166+00:00</time>
      </trkpt>
      <trkpt lat="48.44398" lon="1.49258">
        <ele>133</ele>
        <time>2024-12-19T14:09:50.166+00:00</time>
      </trkpt>
      <trkpt lat="48.444" lon="1.4926">
        <ele>133</ele>
        <time>2024-12-19T14:09:55.166+00:00</time>
      </trkpt>
      <trkpt lat="48.444" lon="1.49265">
        <ele>132</ele>
        <time>2024-12-19T14:09:59.959+00:00</time>
      </trkpt>
      <trkpt lat="48.44404" lon="1.49272">
        <ele>132</ele>
        <time>2024-12-19T14:10:04.395+00:00</time>
      </trkpt>
      <trkpt lat="48.44404" lon="1.49278">
        <ele>132</ele>
        <time>2024-12-19T14:10:09.167+00:00</time>
      </trkpt>
      <trkpt lat="48.44406" lon="1.49283">
        <ele>132</ele>
        <time>2024-12-19T14:10:14.166+00:00</time>
      </trkpt>
      <trkpt lat="48.44409" lon="1.49288">
        <ele>132</ele>
        <time>2024-12-19T14:10:18.640+00:00</time>
      </trkpt>
      <trkpt lat="48.44411" lon="1.49295">
        <ele>130</ele>
        <time>2024-12-19T14:10:23.039+00:00</time>
      </trkpt>
      <trkpt lat="48.44413" lon="1.493">
        <ele>130</ele>
        <time>2024-12-19T14:10:28.167+00:00</time>
      </trkpt>
      <trkpt lat="48.44416" lon="1.49304">
        <ele>130</ele>
        <time>2024-12-19T14:10:32.856+00:00</time>
      </trkpt>
      <trkpt lat="48.44417" lon="1.49309">
        <ele>130</ele>
        <time>2024-12-19T14:10:37.167+00:00</time>
      </trkpt>
      <trkpt lat="48.44417" lon="1.49316">
        <ele>130</ele>
        <time>2024-12-19T14:10:41.914+00:00</time>
      </trkpt>
      <trkpt lat="48.44419" lon="1.49321">
        <ele>129</ele>
        <time>2024-12-19T14:10:46.167+00:00</time>
      </trkpt>
      <trkpt lat="48.4442" lon="1.49328">
        <ele>129</ele>
        <time>2024-12-19T14:10:50.622+00:00</time>
      </trkpt>
      <trkpt lat="48.44418" lon="1.49332">
        <ele>129</ele>
        <time>2024-12-19T14:10:54.997+00:00</time>
      </trkpt>
      <trkpt lat="48.44414" lon="1.49334">
        <ele>129</ele>
        <time>2024-12-19T14:10:59.440+00:00</time>
      </trkpt>
      <trkpt lat="48.4441" lon="1.49338">
        <ele>129</ele>
        <time>2024-12-19T14:11:04.020+00:00</time>
      </trkpt>
      <trkpt lat="48.44407" lon="1.49343">
        <ele>129</ele>
        <time>2024-12-19T14:11:09.166+00:00</time>
      </trkpt>
      <trkpt lat="48.44405" lon="1.49348">
        <ele>128</ele>
        <time>2024-12-19T14:11:14.167+00:00</time>
      </trkpt>
      <trkpt lat="48.44402" lon="1.49352">
        <ele>129</ele>
        <time>2024-12-19T14:11:18.507+00:00</time>
      </trkpt>
      <trkpt lat="48.44398" lon="1.49356">
        <ele>129</ele>
        <time>2024-12-19T14:11:22.959+00:00</time>
      </trkpt>
      <trkpt lat="48.44394" lon="1.4936">
        <ele>129</ele>
        <time>2024-12-19T14:11:27.166+00:00</time>
      </trkpt>
      <trkpt lat="48.44391" lon="1.49364">
        <ele>129</ele>
        <time>2024-12-19T14:11:31.675+00:00</time>
      </trkpt>
      <trkpt lat="48.4439" lon="1.49371">
        <ele>129</ele>
        <time>2024-12-19T14:11:35.853+00:00</time>
      </trkpt>
      <trkpt lat="48.44384" lon="1.49372">
        <ele>129</ele>
        <time>2024-12-19T14:11:40.167+00:00</time>
      </trkpt>
      <trkpt lat="48.44381" lon="1.49372">
        <ele>129</ele>
        <time>2024-12-19T14:11:45.167+00:00</time>
      </trkpt>
      <trkpt lat="48.44377" lon="1.49375">
        <ele>129</ele>
        <time>2024-12-19T14:11:49.167+00:00</time>
      </trkpt>
      <trkpt lat="48.44374" lon="1.49379">
        <ele>127</ele>
        <time>2024-12-19T14:11:53.684+00:00</time>
      </trkpt>
      <trkpt lat="48.44371" lon="1.49384">
        <ele>127</ele>
        <time>2024-12-19T14:11:58.166+00:00</time>
      </trkpt>
      <trkpt lat="48.4437" lon="1.49384">
        <ele>127</ele>
        <time>2024-12-19T14:12:03.167+00:00</time>
      </trkpt>
      <trkpt lat="48.44368" lon="1.49386">
        <ele>127</ele>
        <time>2024-12-19T14:12:07.279+00:00</time>
      </trkpt>
      <trkpt lat="48.44362" lon="1.4939">
        <ele>127</ele>
        <time>2024-12-19T14:12:12.115+00:00</time>
      </trkpt>
      <trkpt lat="48.44359" lon="1.49397">
        <ele>127</ele>
        <time>2024-12-19T14:12:16.498+00:00</time>
      </trkpt>
      <trkpt lat="48.44357" lon="1.49402">
        <ele>127</ele>
        <time>2024-12-19T14:12:20.754+00:00</time>
      </trkpt>
      <trkpt lat="48.4436" lon="1.49411">
        <ele>126</ele>
        <time>2024-12-19T14:12:24.858+00:00</time>
      </trkpt>
      <trkpt lat="48.44363" lon="1.49417">
        <ele>126</ele>
        <time>2024-12-19T14:12:28.960+00:00</time>
      </trkpt>
      <trkpt lat="48.44367" lon="1.49422">
        <ele>126</ele>
        <time>2024-12-19T14:12:33.166+00:00</time>
      </trkpt>
      <trkpt lat="48.4437" lon="1.49427">
        <ele>126</ele>
        <time>2024-12-19T14:12:36.115+00:00</time>
      </trkpt>
      <trkpt lat="48.44375" lon="1.49433">
        <ele>126</ele>
        <time>2024-12-19T14:12:44.935+00:00</time>
      </trkpt>
      <trkpt lat="48.4438" lon="1.49438">
        <ele>126</ele>
        <time>2024-12-19T14:12:50.166+00:00</time>
      </trkpt>
      <trkpt lat="48.44382" lon="1.4944">
        <ele>126</ele>
        <time>2024-12-19T14:12:54.167+00:00</time>
      </trkpt>
      <trkpt lat="48.44382" lon="1.49442">
        <ele>126</ele>
        <time>2024-12-19T14:12:59.055+00:00</time>
      </trkpt>
      <trkpt lat="48.44387" lon="1.49444">
        <ele>126</ele>
        <time>2024-12-19T14:13:03.458+00:00</time>
      </trkpt>
      <trkpt lat="48.44391" lon="1.49449">
        <ele>126</ele>
        <time>2024-12-19T14:13:08.045+00:00</time>
      </trkpt>
      <trkpt lat="48.44392" lon="1.49458">
        <ele>126</ele>
        <time>2024-12-19T14:13:29.956+00:00</time>
      </trkpt>
      <trkpt lat="48.44392" lon="1.49461">
        <ele>127</ele>
        <time>2024-12-19T14:13:35.167+00:00</time>
      </trkpt>
      <trkpt lat="48.44393" lon="1.49462">
        <ele>127</ele>
        <time>2024-12-19T14:13:40.085+00:00</time>
      </trkpt>
      <trkpt lat="48.44398" lon="1.49466">
        <ele>127</ele>
        <time>2024-12-19T14:13:48.399+00:00</time>
      </trkpt>
      <trkpt lat="48.444" lon="1.49467">
        <ele>127</ele>
        <time>2024-12-19T14:13:53.167+00:00</time>
      </trkpt>
      <trkpt lat="48.44403" lon="1.49468">
        <ele>128</ele>
        <time>2024-12-19T14:13:58.116+00:00</time>
      </trkpt>
      <trkpt lat="48.44406" lon="1.49471">
        <ele>128</ele>
        <time>2024-12-19T14:14:02.166+00:00</time>
      </trkpt>
      <trkpt lat="48.44409" lon="1.49473">
        <ele>128</ele>
        <time>2024-12-19T14:14:07.166+00:00</time>
      </trkpt>
      <trkpt lat="48.4441" lon="1.49475">
        <ele>128</ele>
        <time>2024-12-19T14:14:12.170+00:00</time>
      </trkpt>
      <trkpt lat="48.44412" lon="1.49477">
        <ele>128</ele>
        <time>2024-12-19T14:14:16.569+00:00</time>
      </trkpt>
      <trkpt lat="48.44417" lon="1.49478">
        <ele>128</ele>
        <time>2024-12-19T14:14:47.876+00:00</time>
      </trkpt>
      <trkpt lat="48.44415" lon="1.49472">
        <ele>128</ele>
        <time>2024-12-19T14:14:52.001+00:00</time>
      </trkpt>
      <trkpt lat="48.44417" lon="1.49465">
        <ele>128</ele>
        <time>2024-12-19T14:14:56.117+00:00</time>
      </trkpt>
      <trkpt lat="48.44419" lon="1.49458">
        <ele>127</ele>
        <time>2024-12-19T14:15:00.859+00:00</time>
      </trkpt>
      <trkpt lat="48.4442" lon="1.49458">
        <ele>127</ele>
        <time>2024-12-19T14:15:05.167+00:00</time>
      </trkpt>
      <trkpt lat="48.4442" lon="1.49456">
        <ele>127</ele>
        <time>2024-12-19T14:15:09.459+00:00</time>
      </trkpt>
      <trkpt lat="48.44422" lon="1.49451">
        <ele>127</ele>
        <time>2024-12-19T14:15:14.167+00:00</time>
      </trkpt>
      <trkpt lat="48.44427" lon="1.49447">
        <ele>127</ele>
        <time>2024-12-19T14:15:18.167+00:00</time>
      </trkpt>
      <trkpt lat="48.44427" lon="1.49439">
        <ele>127</ele>
        <time>2024-12-19T14:15:22.339+00:00</time>
      </trkpt>
      <trkpt lat="48.44431" lon="1.49427">
        <ele>127</ele>
        <time>2024-12-19T14:15:40.565+00:00</time>
      </trkpt>
      <trkpt lat="48.44428" lon="1.49426">
        <ele>127</ele>
        <time>2024-12-19T14:15:45.167+00:00</time>
      </trkpt>
      <trkpt lat="48.4443" lon="1.49424">
        <ele>127</ele>
        <time>2024-12-19T14:15:49.978+00:00</time>
      </trkpt>
      <trkpt lat="48.44432" lon="1.49419">
        <ele>127</ele>
        <time>2024-12-19T14:15:54.167+00:00</time>
      </trkpt>
      <trkpt lat="48.44434" lon="1.49418">
        <ele>127</ele>
        <time>2024-12-19T14:15:58.497+00:00</time>
      </trkpt>
      <trkpt lat="48.44439" lon="1.49414">
        <ele>127</ele>
        <time>2024-12-19T14:16:02.742+00:00</time>
      </trkpt>
      <trkpt lat="48.44444" lon="1.49412">
        <ele>127</ele>
        <time>2024-12-19T14:16:07.166+00:00</time>
      </trkpt>
      <trkpt lat="48.44446" lon="1.4941">
        <ele>127</ele>
        <time>2024-12-19T14:16:11.593+00:00</time>
      </trkpt>
      <trkpt lat="48.44449" lon="1.49411">
        <ele>127</ele>
        <time>2024-12-19T14:16:16.115+00:00</time>
      </trkpt>
      <trkpt lat="48.44453" lon="1.4941">
        <ele>127</ele>
        <time>2024-12-19T14:16:20.167+00:00</time>
      </trkpt>
      <trkpt lat="48.44456" lon="1.49402">
        <ele>127</ele>
        <time>2024-12-19T14:16:24.739+00:00</time>
      </trkpt>
      <trkpt lat="48.44458" lon="1.49399">
        <ele>127</ele>
        <time>2024-12-19T14:16:29.166+00:00</time>
      </trkpt>
      <trkpt lat="48.4446" lon="1.49397">
        <ele>128</ele>
        <time>2024-12-19T14:16:33.670+00:00</time>
      </trkpt>
      <trkpt lat="48.44462" lon="1.49401">
        <ele>128</ele>
        <time>2024-12-19T14:16:48.167+00:00</time>
      </trkpt>
      <trkpt lat="48.44462" lon="1.49401">
        <ele>128</ele>
        <time>2024-12-19T14:16:53.167+00:00</time>
      </trkpt>
      <trkpt lat="48.44462" lon="1.49399">
        <ele>128</ele>
        <time>2024-12-19T14:16:58.166+00:00</time>
      </trkpt>
      <trkpt lat="48.44466" lon="1.49396">
        <ele>128</ele>
        <time>2024-12-19T14:17:03.164+00:00</time>
      </trkpt>
      <trkpt lat="48.44469" lon="1.49392">
        <ele>128</ele>
        <time>2024-12-19T14:17:08.144+00:00</time>
      </trkpt>
      <trkpt lat="48.44469" lon="1.49383">
        <ele>128</ele>
        <time>2024-12-19T14:17:27.166+00:00</time>
      </trkpt>
      <trkpt lat="48.4447" lon="1.49383">
        <ele>128</ele>
        <time>2024-12-19T14:17:31.954+00:00</time>
      </trkpt>
      <trkpt lat="48.44471" lon="1.49382">
        <ele>128</ele>
        <time>2024-12-19T14:17:36.166+00:00</time>
      </trkpt>
      <trkpt lat="48.44473" lon="1.49379">
        <ele>128</ele>
        <time>2024-12-19T14:17:41.167+00:00</time>
      </trkpt>
      <trkpt lat="48.44477" lon="1.49376">
        <ele>128</ele>
        <time>2024-12-19T14:17:46.167+00:00</time>
      </trkpt>
      <trkpt lat="48.44477" lon="1.49375">
        <ele>128</ele>
        <time>2024-12-19T14:17:50.673+00:00</time>
      </trkpt>
      <trkpt lat="48.4448" lon="1.49375">
        <ele>128</ele>
        <time>2024-12-19T14:17:55.167+00:00</time>
      </trkpt>
      <trkpt lat="48.44483" lon="1.49372">
        <ele>128</ele>
        <time>2024-12-19T14:18:00.167+00:00</time>
      </trkpt>
      <trkpt lat="48.44485" lon="1.49368">
        <ele>128</ele>
        <time>2024-12-19T14:18:04.459+00:00</time>
      </trkpt>
      <trkpt lat="48.44488" lon="1.49366">
        <ele>129</ele>
        <time>2024-12-19T14:18:08.895+00:00</time>
      </trkpt>
      <trkpt lat="48.4449" lon="1.49363">
        <ele>129</ele>
        <time>2024-12-19T14:18:13.166+00:00</time>
      </trkpt>
      <trkpt lat="48.44493" lon="1.4936">
        <ele>129</ele>
        <time>2024-12-19T14:18:18.039+00:00</time>
      </trkpt>
      <trkpt lat="48.44495" lon="1.49357">
        <ele>129</ele>
        <time>2024-12-19T14:18:22.559+00:00</time>
      </trkpt>
      <trkpt lat="48.445" lon="1.49349">
        <ele>129</ele>
        <time>2024-12-19T14:18:31.167+00:00</time>
      </trkpt>
      <trkpt lat="48.44501" lon="1.49346">
        <ele>129</ele>
        <time>2024-12-19T14:18:35.167+00:00</time>
      </trkpt>
      <trkpt lat="48.44501" lon="1.49346">
        <ele>129</ele>
        <time>2024-12-19T14:18:40.166+00:00</time>
      </trkpt>
      <trkpt lat="48.44502" lon="1.49343">
        <ele>129</ele>
        <time>2024-12-19T14:18:44.801+00:00</time>
      </trkpt>
      <trkpt lat="48.44505" lon="1.4934">
        <ele>129</ele>
        <time>2024-12-19T14:18:48.859+00:00</time>
      </trkpt>
      <trkpt lat="48.44511" lon="1.49338">
        <ele>129</ele>
        <time>2024-12-19T14:19:02.167+00:00</time>
      </trkpt>
      <trkpt lat="48.44512" lon="1.49338">
        <ele>129</ele>
        <time>2024-12-19T14:19:06.778+00:00</time>
      </trkpt>
      <trkpt lat="48.44515" lon="1.49332">
        <ele>128</ele>
        <time>2024-12-19T14:19:11.167+00:00</time>
      </trkpt>
      <trkpt lat="48.44516" lon="1.49326">
        <ele>128</ele>
        <time>2024-12-19T14:19:15.739+00:00</time>
      </trkpt>
      <trkpt lat="48.44519" lon="1.49322">
        <ele>128</ele>
        <time>2024-12-19T14:19:20.166+00:00</time>
      </trkpt>
      <trkpt lat="48.44522" lon="1.49321">
        <ele>128</ele>
        <time>2024-12-19T14:19:24.249+00:00</time>
      </trkpt>
      <trkpt lat="48.44526" lon="1.49317">
        <ele>128</ele>
        <time>2024-12-19T14:19:29.167+00:00</time>
      </trkpt>
      <trkpt lat="48.44532" lon="1.4931">
        <ele>128</ele>
        <time>2024-12-19T14:19:33.976+00:00</time>
      </trkpt>
      <trkpt lat="48.44536" lon="1.49306">
        <ele>128</ele>
        <time>2024-12-19T14:19:38.401+00:00</time>
      </trkpt>
      <trkpt lat="48.44539" lon="1.493">
        <ele>128</ele>
        <time>2024-12-19T14:19:42.880+00:00</time>
      </trkpt>
      <trkpt lat="48.44543" lon="1.49296">
        <ele>128</ele>
        <time>2024-12-19T14:19:47.041+00:00</time>
      </trkpt>
      <trkpt lat="48.44546" lon="1.49291">
        <ele>127</ele>
        <time>2024-12-19T14:19:51.135+00:00</time>
      </trkpt>
      <trkpt lat="48.4455" lon="1.49287">
        <ele>127</ele>
        <time>2024-12-19T14:19:56.160+00:00</time>
      </trkpt>
      <trkpt lat="48.44542" lon="1.49283">
        <ele>127</ele>
        <time>2024-12-19T14:20:00.167+00:00</time>
      </trkpt>
      <trkpt lat="48.44544" lon="1.49283">
        <ele>127</ele>
        <time>2024-12-19T14:20:04.993+00:00</time>
      </trkpt>
      <trkpt lat="48.44547" lon="1.49282">
        <ele>127</ele>
        <time>2024-12-19T14:20:11.781+00:00</time>
      </trkpt>
      <trkpt lat="48.4455" lon="1.49273">
        <ele>127</ele>
        <time>2024-12-19T14:20:21.166+00:00</time>
      </trkpt>
      <trkpt lat="48.44545" lon="1.49272">
        <ele>127</ele>
        <time>2024-12-19T14:21:30.534+00:00</time>
      </trkpt>
      <trkpt lat="48.44542" lon="1.49266">
        <ele>128</ele>
        <time>2024-12-19T14:21:35.074+00:00</time>
      </trkpt>
      <trkpt lat="48.44539" lon="1.49261">
        <ele>128</ele>
        <time>2024-12-19T14:21:39.514+00:00</time>
      </trkpt>
      <trkpt lat="48.44537" lon="1.49256">
        <ele>128</ele>
        <time>2024-12-19T14:21:43.531+00:00</time>
      </trkpt>
      <trkpt lat="48.44535" lon="1.49251">
        <ele>128</ele>
        <time>2024-12-19T14:21:48.167+00:00</time>
      </trkpt>
      <trkpt lat="48.44536" lon="1.49248">
        <ele>128</ele>
        <time>2024-12-19T14:21:53.167+00:00</time>
      </trkpt>
      <trkpt lat="48.44538" lon="1.49246">
        <ele>128</ele>
        <time>2024-12-19T14:21:58.166+00:00</time>
      </trkpt>
      <trkpt lat="48.44544" lon="1.4924">
        <ele>127</ele>
        <time>2024-12-19T14:22:02.820+00:00</time>
      </trkpt>
      <trkpt lat="48.44547" lon="1.49237">
        <ele>127</ele>
        <time>2024-12-19T14:22:07.113+00:00</time>
      </trkpt>
      <trkpt lat="48.44557" lon="1.49233">
        <ele>127</ele>
        <time>2024-12-19T14:22:25.167+00:00</time>
      </trkpt>
      <trkpt lat="48.44558" lon="1.49233">
        <ele>127</ele>
        <time>2024-12-19T14:22:29.732+00:00</time>
      </trkpt>
      <trkpt lat="48.44566" lon="1.4923">
        <ele>127</ele>
        <time>2024-12-19T14:22:34.167+00:00</time>
      </trkpt>
      <trkpt lat="48.4457" lon="1.49224">
        <ele>126</ele>
        <time>2024-12-19T14:22:38.707+00:00</time>
      </trkpt>
      <trkpt lat="48.44572" lon="1.49215">
        <ele>126</ele>
        <time>2024-12-19T14:22:43.125+00:00</time>
      </trkpt>
      <trkpt lat="48.44578" lon="1.4921">
        <ele>126</ele>
        <time>2024-12-19T14:22:47.528+00:00</time>
      </trkpt>
      <trkpt lat="48.44582" lon="1.49205">
        <ele>127</ele>
        <time>2024-12-19T14:22:51.793+00:00</time>
      </trkpt>
      <trkpt lat="48.44586" lon="1.492">
        <ele>127</ele>
        <time>2024-12-19T14:22:56.167+00:00</time>
      </trkpt>
      <trkpt lat="48.44589" lon="1.49195">
        <ele>127</ele>
        <time>2024-12-19T14:23:00.246+00:00</time>
      </trkpt>
      <trkpt lat="48.44592" lon="1.49189">
        <ele>127</ele>
        <time>2024-12-19T14:23:04.460+00:00</time>
      </trkpt>
      <trkpt lat="48.44595" lon="1.49185">
        <ele>127</ele>
        <time>2024-12-19T14:23:09.035+00:00</time>
      </trkpt>
      <trkpt lat="48.44597" lon="1.4919">
        <ele>127</ele>
        <time>2024-12-19T14:23:13.733+00:00</time>
      </trkpt>
      <trkpt lat="48.44604" lon="1.492">
        <ele>127</ele>
        <time>2024-12-19T14:23:18.167+00:00</time>
      </trkpt>
      <trkpt lat="48.44604" lon="1.49204">
        <ele>127</ele>
        <time>2024-12-19T14:23:32.167+00:00</time>
      </trkpt>
      <trkpt lat="48.44599" lon="1.49189">
        <ele>127</ele>
        <time>2024-12-19T14:23:37.166+00:00</time>
      </trkpt>
      <trkpt lat="48.44595" lon="1.49184">
        <ele>127</ele>
        <time>2024-12-19T14:23:41.314+00:00</time>
      </trkpt>
      <trkpt lat="48.44595" lon="1.49177">
        <ele>130</ele>
        <time>2024-12-19T14:23:45.348+00:00</time>
      </trkpt>
      <trkpt lat="48.44597" lon="1.4917">
        <ele>130</ele>
        <time>2024-12-19T14:23:49.913+00:00</time>
      </trkpt>
      <trkpt lat="48.44596" lon="1.49162">
        <ele>130</ele>
        <time>2024-12-19T14:23:55.167+00:00</time>
      </trkpt>
      <trkpt lat="48.44602" lon="1.49158">
        <ele>128</ele>
        <time>2024-12-19T14:24:00.166+00:00</time>
      </trkpt>
      <trkpt lat="48.44602" lon="1.49152">
        <ele>130</ele>
        <time>2024-12-19T14:24:04.167+00:00</time>
      </trkpt>
      <trkpt lat="48.44605" lon="1.49149">
        <ele>130</ele>
        <time>2024-12-19T14:24:08.770+00:00</time>
      </trkpt>
      <trkpt lat="48.44609" lon="1.49147">
        <ele>130</ele>
        <time>2024-12-19T14:24:13.167+00:00</time>
      </trkpt>
      <trkpt lat="48.44613" lon="1.49144">
        <ele>130</ele>
        <time>2024-12-19T14:24:17.487+00:00</time>
      </trkpt>
      <trkpt lat="48.44618" lon="1.49142">
        <ele>130</ele>
        <time>2024-12-19T14:24:21.888+00:00</time>
      </trkpt>
      <trkpt lat="48.44622" lon="1.4914">
        <ele>130</ele>
        <time>2024-12-19T14:24:26.195+00:00</time>
      </trkpt>
      <trkpt lat="48.44625" lon="1.49137">
        <ele>128</ele>
        <time>2024-12-19T14:24:30.515+00:00</time>
      </trkpt>
      <trkpt lat="48.44628" lon="1.49136">
        <ele>128</ele>
        <time>2024-12-19T14:24:34.953+00:00</time>
      </trkpt>
      <trkpt lat="48.4463" lon="1.49136">
        <ele>128</ele>
        <time>2024-12-19T14:24:39.166+00:00</time>
      </trkpt>
      <trkpt lat="48.44634" lon="1.49135">
        <ele>128</ele>
        <time>2024-12-19T14:24:43.647+00:00</time>
      </trkpt>
      <trkpt lat="48.44641" lon="1.49128">
        <ele>128</ele>
        <time>2024-12-19T14:24:56.167+00:00</time>
      </trkpt>
      <trkpt lat="48.44644" lon="1.4913">
        <ele>128</ele>
        <time>2024-12-19T14:25:01.167+00:00</time>
      </trkpt>
      <trkpt lat="48.44652" lon="1.49128">
        <ele>128</ele>
        <time>2024-12-19T14:25:05.449+00:00</time>
      </trkpt>
      <trkpt lat="48.44658" lon="1.49127">
        <ele>128</ele>
        <time>2024-12-19T14:25:10.167+00:00</time>
      </trkpt>
      <trkpt lat="48.44663" lon="1.49124">
        <ele>129</ele>
        <time>2024-12-19T14:25:14.899+00:00</time>
      </trkpt>
      <trkpt lat="48.44668" lon="1.49122">
        <ele>129</ele>
        <time>2024-12-19T14:25:33.167+00:00</time>
      </trkpt>
      <trkpt lat="48.44663" lon="1.49122">
        <ele>129</ele>
        <time>2024-12-19T14:25:37.448+00:00</time>
      </trkpt>
      <trkpt lat="48.44656" lon="1.4912">
        <ele>129</ele>
        <time>2024-12-19T14:25:42.166+00:00</time>
      </trkpt>
      <trkpt lat="48.44653" lon="1.49121">
        <ele>129</ele>
        <time>2024-12-19T14:25:46.509+00:00</time>
      </trkpt>
      <trkpt lat="48.44654" lon="1.49109">
        <ele>129</ele>
        <time>2024-12-19T14:25:50.610+00:00</time>
      </trkpt>
      <trkpt lat="48.44656" lon="1.49096">
        <ele>132</ele>
        <time>2024-12-19T14:25:54.773+00:00</time>
      </trkpt>
      <trkpt lat="48.44653" lon="1.49093">
        <ele>132</ele>
        <time>2024-12-19T14:25:59.167+00:00</time>
      </trkpt>
      <trkpt lat="48.44653" lon="1.49091">
        <ele>132</ele>
        <time>2024-12-19T14:26:03.012+00:00</time>
      </trkpt>
      <trkpt lat="48.44655" lon="1.49084">
        <ele>132</ele>
        <time>2024-12-19T14:26:11.171+00:00</time>
      </trkpt>
      <trkpt lat="48.44654" lon="1.49079">
        <ele>132</ele>
        <time>2024-12-19T14:26:15.167+00:00</time>
      </trkpt>
      <trkpt lat="48.44652" lon="1.49073">
        <ele>132</ele>
        <time>2024-12-19T14:26:33.609+00:00</time>
      </trkpt>
      <trkpt lat="48.44654" lon="1.49076">
        <ele>132</ele>
        <time>2024-12-19T14:26:37.734+00:00</time>
      </trkpt>
      <trkpt lat="48.44661" lon="1.49071">
        <ele>132</ele>
        <time>2024-12-19T14:26:41.751+00:00</time>
      </trkpt>
      <trkpt lat="48.44662" lon="1.49072">
        <ele>132</ele>
        <time>2024-12-19T14:26:45.974+00:00</time>
      </trkpt>
      <trkpt lat="48.44664" lon="1.49067">
        <ele>137</ele>
        <time>2024-12-19T14:26:50.512+00:00</time>
      </trkpt>
      <trkpt lat="48.44664" lon="1.49064">
        <ele>137</ele>
        <time>2024-12-19T14:26:55.033+00:00</time>
      </trkpt>
      <trkpt lat="48.44664" lon="1.49063">
        <ele>137</ele>
        <time>2024-12-19T14:26:57.166+00:00</time>
      </trkpt>
      <trkpt lat="48.44666" lon="1.49062">
        <ele>137</ele>
        <time>2024-12-19T14:27:06.166+00:00</time>
      </trkpt>
      <trkpt lat="48.44666" lon="1.49054">
        <ele>137</ele>
        <time>2024-12-19T14:27:10.792+00:00</time>
      </trkpt>
      <trkpt lat="48.44675" lon="1.49056">
        <ele>137</ele>
        <time>2024-12-19T14:27:15.329+00:00</time>
      </trkpt>
      <trkpt lat="48.44679" lon="1.49053">
        <ele>137</ele>
        <time>2024-12-19T14:27:20.073+00:00</time>
      </trkpt>
      <trkpt lat="48.44683" lon="1.49049">
        <ele>139</ele>
        <time>2024-12-19T14:27:24.167+00:00</time>
      </trkpt>
      <trkpt lat="48.44685" lon="1.49046">
        <ele>139</ele>
        <time>2024-12-19T14:27:28.166+00:00</time>
      </trkpt>
      <trkpt lat="48.44685" lon="1.4904">
        <ele>143</ele>
        <time>2024-12-19T14:27:37.167+00:00</time>
      </trkpt>
      <trkpt lat="48.44684" lon="1.49048">
        <ele>139</ele>
        <time>2024-12-19T14:28:15.167+00:00</time>
      </trkpt>
      <trkpt lat="48.44688" lon="1.49047">
        <ele>139</ele>
        <time>2024-12-19T14:28:19.447+00:00</time>
      </trkpt>
      <trkpt lat="48.44692" lon="1.4905">
        <ele>139</ele>
        <time>2024-12-19T14:28:23.875+00:00</time>
      </trkpt>
      <trkpt lat="48.44694" lon="1.49053">
        <ele>139</ele>
        <time>2024-12-19T14:28:28.174+00:00</time>
      </trkpt>
      <trkpt lat="48.44697" lon="1.49055">
        <ele>139</ele>
        <time>2024-12-19T14:28:33.167+00:00</time>
      </trkpt>
      <trkpt lat="48.44698" lon="1.49058">
        <ele>139</ele>
        <time>2024-12-19T14:29:19.887+00:00</time>
      </trkpt>
      <trkpt lat="48.44697" lon="1.49068">
        <ele>139</ele>
        <time>2024-12-19T14:29:24.571+00:00</time>
      </trkpt>
      <trkpt lat="48.44698" lon="1.49077">
        <ele>135</ele>
        <time>2024-12-19T14:29:28.855+00:00</time>
      </trkpt>
      <trkpt lat="48.44699" lon="1.4908">
        <ele>135</ele>
        <time>2024-12-19T14:29:32.907+00:00</time>
      </trkpt>
      <trkpt lat="48.44699" lon="1.49084">
        <ele>135</ele>
        <time>2024-12-19T14:29:37.150+00:00</time>
      </trkpt>
      <trkpt lat="48.44701" lon="1.4909">
        <ele>135</ele>
        <time>2024-12-19T14:29:41.167+00:00</time>
      </trkpt>
      <trkpt lat="48.44702" lon="1.49097">
        <ele>135</ele>
        <time>2024-12-19T14:29:45.167+00:00</time>
      </trkpt>
      <trkpt lat="48.44703" lon="1.49103">
        <ele>132</ele>
        <time>2024-12-19T14:29:49.950+00:00</time>
      </trkpt>
      <trkpt lat="48.44703" lon="1.49109">
        <ele>132</ele>
        <time>2024-12-19T14:29:53.967+00:00</time>
      </trkpt>
      <trkpt lat="48.44703" lon="1.49116">
        <ele>132</ele>
        <time>2024-12-19T14:29:58.356+00:00</time>
      </trkpt>
      <trkpt lat="48.44703" lon="1.49119">
        <ele>132</ele>
        <time>2024-12-19T14:30:02.668+00:00</time>
      </trkpt>
      <trkpt lat="48.44705" lon="1.49125">
        <ele>128</ele>
        <time>2024-12-19T14:30:06.889+00:00</time>
      </trkpt>
      <trkpt lat="48.44705" lon="1.49133">
        <ele>128</ele>
        <time>2024-12-19T14:30:11.167+00:00</time>
      </trkpt>
      <trkpt lat="48.44706" lon="1.49142">
        <ele>128</ele>
        <time>2024-12-19T14:30:16.166+00:00</time>
      </trkpt>
      <trkpt lat="48.44706" lon="1.49149">
        <ele>128</ele>
        <time>2024-12-19T14:30:20.587+00:00</time>
      </trkpt>
      <trkpt lat="48.44704" lon="1.49157">
        <ele>127</ele>
        <time>2024-12-19T14:30:25.049+00:00</time>
      </trkpt>
      <trkpt lat="48.44703" lon="1.49164">
        <ele>127</ele>
        <time>2024-12-19T14:30:29.554+00:00</time>
      </trkpt>
      <trkpt lat="48.44702" lon="1.49169">
        <ele>127</ele>
        <time>2024-12-19T14:30:33.586+00:00</time>
      </trkpt>
      <trkpt lat="48.44701" lon="1.49175">
        <ele>127</ele>
        <time>2024-12-19T14:30:37.928+00:00</time>
      </trkpt>
      <trkpt lat="48.44702" lon="1.49175">
        <ele>127</ele>
        <time>2024-12-19T14:30:42.167+00:00</time>
      </trkpt>
      <trkpt lat="48.44702" lon="1.49178">
        <ele>127</ele>
        <time>2024-12-19T14:30:46.594+00:00</time>
      </trkpt>
      <trkpt lat="48.44702" lon="1.49183">
        <ele>127</ele>
        <time>2024-12-19T14:30:51.167+00:00</time>
      </trkpt>
      <trkpt lat="48.44703" lon="1.49182">
        <ele>127</ele>
        <time>2024-12-19T14:30:56.086+00:00</time>
      </trkpt>
      <trkpt lat="48.44703" lon="1.49186">
        <ele>127</ele>
        <time>2024-12-19T14:31:00.167+00:00</time>
      </trkpt>
      <trkpt lat="48.44699" lon="1.49191">
        <ele>127</ele>
        <time>2024-12-19T14:31:04.455+00:00</time>
      </trkpt>
      <trkpt lat="48.44697" lon="1.49198">
        <ele>127</ele>
        <time>2024-12-19T14:31:08.633+00:00</time>
      </trkpt>
      <trkpt lat="48.44697" lon="1.49204">
        <ele>127</ele>
        <time>2024-12-19T14:31:12.811+00:00</time>
      </trkpt>
      <trkpt lat="48.44702" lon="1.49204">
        <ele>127</ele>
        <time>2024-12-19T14:31:17.512+00:00</time>
      </trkpt>
      <trkpt lat="48.44706" lon="1.49203">
        <ele>127</ele>
        <time>2024-12-19T14:31:22.166+00:00</time>
      </trkpt>
      <trkpt lat="48.44709" lon="1.49203">
        <ele>129</ele>
        <time>2024-12-19T14:31:26.167+00:00</time>
      </trkpt>
      <trkpt lat="48.44709" lon="1.49206">
        <ele>129</ele>
        <time>2024-12-19T14:31:39.738+00:00</time>
      </trkpt>
      <trkpt lat="48.44708" lon="1.49207">
        <ele>129</ele>
        <time>2024-12-19T14:31:45.166+00:00</time>
      </trkpt>
      <trkpt lat="48.4471" lon="1.49207">
        <ele>129</ele>
        <time>2024-12-19T14:31:49.665+00:00</time>
      </trkpt>
      <trkpt lat="48.44715" lon="1.49205">
        <ele>129</ele>
        <time>2024-12-19T14:31:54.167+00:00</time>
      </trkpt>
      <trkpt lat="48.44719" lon="1.49203">
        <ele>129</ele>
        <time>2024-12-19T14:31:58.397+00:00</time>
      </trkpt>
      <trkpt lat="48.44723" lon="1.49199">
        <ele>129</ele>
        <time>2024-12-19T14:32:03.167+00:00</time>
      </trkpt>
      <trkpt lat="48.44726" lon="1.49196">
        <ele>129</ele>
        <time>2024-12-19T14:32:08.167+00:00</time>
      </trkpt>
      <trkpt lat="48.4473" lon="1.49192">
        <ele>129</ele>
        <time>2024-12-19T14:32:13.167+00:00</time>
      </trkpt>
      <trkpt lat="48.44734" lon="1.4919">
        <ele>129</ele>
        <time>2024-12-19T14:32:17.712+00:00</time>
      </trkpt>
      <trkpt lat="48.44737" lon="1.49187">
        <ele>130</ele>
        <time>2024-12-19T14:32:21.590+00:00</time>
      </trkpt>
      <trkpt lat="48.44747" lon="1.4918">
        <ele>130</ele>
        <time>2024-12-19T14:32:30.430+00:00</time>
      </trkpt>
      <trkpt lat="48.44751" lon="1.49177">
        <ele>130</ele>
        <time>2024-12-19T14:32:34.782+00:00</time>
      </trkpt>
      <trkpt lat="48.44756" lon="1.49174">
        <ele>130</ele>
        <time>2024-12-19T14:32:39.167+00:00</time>
      </trkpt>
      <trkpt lat="48.44761" lon="1.49171">
        <ele>130</ele>
        <time>2024-12-19T14:32:43.793+00:00</time>
      </trkpt>
      <trkpt lat="48.44765" lon="1.4917">
        <ele>130</ele>
        <time>2024-12-19T14:32:48.166+00:00</time>
      </trkpt>
      <trkpt lat="48.44766" lon="1.4917">
        <ele>130</ele>
        <time>2024-12-19T14:32:52.167+00:00</time>
      </trkpt>
      <trkpt lat="48.4477" lon="1.49167">
        <ele>130</ele>
        <time>2024-12-19T14:32:56.611+00:00</time>
      </trkpt>
      <trkpt lat="48.44773" lon="1.49164">
        <ele>130</ele>
        <time>2024-12-19T14:33:01.167+00:00</time>
      </trkpt>
      <trkpt lat="48.44775" lon="1.49161">
        <ele>130</ele>
        <time>2024-12-19T14:33:05.731+00:00</time>
      </trkpt>
      <trkpt lat="48.44778" lon="1.49159">
        <ele>130</ele>
        <time>2024-12-19T14:33:09.815+00:00</time>
      </trkpt>
      <trkpt lat="48.44782" lon="1.49155">
        <ele>130</ele>
        <time>2024-12-19T14:33:14.167+00:00</time>
      </trkpt>
      <trkpt lat="48.44789" lon="1.49152">
        <ele>130</ele>
        <time>2024-12-19T14:33:18.932+00:00</time>
      </trkpt>
      <trkpt lat="48.44795" lon="1.4915">
        <ele>128</ele>
        <time>2024-12-19T14:33:23.007+00:00</time>
      </trkpt>
      <trkpt lat="48.448" lon="1.49147">
        <ele>128</ele>
        <time>2024-12-19T14:33:27.167+00:00</time>
      </trkpt>
      <trkpt lat="48.44806" lon="1.49146">
        <ele>128</ele>
        <time>2024-12-19T14:33:31.750+00:00</time>
      </trkpt>
      <trkpt lat="48.44809" lon="1.49144">
        <ele>128</ele>
        <time>2024-12-19T14:33:35.886+00:00</time>
      </trkpt>
      <trkpt lat="48.44814" lon="1.49139">
        <ele>128</ele>
        <time>2024-12-19T14:33:40.109+00:00</time>
      </trkpt>
      <trkpt lat="48.44819" lon="1.49137">
        <ele>128</ele>
        <time>2024-12-19T14:33:44.166+00:00</time>
      </trkpt>
      <trkpt lat="48.44824" lon="1.49134">
        <ele>128</ele>
        <time>2024-12-19T14:33:48.630+00:00</time>
      </trkpt>
      <trkpt lat="48.44827" lon="1.49131">
        <ele>128</ele>
        <time>2024-12-19T14:33:53.074+00:00</time>
      </trkpt>
      <trkpt lat="48.4483" lon="1.49127">
        <ele>128</ele>
        <time>2024-12-19T14:33:57.166+00:00</time>
      </trkpt>
      <trkpt lat="48.44831" lon="1.49122">
        <ele>128</ele>
        <time>2024-12-19T14:34:01.466+00:00</time>
      </trkpt>
      <trkpt lat="48.4483" lon="1.49114">
        <ele>128</ele>
        <time>2024-12-19T14:34:05.834+00:00</time>
      </trkpt>
      <trkpt lat="48.44829" lon="1.49108">
        <ele>128</ele>
        <time>2024-12-19T14:34:12.489+00:00</time>
      </trkpt>
      <trkpt lat="48.44828" lon="1.49107">
        <ele>128</ele>
        <time>2024-12-19T14:34:18.166+00:00</time>
      </trkpt>
      <trkpt lat="48.44828" lon="1.49106">
        <ele>128</ele>
        <time>2024-12-19T14:34:22.486+00:00</time>
      </trkpt>
      <trkpt lat="48.44827" lon="1.49098">
        <ele>128</ele>
        <time>2024-12-19T14:34:26.929+00:00</time>
      </trkpt>
      <trkpt lat="48.44827" lon="1.49091">
        <ele>128</ele>
        <time>2024-12-19T14:34:31.167+00:00</time>
      </trkpt>
      <trkpt lat="48.44825" lon="1.49082">
        <ele>128</ele>
        <time>2024-12-19T14:34:35.750+00:00</time>
      </trkpt>
      <trkpt lat="48.44825" lon="1.49081">
        <ele>128</ele>
        <time>2024-12-19T14:34:40.112+00:00</time>
      </trkpt>
      <trkpt lat="48.4483" lon="1.49081">
        <ele>128</ele>
        <time>2024-12-19T14:34:44.314+00:00</time>
      </trkpt>
      <trkpt lat="48.44836" lon="1.4908">
        <ele>128</ele>
        <time>2024-12-19T14:34:48.510+00:00</time>
      </trkpt>
      <trkpt lat="48.44843" lon="1.49079">
        <ele>128</ele>
        <time>2024-12-19T14:34:52.731+00:00</time>
      </trkpt>
      <trkpt lat="48.44848" lon="1.49079">
        <ele>128</ele>
        <time>2024-12-19T14:34:56.851+00:00</time>
      </trkpt>
      <trkpt lat="48.44851" lon="1.49079">
        <ele>128</ele>
        <time>2024-12-19T14:34:59.709+00:00</time>
      </trkpt>
      <trkpt lat="48.44857" lon="1.49077">
        <ele>128</ele>
        <time>2024-12-19T14:35:07.825+00:00</time>
      </trkpt>
      <trkpt lat="48.4486" lon="1.49078">
        <ele>128</ele>
        <time>2024-12-19T14:35:12.166+00:00</time>
      </trkpt>
      <trkpt lat="48.44864" lon="1.49078">
        <ele>128</ele>
        <time>2024-12-19T14:35:16.858+00:00</time>
      </trkpt>
      <trkpt lat="48.44868" lon="1.49072">
        <ele>128</ele>
        <time>2024-12-19T14:35:21.166+00:00</time>
      </trkpt>
      <trkpt lat="48.44873" lon="1.49065">
        <ele>128</ele>
        <time>2024-12-19T14:35:26.167+00:00</time>
      </trkpt>
      <trkpt lat="48.44879" lon="1.49062">
        <ele>128</ele>
        <time>2024-12-19T14:35:30.780+00:00</time>
      </trkpt>
      <trkpt lat="48.44884" lon="1.49062">
        <ele>128</ele>
        <time>2024-12-19T14:35:35.101+00:00</time>
      </trkpt>
      <trkpt lat="48.44889" lon="1.49059">
        <ele>128</ele>
        <time>2024-12-19T14:35:40.167+00:00</time>
      </trkpt>
      <trkpt lat="48.44893" lon="1.49055">
        <ele>128</ele>
        <time>2024-12-19T14:35:44.543+00:00</time>
      </trkpt>
      <trkpt lat="48.44893" lon="1.49046">
        <ele>128</ele>
        <time>2024-12-19T14:36:21.642+00:00</time>
      </trkpt>
      <trkpt lat="48.44889" lon="1.49038">
        <ele>128</ele>
        <time>2024-12-19T14:36:25.864+00:00</time>
      </trkpt>
      <trkpt lat="48.44889" lon="1.49031">
        <ele>128</ele>
        <time>2024-12-19T14:36:30.167+00:00</time>
      </trkpt>
      <trkpt lat="48.44895" lon="1.49026">
        <ele>128</ele>
        <time>2024-12-19T14:36:35.167+00:00</time>
      </trkpt>
      <trkpt lat="48.44899" lon="1.49024">
        <ele>128</ele>
        <time>2024-12-19T14:36:39.621+00:00</time>
      </trkpt>
      <trkpt lat="48.44903" lon="1.49021">
        <ele>128</ele>
        <time>2024-12-19T14:36:43.723+00:00</time>
      </trkpt>
      <trkpt lat="48.44907" lon="1.49018">
        <ele>128</ele>
        <time>2024-12-19T14:36:49.127+00:00</time>
      </trkpt>
      <trkpt lat="48.4491" lon="1.49017">
        <ele>128</ele>
        <time>2024-12-19T14:36:53.167+00:00</time>
      </trkpt>
      <trkpt lat="48.44913" lon="1.4902">
        <ele>128</ele>
        <time>2024-12-19T14:36:57.828+00:00</time>
      </trkpt>
      <trkpt lat="48.44917" lon="1.49022">
        <ele>128</ele>
        <time>2024-12-19T14:37:03.180+00:00</time>
      </trkpt>
      <trkpt lat="48.4492" lon="1.4902">
        <ele>128</ele>
        <time>2024-12-19T14:37:08.167+00:00</time>
      </trkpt>
      <trkpt lat="48.44924" lon="1.49017">
        <ele>128</ele>
        <time>2024-12-19T14:37:12.562+00:00</time>
      </trkpt>
      <trkpt lat="48.44928" lon="1.49019">
        <ele>128</ele>
        <time>2024-12-19T14:37:17.039+00:00</time>
      </trkpt>
      <trkpt lat="48.44936" lon="1.49017">
        <ele>130</ele>
        <time>2024-12-19T14:37:39.166+00:00</time>
      </trkpt>
      <trkpt lat="48.44938" lon="1.49011">
        <ele>130</ele>
        <time>2024-12-19T14:37:43.841+00:00</time>
      </trkpt>
      <trkpt lat="48.44942" lon="1.49004">
        <ele>130</ele>
        <time>2024-12-19T14:37:49.167+00:00</time>
      </trkpt>
      <trkpt lat="48.44947" lon="1.49002">
        <ele>130</ele>
        <time>2024-12-19T14:37:54.166+00:00</time>
      </trkpt>
      <trkpt lat="48.44954" lon="1.49004">
        <ele>130</ele>
        <time>2024-12-19T14:37:58.324+00:00</time>
      </trkpt>
      <trkpt lat="48.44957" lon="1.49008">
        <ele>130</ele>
        <time>2024-12-19T14:38:03.166+00:00</time>
      </trkpt>
      <trkpt lat="48.44959" lon="1.4901">
        <ele>129</ele>
        <time>2024-12-19T14:38:08.021+00:00</time>
      </trkpt>
      <trkpt lat="48.44968" lon="1.4901">
        <ele>129</ele>
        <time>2024-12-19T14:38:12.167+00:00</time>
      </trkpt>
      <trkpt lat="48.44974" lon="1.49008">
        <ele>129</ele>
        <time>2024-12-19T14:38:17.166+00:00</time>
      </trkpt>
      <trkpt lat="48.44979" lon="1.49005">
        <ele>129</ele>
        <time>2024-12-19T14:38:22.059+00:00</time>
      </trkpt>
      <trkpt lat="48.44981" lon="1.49011">
        <ele>129</ele>
        <time>2024-12-19T14:38:26.337+00:00</time>
      </trkpt>
      <trkpt lat="48.44982" lon="1.4901">
        <ele>129</ele>
        <time>2024-12-19T14:38:29.167+00:00</time>
      </trkpt>
      <trkpt lat="48.44987" lon="1.49014">
        <ele>127</ele>
        <time>2024-12-19T14:38:37.167+00:00</time>
      </trkpt>
      <trkpt lat="48.44992" lon="1.49015">
        <ele>127</ele>
        <time>2024-12-19T14:38:51.826+00:00</time>
      </trkpt>
      <trkpt lat="48.44994" lon="1.49018">
        <ele>127</ele>
        <time>2024-12-19T14:38:56.080+00:00</time>
      </trkpt>
      <trkpt lat="48.44995" lon="1.49028">
        <ele>127</ele>
        <time>2024-12-19T14:39:01.167+00:00</time>
      </trkpt>
      <trkpt lat="48.44996" lon="1.49037">
        <ele>127</ele>
        <time>2024-12-19T14:39:05.942+00:00</time>
      </trkpt>
      <trkpt lat="48.44999" lon="1.49048">
        <ele>127</ele>
        <time>2024-12-19T14:39:12.887+00:00</time>
      </trkpt>
      <trkpt lat="48.44999" lon="1.49053">
        <ele>127</ele>
        <time>2024-12-19T14:40:16.645+00:00</time>
      </trkpt>
      <trkpt lat="48.44998" lon="1.49072">
        <ele>128</ele>
        <time>2024-12-19T14:40:21.062+00:00</time>
      </trkpt>
      <trkpt lat="48.45" lon="1.4908">
        <ele>128</ele>
        <time>2024-12-19T14:40:25.139+00:00</time>
      </trkpt>
      <trkpt lat="48.45002" lon="1.49089">
        <ele>128</ele>
        <time>2024-12-19T14:40:29.540+00:00</time>
      </trkpt>
      <trkpt lat="48.45003" lon="1.49094">
        <ele>128</ele>
        <time>2024-12-19T14:40:34.167+00:00</time>
      </trkpt>
      <trkpt lat="48.45005" lon="1.49098">
        <ele>128</ele>
        <time>2024-12-19T14:40:38.167+00:00</time>
      </trkpt>
      <trkpt lat="48.45005" lon="1.49106">
        <ele>128</ele>
        <time>2024-12-19T14:40:43+00:00</time>
      </trkpt>
      <trkpt lat="48.45008" lon="1.49115">
        <ele>128</ele>
        <time>2024-12-19T14:40:47.300+00:00</time>
      </trkpt>
      <trkpt lat="48.45009" lon="1.49123">
        <ele>128</ele>
        <time>2024-12-19T14:40:51.479+00:00</time>
      </trkpt>
      <trkpt lat="48.45009" lon="1.4913">
        <ele>127</ele>
        <time>2024-12-19T14:40:55.762+00:00</time>
      </trkpt>
      <trkpt lat="48.45011" lon="1.49136">
        <ele>127</ele>
        <time>2024-12-19T14:41:00.167+00:00</time>
      </trkpt>
      <trkpt lat="48.45012" lon="1.49137">
        <ele>127</ele>
        <time>2024-12-19T14:41:01.859+00:00</time>
      </trkpt>
      <trkpt lat="48.45013" lon="1.49138">
        <ele>127</ele>
        <time>2024-12-19T14:41:09.167+00:00</time>
      </trkpt>
      <trkpt lat="48.45014" lon="1.49146">
        <ele>128</ele>
        <time>2024-12-19T14:41:14.167+00:00</time>
      </trkpt>
      <trkpt lat="48.45016" lon="1.49155">
        <ele>127</ele>
        <time>2024-12-19T14:41:19.022+00:00</time>
      </trkpt>
      <trkpt lat="48.45018" lon="1.4916">
        <ele>127</ele>
        <time>2024-12-19T14:41:23.322+00:00</time>
      </trkpt>
      <trkpt lat="48.45022" lon="1.49159">
        <ele>127</ele>
        <time>2024-12-19T14:41:28.038+00:00</time>
      </trkpt>
      <trkpt lat="48.45027" lon="1.49159">
        <ele>127</ele>
        <time>2024-12-19T14:41:32.525+00:00</time>
      </trkpt>
      <trkpt lat="48.45031" lon="1.49159">
        <ele>127</ele>
        <time>2024-12-19T14:41:36.780+00:00</time>
      </trkpt>
      <trkpt lat="48.45035" lon="1.49158">
        <ele>127</ele>
        <time>2024-12-19T14:41:41.039+00:00</time>
      </trkpt>
      <trkpt lat="48.4504" lon="1.49156">
        <ele>127</ele>
        <time>2024-12-19T14:41:45.191+00:00</time>
      </trkpt>
      <trkpt lat="48.45045" lon="1.49155">
        <ele>128</ele>
        <time>2024-12-19T14:41:49.898+00:00</time>
      </trkpt>
      <trkpt lat="48.45049" lon="1.49154">
        <ele>128</ele>
        <time>2024-12-19T14:41:54.166+00:00</time>
      </trkpt>
      <trkpt lat="48.45054" lon="1.49155">
        <ele>128</ele>
        <time>2024-12-19T14:41:58.582+00:00</time>
      </trkpt>
      <trkpt lat="48.45059" lon="1.49154">
        <ele>128</ele>
        <time>2024-12-19T14:42:02.821+00:00</time>
      </trkpt>
      <trkpt lat="48.45064" lon="1.49155">
        <ele>128</ele>
        <time>2024-12-19T14:42:07.044+00:00</time>
      </trkpt>
      <trkpt lat="48.45074" lon="1.49148">
        <ele>128</ele>
        <time>2024-12-19T14:42:25.023+00:00</time>
      </trkpt>
      <trkpt lat="48.45075" lon="1.4915">
        <ele>128</ele>
        <time>2024-12-19T14:42:29.166+00:00</time>
      </trkpt>
      <trkpt lat="48.45077" lon="1.4915">
        <ele>128</ele>
        <time>2024-12-19T14:42:33.404+00:00</time>
      </trkpt>
      <trkpt lat="48.45082" lon="1.49153">
        <ele>128</ele>
        <time>2024-12-19T14:42:37.840+00:00</time>
      </trkpt>
      <trkpt lat="48.45087" lon="1.49154">
        <ele>128</ele>
        <time>2024-12-19T14:42:42.966+00:00</time>
      </trkpt>
      <trkpt lat="48.45091" lon="1.49157">
        <ele>128</ele>
        <time>2024-12-19T14:42:47.681+00:00</time>
      </trkpt>
      <trkpt lat="48.45095" lon="1.49161">
        <ele>128</ele>
        <time>2024-12-19T14:42:52.167+00:00</time>
      </trkpt>
      <trkpt lat="48.45099" lon="1.49162">
        <ele>127</ele>
        <time>2024-12-19T14:42:56.520+00:00</time>
      </trkpt>
      <trkpt lat="48.45104" lon="1.49161">
        <ele>127</ele>
        <time>2024-12-19T14:43:00.963+00:00</time>
      </trkpt>
      <trkpt lat="48.45109" lon="1.49162">
        <ele>127</ele>
        <time>2024-12-19T14:43:05.004+00:00</time>
      </trkpt>
      <trkpt lat="48.45113" lon="1.49161">
        <ele>127</ele>
        <time>2024-12-19T14:43:09.166+00:00</time>
      </trkpt>
      <trkpt lat="48.45118" lon="1.4916">
        <ele>127</ele>
        <time>2024-12-19T14:43:13.730+00:00</time>
      </trkpt>
      <trkpt lat="48.45125" lon="1.49161">
        <ele>127</ele>
        <time>2024-12-19T14:43:18.079+00:00</time>
      </trkpt>
      <trkpt lat="48.45135" lon="1.49156">
        <ele>126</ele>
        <time>2024-12-19T14:43:44.166+00:00</time>
      </trkpt>
      <trkpt lat="48.45141" lon="1.49152">
        <ele>126</ele>
        <time>2024-12-19T14:43:48.166+00:00</time>
      </trkpt>
      <trkpt lat="48.45146" lon="1.4915">
        <ele>126</ele>
        <time>2024-12-19T14:43:52.724+00:00</time>
      </trkpt>
      <trkpt lat="48.45151" lon="1.49151">
        <ele>126</ele>
        <time>2024-12-19T14:43:56.862+00:00</time>
      </trkpt>
      <trkpt lat="48.45155" lon="1.49151">
        <ele>124</ele>
        <time>2024-12-19T14:44:00.982+00:00</time>
      </trkpt>
      <trkpt lat="48.45161" lon="1.49151">
        <ele>124</ele>
        <time>2024-12-19T14:44:05.166+00:00</time>
      </trkpt>
      <trkpt lat="48.45166" lon="1.49153">
        <ele>124</ele>
        <time>2024-12-19T14:44:09.420+00:00</time>
      </trkpt>
      <trkpt lat="48.4517" lon="1.49153">
        <ele>125</ele>
        <time>2024-12-19T14:44:13.719+00:00</time>
      </trkpt>
      <trkpt lat="48.45172" lon="1.49152">
        <ele>124</ele>
        <time>2024-12-19T14:44:15.599+00:00</time>
      </trkpt>
      <trkpt lat="48.4518" lon="1.4915">
        <ele>124</ele>
        <time>2024-12-19T14:44:24.166+00:00</time>
      </trkpt>
      <trkpt lat="48.45185" lon="1.49147">
        <ele>124</ele>
        <time>2024-12-19T14:44:28.670+00:00</time>
      </trkpt>
      <trkpt lat="48.45189" lon="1.49148">
        <ele>124</ele>
        <time>2024-12-19T14:44:33.166+00:00</time>
      </trkpt>
      <trkpt lat="48.45192" lon="1.49149">
        <ele>124</ele>
        <time>2024-12-19T14:44:37.166+00:00</time>
      </trkpt>
      <trkpt lat="48.45197" lon="1.49149">
        <ele>124</ele>
        <time>2024-12-19T14:44:41.166+00:00</time>
      </trkpt>
      <trkpt lat="48.45202" lon="1.49149">
        <ele>124</ele>
        <time>2024-12-19T14:44:45.543+00:00</time>
      </trkpt>
      <trkpt lat="48.45205" lon="1.49148">
        <ele>124</ele>
        <time>2024-12-19T14:44:49.981+00:00</time>
      </trkpt>
      <trkpt lat="48.4521" lon="1.49147">
        <ele>125</ele>
        <time>2024-12-19T14:44:54.343+00:00</time>
      </trkpt>
      <trkpt lat="48.45213" lon="1.49146">
        <ele>125</ele>
        <time>2024-12-19T14:44:58.717+00:00</time>
      </trkpt>
      <trkpt lat="48.45217" lon="1.49146">
        <ele>125</ele>
        <time>2024-12-19T14:45:03.060+00:00</time>
      </trkpt>
      <trkpt lat="48.45223" lon="1.49147">
        <ele>125</ele>
        <time>2024-12-19T14:45:08.166+00:00</time>
      </trkpt>
      <trkpt lat="48.45227" lon="1.49145">
        <ele>125</ele>
        <time>2024-12-19T14:45:13.166+00:00</time>
      </trkpt>
      <trkpt lat="48.4523" lon="1.49143">
        <ele>125</ele>
        <time>2024-12-19T14:45:17.661+00:00</time>
      </trkpt>
      <trkpt lat="48.45235" lon="1.49143">
        <ele>125</ele>
        <time>2024-12-19T14:45:21.850+00:00</time>
      </trkpt>
      <trkpt lat="48.4524" lon="1.49142">
        <ele>124</ele>
        <time>2024-12-19T14:45:26.059+00:00</time>
      </trkpt>
      <trkpt lat="48.45246" lon="1.49143">
        <ele>124</ele>
        <time>2024-12-19T14:45:30.167+00:00</time>
      </trkpt>
      <trkpt lat="48.4525" lon="1.49143">
        <ele>124</ele>
        <time>2024-12-19T14:45:34.681+00:00</time>
      </trkpt>
      <trkpt lat="48.45253" lon="1.49139">
        <ele>124</ele>
        <time>2024-12-19T14:45:39.167+00:00</time>
      </trkpt>
      <trkpt lat="48.45257" lon="1.49138">
        <ele>124</ele>
        <time>2024-12-19T14:45:43.580+00:00</time>
      </trkpt>
      <trkpt lat="48.45261" lon="1.49136">
        <ele>124</ele>
        <time>2024-12-19T14:45:48.168+00:00</time>
      </trkpt>
      <trkpt lat="48.45266" lon="1.49135">
        <ele>125</ele>
        <time>2024-12-19T14:45:52.917+00:00</time>
      </trkpt>
      <trkpt lat="48.4527" lon="1.4913">
        <ele>125</ele>
        <time>2024-12-19T14:45:57.168+00:00</time>
      </trkpt>
      <trkpt lat="48.45275" lon="1.49119">
        <ele>125</ele>
        <time>2024-12-19T14:46:01.701+00:00</time>
      </trkpt>
      <trkpt lat="48.45278" lon="1.49111">
        <ele>125</ele>
        <time>2024-12-19T14:46:06+00:00</time>
      </trkpt>
      <trkpt lat="48.4528" lon="1.49107">
        <ele>125</ele>
        <time>2024-12-19T14:46:10.168+00:00</time>
      </trkpt>
      <trkpt lat="48.45285" lon="1.49104">
        <ele>125</ele>
        <time>2024-12-19T14:46:15.167+00:00</time>
      </trkpt>
      <trkpt lat="48.4529" lon="1.49107">
        <ele>125</ele>
        <time>2024-12-19T14:46:19.681+00:00</time>
      </trkpt>
      <trkpt lat="48.45291" lon="1.49102">
        <ele>125</ele>
        <time>2024-12-19T14:46:24.022+00:00</time>
      </trkpt>
      <trkpt lat="48.45292" lon="1.49094">
        <ele>124</ele>
        <time>2024-12-19T14:46:28.439+00:00</time>
      </trkpt>
      <trkpt lat="48.45292" lon="1.49082">
        <ele>124</ele>
        <time>2024-12-19T14:46:33.167+00:00</time>
      </trkpt>
      <trkpt lat="48.45293" lon="1.4907">
        <ele>124</ele>
        <time>2024-12-19T14:46:37.929+00:00</time>
      </trkpt>
      <trkpt lat="48.45294" lon="1.49061">
        <ele>123</ele>
        <time>2024-12-19T14:46:42.080+00:00</time>
      </trkpt>
      <trkpt lat="48.45293" lon="1.49059">
        <ele>123</ele>
        <time>2024-12-19T14:46:46.168+00:00</time>
      </trkpt>
      <trkpt lat="48.45293" lon="1.49053">
        <ele>123</ele>
        <time>2024-12-19T14:46:51.168+00:00</time>
      </trkpt>
      <trkpt lat="48.45291" lon="1.49051">
        <ele>124</ele>
        <time>2024-12-19T14:46:56.168+00:00</time>
      </trkpt>
      <trkpt lat="48.45292" lon="1.49048">
        <ele>124</ele>
        <time>2024-12-19T14:47:00.567+00:00</time>
      </trkpt>
      <trkpt lat="48.45292" lon="1.4904">
        <ele>123</ele>
        <time>2024-12-19T14:47:04.623+00:00</time>
      </trkpt>
      <trkpt lat="48.45292" lon="1.49035">
        <ele>123</ele>
        <time>2024-12-19T14:47:09.168+00:00</time>
      </trkpt>
      <trkpt lat="48.45294" lon="1.49033">
        <ele>123</ele>
        <time>2024-12-19T14:47:13.546+00:00</time>
      </trkpt>
      <trkpt lat="48.45293" lon="1.49024">
        <ele>123</ele>
        <time>2024-12-19T14:47:18.167+00:00</time>
      </trkpt>
      <trkpt lat="48.45294" lon="1.49017">
        <ele>123</ele>
        <time>2024-12-19T14:47:22.462+00:00</time>
      </trkpt>
      <trkpt lat="48.45293" lon="1.49009">
        <ele>123</ele>
        <time>2024-12-19T14:47:50.864+00:00</time>
      </trkpt>
      <trkpt lat="48.45294" lon="1.49017">
        <ele>123</ele>
        <time>2024-12-19T14:47:55.939+00:00</time>
      </trkpt>
      <trkpt lat="48.45293" lon="1.49024">
        <ele>123</ele>
        <time>2024-12-19T14:48:00.168+00:00</time>
      </trkpt>
      <trkpt lat="48.45294" lon="1.49031">
        <ele>123</ele>
        <time>2024-12-19T14:48:05.167+00:00</time>
      </trkpt>
      <trkpt lat="48.45297" lon="1.49032">
        <ele>123</ele>
        <time>2024-12-19T14:48:10.167+00:00</time>
      </trkpt>
      <trkpt lat="48.45296" lon="1.4904">
        <ele>123</ele>
        <time>2024-12-19T14:48:14.422+00:00</time>
      </trkpt>
      <trkpt lat="48.45294" lon="1.49047">
        <ele>123</ele>
        <time>2024-12-19T14:48:18.464+00:00</time>
      </trkpt>
      <trkpt lat="48.45293" lon="1.49055">
        <ele>123</ele>
        <time>2024-12-19T14:48:22.559+00:00</time>
      </trkpt>
      <trkpt lat="48.45291" lon="1.49062">
        <ele>124</ele>
        <time>2024-12-19T14:48:26.686+00:00</time>
      </trkpt>
      <trkpt lat="48.45291" lon="1.4906">
        <ele>124</ele>
        <time>2024-12-19T14:48:49.167+00:00</time>
      </trkpt>
      <trkpt lat="48.45287" lon="1.49071">
        <ele>125</ele>
        <time>2024-12-19T14:48:53.381+00:00</time>
      </trkpt>
      <trkpt lat="48.45281" lon="1.49072">
        <ele>125</ele>
        <time>2024-12-19T14:48:57.620+00:00</time>
      </trkpt>
      <trkpt lat="48.45277" lon="1.49068">
        <ele>124</ele>
        <time>2024-12-19T14:49:01.723+00:00</time>
      </trkpt>
      <trkpt lat="48.45277" lon="1.49061">
        <ele>124</ele>
        <time>2024-12-19T14:49:06.140+00:00</time>
      </trkpt>
      <trkpt lat="48.45277" lon="1.49056">
        <ele>124</ele>
        <time>2024-12-19T14:49:10.167+00:00</time>
      </trkpt>
      <trkpt lat="48.45278" lon="1.49054">
        <ele>124</ele>
        <time>2024-12-19T14:49:12.167+00:00</time>
      </trkpt>
      <trkpt lat="48.45276" lon="1.49049">
        <ele>124</ele>
        <time>2024-12-19T14:49:18.756+00:00</time>
      </trkpt>
      <trkpt lat="48.45284" lon="1.49045">
        <ele>124</ele>
        <time>2024-12-19T14:49:23.168+00:00</time>
      </trkpt>
      <trkpt lat="48.45291" lon="1.49044">
        <ele>124</ele>
        <time>2024-12-19T14:49:28.119+00:00</time>
      </trkpt>
      <trkpt lat="48.45295" lon="1.49046">
        <ele>123</ele>
        <time>2024-12-19T14:49:32.167+00:00</time>
      </trkpt>
      <trkpt lat="48.45301" lon="1.4905">
        <ele>123</ele>
        <time>2024-12-19T14:49:36.945+00:00</time>
      </trkpt>
      <trkpt lat="48.45306" lon="1.49053">
        <ele>123</ele>
        <time>2024-12-19T14:49:41.163+00:00</time>
      </trkpt>
      <trkpt lat="48.45309" lon="1.49059">
        <ele>123</ele>
        <time>2024-12-19T14:49:45.167+00:00</time>
      </trkpt>
      <trkpt lat="48.45314" lon="1.49064">
        <ele>123</ele>
        <time>2024-12-19T14:49:50.042+00:00</time>
      </trkpt>
      <trkpt lat="48.45318" lon="1.4907">
        <ele>124</ele>
        <time>2024-12-19T14:49:54.167+00:00</time>
      </trkpt>
      <trkpt lat="48.45323" lon="1.49071">
        <ele>125</ele>
        <time>2024-12-19T14:49:59.168+00:00</time>
      </trkpt>
      <trkpt lat="48.45326" lon="1.49078">
        <ele>125</ele>
        <time>2024-12-19T14:50:03.859+00:00</time>
      </trkpt>
      <trkpt lat="48.45329" lon="1.49083">
        <ele>125</ele>
        <time>2024-12-19T14:50:07.884+00:00</time>
      </trkpt>
      <trkpt lat="48.45333" lon="1.4909">
        <ele>125</ele>
        <time>2024-12-19T14:50:12.481+00:00</time>
      </trkpt>
      <trkpt lat="48.45338" lon="1.49094">
        <ele>125</ele>
        <time>2024-12-19T14:50:17.044+00:00</time>
      </trkpt>
      <trkpt lat="48.45343" lon="1.49098">
        <ele>126</ele>
        <time>2024-12-19T14:50:21.324+00:00</time>
      </trkpt>
      <trkpt lat="48.45348" lon="1.49103">
        <ele>126</ele>
        <time>2024-12-19T14:50:26.167+00:00</time>
      </trkpt>
      <trkpt lat="48.45348" lon="1.49108">
        <ele>126</ele>
        <time>2024-12-19T14:50:30.420+00:00</time>
      </trkpt>
      <trkpt lat="48.45356" lon="1.49114">
        <ele>126</ele>
        <time>2024-12-19T14:50:35.024+00:00</time>
      </trkpt>
      <trkpt lat="48.45361" lon="1.49118">
        <ele>126</ele>
        <time>2024-12-19T14:50:40.081+00:00</time>
      </trkpt>
      <trkpt lat="48.45362" lon="1.49124">
        <ele>126</ele>
        <time>2024-12-19T14:50:44.099+00:00</time>
      </trkpt>
      <trkpt lat="48.45363" lon="1.4913">
        <ele>125</ele>
        <time>2024-12-19T14:50:48.823+00:00</time>
      </trkpt>
      <trkpt lat="48.45363" lon="1.49135">
        <ele>125</ele>
        <time>2024-12-19T14:50:53.168+00:00</time>
      </trkpt>
      <trkpt lat="48.45364" lon="1.49133">
        <ele>125</ele>
        <time>2024-12-19T14:51:52.168+00:00</time>
      </trkpt>
      <trkpt lat="48.45364" lon="1.49133">
        <ele>125</ele>
        <time>2024-12-19T14:51:56.801+00:00</time>
      </trkpt>
      <trkpt lat="48.45364" lon="1.49133">
        <ele>125</ele>
        <time>2024-12-19T14:52:01.167+00:00</time>
      </trkpt>
      <trkpt lat="48.45361" lon="1.49127">
        <ele>125</ele>
        <time>2024-12-19T14:52:05.758+00:00</time>
      </trkpt>
      <trkpt lat="48.45362" lon="1.4912">
        <ele>126</ele>
        <time>2024-12-19T14:52:10.064+00:00</time>
      </trkpt>
      <trkpt lat="48.45362" lon="1.49114">
        <ele>126</ele>
        <time>2024-12-19T14:52:14.168+00:00</time>
      </trkpt>
      <trkpt lat="48.45361" lon="1.49108">
        <ele>126</ele>
        <time>2024-12-19T14:52:18.943+00:00</time>
      </trkpt>
      <trkpt lat="48.45355" lon="1.49104">
        <ele>126</ele>
        <time>2024-12-19T14:52:23.168+00:00</time>
      </trkpt>
      <trkpt lat="48.45349" lon="1.49102">
        <ele>126</ele>
        <time>2024-12-19T14:52:28.168+00:00</time>
      </trkpt>
      <trkpt lat="48.45344" lon="1.49098">
        <ele>126</ele>
        <time>2024-12-19T14:52:32.639+00:00</time>
      </trkpt>
      <trkpt lat="48.4534" lon="1.49095">
        <ele>125</ele>
        <time>2024-12-19T14:52:37.001+00:00</time>
      </trkpt>
      <trkpt lat="48.45336" lon="1.49091">
        <ele>125</ele>
        <time>2024-12-19T14:52:41.451+00:00</time>
      </trkpt>
      <trkpt lat="48.45332" lon="1.49088">
        <ele>125</ele>
        <time>2024-12-19T14:52:45.824+00:00</time>
      </trkpt>
      <trkpt lat="48.45328" lon="1.49086">
        <ele>125</ele>
        <time>2024-12-19T14:52:50.139+00:00</time>
      </trkpt>
      <trkpt lat="48.45325" lon="1.49082">
        <ele>125</ele>
        <time>2024-12-19T14:52:54.403+00:00</time>
      </trkpt>
      <trkpt lat="48.45322" lon="1.49077">
        <ele>125</ele>
        <time>2024-12-19T14:52:58.804+00:00</time>
      </trkpt>
      <trkpt lat="48.45319" lon="1.4907">
        <ele>124</ele>
        <time>2024-12-19T14:53:02.941+00:00</time>
      </trkpt>
      <trkpt lat="48.45312" lon="1.49064">
        <ele>123</ele>
        <time>2024-12-19T14:53:32.167+00:00</time>
      </trkpt>
      <trkpt lat="48.45311" lon="1.49065">
        <ele>123</ele>
        <time>2024-12-19T14:53:36.859+00:00</time>
      </trkpt>
      <trkpt lat="48.45307" lon="1.49057">
        <ele>123</ele>
        <time>2024-12-19T14:53:41.168+00:00</time>
      </trkpt>
      <trkpt lat="48.45306" lon="1.4905">
        <ele>123</ele>
        <time>2024-12-19T14:53:45.720+00:00</time>
      </trkpt>
      <trkpt lat="48.45303" lon="1.49047">
        <ele>123</ele>
        <time>2024-12-19T14:53:49.864+00:00</time>
      </trkpt>
      <trkpt lat="48.45291" lon="1.49041">
        <ele>124</ele>
        <time>2024-12-19T14:54:11.919+00:00</time>
      </trkpt>
      <trkpt lat="48.45287" lon="1.49045">
        <ele>124</ele>
        <time>2024-12-19T14:54:16.167+00:00</time>
      </trkpt>
      <trkpt lat="48.45283" lon="1.49052">
        <ele>124</ele>
        <time>2024-12-19T14:54:21.168+00:00</time>
      </trkpt>
      <trkpt lat="48.45281" lon="1.49057">
        <ele>124</ele>
        <time>2024-12-19T14:54:25.724+00:00</time>
      </trkpt>
      <trkpt lat="48.45276" lon="1.49058">
        <ele>124</ele>
        <time>2024-12-19T14:54:30.023+00:00</time>
      </trkpt>
      <trkpt lat="48.45272" lon="1.49059">
        <ele>124</ele>
        <time>2024-12-19T14:54:34.168+00:00</time>
      </trkpt>
      <trkpt lat="48.45269" lon="1.4906">
        <ele>124</ele>
        <time>2024-12-19T14:54:38.168+00:00</time>
      </trkpt>
      <trkpt lat="48.45265" lon="1.49062">
        <ele>124</ele>
        <time>2024-12-19T14:54:43.105+00:00</time>
      </trkpt>
      <trkpt lat="48.45261" lon="1.49063">
        <ele>125</ele>
        <time>2024-12-19T14:54:47.687+00:00</time>
      </trkpt>
      <trkpt lat="48.45258" lon="1.49065">
        <ele>125</ele>
        <time>2024-12-19T14:54:52.168+00:00</time>
      </trkpt>
      <trkpt lat="48.45253" lon="1.49068">
        <ele>125</ele>
        <time>2024-12-19T14:54:56.962+00:00</time>
      </trkpt>
      <trkpt lat="48.4525" lon="1.49073">
        <ele>125</ele>
        <time>2024-12-19T14:55:01.167+00:00</time>
      </trkpt>
      <trkpt lat="48.45247" lon="1.49079">
        <ele>125</ele>
        <time>2024-12-19T14:55:06.122+00:00</time>
      </trkpt>
      <trkpt lat="48.45244" lon="1.49085">
        <ele>125</ele>
        <time>2024-12-19T14:55:10.480+00:00</time>
      </trkpt>
      <trkpt lat="48.45242" lon="1.49094">
        <ele>125</ele>
        <time>2024-12-19T14:55:14.881+00:00</time>
      </trkpt>
      <trkpt lat="48.45241" lon="1.49102">
        <ele>125</ele>
        <time>2024-12-19T14:55:19.167+00:00</time>
      </trkpt>
      <trkpt lat="48.4524" lon="1.49107">
        <ele>125</ele>
        <time>2024-12-19T14:55:23.880+00:00</time>
      </trkpt>
      <trkpt lat="48.45239" lon="1.49112">
        <ele>125</ele>
        <time>2024-12-19T14:55:28.167+00:00</time>
      </trkpt>
      <trkpt lat="48.45237" lon="1.49118">
        <ele>125</ele>
        <time>2024-12-19T14:55:33.079+00:00</time>
      </trkpt>
      <trkpt lat="48.45233" lon="1.49121">
        <ele>124</ele>
        <time>2024-12-19T14:55:37.480+00:00</time>
      </trkpt>
      <trkpt lat="48.45229" lon="1.49112">
        <ele>124</ele>
        <time>2024-12-19T14:55:42.168+00:00</time>
      </trkpt>
      <trkpt lat="48.45224" lon="1.49104">
        <ele>124</ele>
        <time>2024-12-19T14:55:46.665+00:00</time>
      </trkpt>
      <trkpt lat="48.4522" lon="1.491">
        <ele>124</ele>
        <time>2024-12-19T14:55:51.002+00:00</time>
      </trkpt>
      <trkpt lat="48.45217" lon="1.49095">
        <ele>124</ele>
        <time>2024-12-19T14:55:55.167+00:00</time>
      </trkpt>
      <trkpt lat="48.45213" lon="1.49093">
        <ele>124</ele>
        <time>2024-12-19T14:55:59.281+00:00</time>
      </trkpt>
      <trkpt lat="48.45202" lon="1.49083">
        <ele>124</ele>
        <time>2024-12-19T14:56:17.168+00:00</time>
      </trkpt>
      <trkpt lat="48.45204" lon="1.49079">
        <ele>124</ele>
        <time>2024-12-19T14:56:21.983+00:00</time>
      </trkpt>
      <trkpt lat="48.45203" lon="1.4907">
        <ele>124</ele>
        <time>2024-12-19T14:56:27.167+00:00</time>
      </trkpt>
      <trkpt lat="48.45201" lon="1.49063">
        <ele>123</ele>
        <time>2024-12-19T14:56:31.322+00:00</time>
      </trkpt>
      <trkpt lat="48.452" lon="1.49056">
        <ele>123</ele>
        <time>2024-12-19T14:56:35.962+00:00</time>
      </trkpt>
      <trkpt lat="48.45196" lon="1.49053">
        <ele>123</ele>
        <time>2024-12-19T14:56:40.063+00:00</time>
      </trkpt>
      <trkpt lat="48.45196" lon="1.4905">
        <ele>123</ele>
        <time>2024-12-19T14:56:44.020+00:00</time>
      </trkpt>
      <trkpt lat="48.45191" lon="1.49051">
        <ele>123</ele>
        <time>2024-12-19T14:56:48.982+00:00</time>
      </trkpt>
      <trkpt lat="48.45186" lon="1.49053">
        <ele>123</ele>
        <time>2024-12-19T14:56:53.418+00:00</time>
      </trkpt>
      <trkpt lat="48.45181" lon="1.49051">
        <ele>123</ele>
        <time>2024-12-19T14:56:57.580+00:00</time>
      </trkpt>
      <trkpt lat="48.45177" lon="1.49051">
        <ele>124</ele>
        <time>2024-12-19T14:57:02.167+00:00</time>
      </trkpt>
      <trkpt lat="48.45172" lon="1.49051">
        <ele>124</ele>
        <time>2024-12-19T14:57:07.168+00:00</time>
      </trkpt>
      <trkpt lat="48.45168" lon="1.4905">
        <ele>124</ele>
        <time>2024-12-19T14:57:11.641+00:00</time>
      </trkpt>
      <trkpt lat="48.45161" lon="1.49047">
        <ele>124</ele>
        <time>2024-12-19T14:57:35.103+00:00</time>
      </trkpt>
      <trkpt lat="48.45159" lon="1.49048">
        <ele>124</ele>
        <time>2024-12-19T14:57:39.743+00:00</time>
      </trkpt>
      <trkpt lat="48.45157" lon="1.49044">
        <ele>124</ele>
        <time>2024-12-19T14:57:44.168+00:00</time>
      </trkpt>
      <trkpt lat="48.45159" lon="1.49036">
        <ele>123</ele>
        <time>2024-12-19T14:57:49.168+00:00</time>
      </trkpt>
      <trkpt lat="48.4516" lon="1.49032">
        <ele>123</ele>
        <time>2024-12-19T14:57:53.168+00:00</time>
      </trkpt>
      <trkpt lat="48.45161" lon="1.49028">
        <ele>123</ele>
        <time>2024-12-19T14:57:57.168+00:00</time>
      </trkpt>
      <trkpt lat="48.4516" lon="1.4902">
        <ele>123</ele>
        <time>2024-12-19T14:58:01.942+00:00</time>
      </trkpt>
      <trkpt lat="48.45159" lon="1.49019">
        <ele>123</ele>
        <time>2024-12-19T14:58:06.821+00:00</time>
      </trkpt>
      <trkpt lat="48.45159" lon="1.49013">
        <ele>123</ele>
        <time>2024-12-19T14:58:11.167+00:00</time>
      </trkpt>
      <trkpt lat="48.45167" lon="1.49002">
        <ele>123</ele>
        <time>2024-12-19T14:58:26.167+00:00</time>
      </trkpt>
      <trkpt lat="48.45167" lon="1.48995">
        <ele>123</ele>
        <time>2024-12-19T14:58:30.439+00:00</time>
      </trkpt>
      <trkpt lat="48.45168" lon="1.48987">
        <ele>123</ele>
        <time>2024-12-19T14:58:34.705+00:00</time>
      </trkpt>
      <trkpt lat="48.4517" lon="1.48981">
        <ele>124</ele>
        <time>2024-12-19T14:58:38.979+00:00</time>
      </trkpt>
      <trkpt lat="48.45171" lon="1.48974">
        <ele>124</ele>
        <time>2024-12-19T14:58:43.344+00:00</time>
      </trkpt>
      <trkpt lat="48.45171" lon="1.48964">
        <ele>124</ele>
        <time>2024-12-19T14:58:48.167+00:00</time>
      </trkpt>
      <trkpt lat="48.45173" lon="1.48957">
        <ele>126</ele>
        <time>2024-12-19T14:58:52.684+00:00</time>
      </trkpt>
      <trkpt lat="48.45175" lon="1.4895">
        <ele>126</ele>
        <time>2024-12-19T14:58:56.838+00:00</time>
      </trkpt>
      <trkpt lat="48.45175" lon="1.48942">
        <ele>126</ele>
        <time>2024-12-19T14:59:01.168+00:00</time>
      </trkpt>
      <trkpt lat="48.45176" lon="1.48933">
        <ele>126</ele>
        <time>2024-12-19T14:59:05.759+00:00</time>
      </trkpt>
      <trkpt lat="48.45172" lon="1.4893">
        <ele>128</ele>
        <time>2024-12-19T14:59:10.168+00:00</time>
      </trkpt>
      <trkpt lat="48.45168" lon="1.48937">
        <ele>126</ele>
        <time>2024-12-19T14:59:14.722+00:00</time>
      </trkpt>
      <trkpt lat="48.45167" lon="1.48941">
        <ele>126</ele>
        <time>2024-12-19T14:59:19.142+00:00</time>
      </trkpt>
      <trkpt lat="48.4517" lon="1.48943">
        <ele>126</ele>
        <time>2024-12-19T15:01:01.077+00:00</time>
      </trkpt>
      <trkpt lat="48.45171" lon="1.48946">
        <ele>126</ele>
        <time>2024-12-19T15:01:05.563+00:00</time>
      </trkpt>
      <trkpt lat="48.4517" lon="1.4895">
        <ele>126</ele>
        <time>2024-12-19T15:01:10.168+00:00</time>
      </trkpt>
      <trkpt lat="48.45171" lon="1.48955">
        <ele>126</ele>
        <time>2024-12-19T15:01:15.167+00:00</time>
      </trkpt>
      <trkpt lat="48.45172" lon="1.48963">
        <ele>124</ele>
        <time>2024-12-19T15:01:20.021+00:00</time>
      </trkpt>
      <trkpt lat="48.45172" lon="1.48969">
        <ele>124</ele>
        <time>2024-12-19T15:01:24.120+00:00</time>
      </trkpt>
      <trkpt lat="48.45171" lon="1.48973">
        <ele>124</ele>
        <time>2024-12-19T15:01:28.162+00:00</time>
      </trkpt>
      <trkpt lat="48.4517" lon="1.48979">
        <ele>124</ele>
        <time>2024-12-19T15:01:32.168+00:00</time>
      </trkpt>
      <trkpt lat="48.45169" lon="1.48984">
        <ele>124</ele>
        <time>2024-12-19T15:01:36.811+00:00</time>
      </trkpt>
      <trkpt lat="48.45168" lon="1.48991">
        <ele>123</ele>
        <time>2024-12-19T15:01:41.143+00:00</time>
      </trkpt>
      <trkpt lat="48.45167" lon="1.48997">
        <ele>123</ele>
        <time>2024-12-19T15:01:45.168+00:00</time>
      </trkpt>
      <trkpt lat="48.45165" lon="1.49002">
        <ele>123</ele>
        <time>2024-12-19T15:01:49.484+00:00</time>
      </trkpt>
      <trkpt lat="48.45163" lon="1.49007">
        <ele>123</ele>
        <time>2024-12-19T15:01:53.783+00:00</time>
      </trkpt>
      <trkpt lat="48.45162" lon="1.49012">
        <ele>123</ele>
        <time>2024-12-19T15:01:58.141+00:00</time>
      </trkpt>
      <trkpt lat="48.45161" lon="1.49012">
        <ele>123</ele>
        <time>2024-12-19T15:02:03.168+00:00</time>
      </trkpt>
      <trkpt lat="48.45161" lon="1.49014">
        <ele>123</ele>
        <time>2024-12-19T15:02:07.879+00:00</time>
      </trkpt>
      <trkpt lat="48.4516" lon="1.49019">
        <ele>123</ele>
        <time>2024-12-19T15:02:11.914+00:00</time>
      </trkpt>
      <trkpt lat="48.45159" lon="1.49026">
        <ele>123</ele>
        <time>2024-12-19T15:02:16.181+00:00</time>
      </trkpt>
      <trkpt lat="48.45158" lon="1.49034">
        <ele>123</ele>
        <time>2024-12-19T15:02:20.859+00:00</time>
      </trkpt>
      <trkpt lat="48.45158" lon="1.49042">
        <ele>124</ele>
        <time>2024-12-19T15:02:25.168+00:00</time>
      </trkpt>
      <trkpt lat="48.45157" lon="1.49049">
        <ele>124</ele>
        <time>2024-12-19T15:02:29.739+00:00</time>
      </trkpt>
      <trkpt lat="48.45153" lon="1.49053">
        <ele>124</ele>
        <time>2024-12-19T15:02:34.121+00:00</time>
      </trkpt>
      <trkpt lat="48.45149" lon="1.49052">
        <ele>126</ele>
        <time>2024-12-19T15:02:38.565+00:00</time>
      </trkpt>
      <trkpt lat="48.45146" lon="1.49046">
        <ele>126</ele>
        <time>2024-12-19T15:02:43.168+00:00</time>
      </trkpt>
      <trkpt lat="48.45138" lon="1.49047">
        <ele>126</ele>
        <time>2024-12-19T15:02:47.959+00:00</time>
      </trkpt>
      <trkpt lat="48.45134" lon="1.49045">
        <ele>126</ele>
        <time>2024-12-19T15:02:52.168+00:00</time>
      </trkpt>
      <trkpt lat="48.45132" lon="1.49043">
        <ele>126</ele>
        <time>2024-12-19T15:02:56.169+00:00</time>
      </trkpt>
      <trkpt lat="48.45126" lon="1.49043">
        <ele>126</ele>
        <time>2024-12-19T15:03:01.001+00:00</time>
      </trkpt>
      <trkpt lat="48.45121" lon="1.49043">
        <ele>126</ele>
        <time>2024-12-19T15:03:05.080+00:00</time>
      </trkpt>
      <trkpt lat="48.45116" lon="1.49043">
        <ele>126</ele>
        <time>2024-12-19T15:03:09.031+00:00</time>
      </trkpt>
      <trkpt lat="48.45111" lon="1.49042">
        <ele>126</ele>
        <time>2024-12-19T15:03:13.943+00:00</time>
      </trkpt>
      <trkpt lat="48.45106" lon="1.49036">
        <ele>125</ele>
        <time>2024-12-19T15:03:19.169+00:00</time>
      </trkpt>
      <trkpt lat="48.45101" lon="1.49038">
        <ele>125</ele>
        <time>2024-12-19T15:03:23.400+00:00</time>
      </trkpt>
      <trkpt lat="48.45097" lon="1.49045">
        <ele>127</ele>
        <time>2024-12-19T15:03:27.562+00:00</time>
      </trkpt>
      <trkpt lat="48.45084" lon="1.4904">
        <ele>126</ele>
        <time>2024-12-19T15:03:32.168+00:00</time>
      </trkpt>
      <trkpt lat="48.45077" lon="1.49036">
        <ele>126</ele>
        <time>2024-12-19T15:03:36.620+00:00</time>
      </trkpt>
      <trkpt lat="48.45071" lon="1.49034">
        <ele>126</ele>
        <time>2024-12-19T15:03:41.122+00:00</time>
      </trkpt>
      <trkpt lat="48.45065" lon="1.49036">
        <ele>127</ele>
        <time>2024-12-19T15:03:46.169+00:00</time>
      </trkpt>
      <trkpt lat="48.45059" lon="1.49038">
        <ele>127</ele>
        <time>2024-12-19T15:03:50.169+00:00</time>
      </trkpt>
      <trkpt lat="48.45057" lon="1.49038">
        <ele>127</ele>
        <time>2024-12-19T15:03:52.168+00:00</time>
      </trkpt>
      <trkpt lat="48.45055" lon="1.49026">
        <ele>127</ele>
        <time>2024-12-19T15:04:01.064+00:00</time>
      </trkpt>
      <trkpt lat="48.45057" lon="1.4902">
        <ele>127</ele>
        <time>2024-12-19T15:04:05.099+00:00</time>
      </trkpt>
      <trkpt lat="48.45058" lon="1.49016">
        <ele>127</ele>
        <time>2024-12-19T15:04:09.169+00:00</time>
      </trkpt>
      <trkpt lat="48.45057" lon="1.49012">
        <ele>127</ele>
        <time>2024-12-19T15:04:13.260+00:00</time>
      </trkpt>
      <trkpt lat="48.4506" lon="1.49004">
        <ele>127</ele>
        <time>2024-12-19T15:04:17.822+00:00</time>
      </trkpt>
      <trkpt lat="48.45057" lon="1.49001">
        <ele>127</ele>
        <time>2024-12-19T15:04:22.169+00:00</time>
      </trkpt>
      <trkpt lat="48.4505" lon="1.49004">
        <ele>127</ele>
        <time>2024-12-19T15:04:27.059+00:00</time>
      </trkpt>
      <trkpt lat="48.45046" lon="1.49002">
        <ele>127</ele>
        <time>2024-12-19T15:04:31.485+00:00</time>
      </trkpt>
      <trkpt lat="48.45043" lon="1.49001">
        <ele>127</ele>
        <time>2024-12-19T15:04:35.784+00:00</time>
      </trkpt>
      <trkpt lat="48.45044" lon="1.48996">
        <ele>127</ele>
        <time>2024-12-19T15:04:40.169+00:00</time>
      </trkpt>
      <trkpt lat="48.45044" lon="1.48988">
        <ele>127</ele>
        <time>2024-12-19T15:04:45.169+00:00</time>
      </trkpt>
      <trkpt lat="48.45042" lon="1.48982">
        <ele>131</ele>
        <time>2024-12-19T15:04:49.169+00:00</time>
      </trkpt>
      <trkpt lat="48.4504" lon="1.48977">
        <ele>130</ele>
        <time>2024-12-19T15:04:53.700+00:00</time>
      </trkpt>
      <trkpt lat="48.45038" lon="1.48977">
        <ele>130</ele>
        <time>2024-12-19T15:04:58.020+00:00</time>
      </trkpt>
      <trkpt lat="48.45036" lon="1.48969">
        <ele>130</ele>
        <time>2024-12-19T15:05:03.169+00:00</time>
      </trkpt>
      <trkpt lat="48.45029" lon="1.48953">
        <ele>135</ele>
        <time>2024-12-19T15:05:46.169+00:00</time>
      </trkpt>
      <trkpt lat="48.45029" lon="1.48953">
        <ele>135</ele>
        <time>2024-12-19T15:05:50.169+00:00</time>
      </trkpt>
      <trkpt lat="48.45027" lon="1.48951">
        <ele>135</ele>
        <time>2024-12-19T15:05:55.168+00:00</time>
      </trkpt>
      <trkpt lat="48.45026" lon="1.48953">
        <ele>135</ele>
        <time>2024-12-19T15:06:00.169+00:00</time>
      </trkpt>
      <trkpt lat="48.45023" lon="1.48952">
        <ele>135</ele>
        <time>2024-12-19T15:06:05.169+00:00</time>
      </trkpt>
      <trkpt lat="48.45016" lon="1.48954">
        <ele>135</ele>
        <time>2024-12-19T15:06:14.168+00:00</time>
      </trkpt>
      <trkpt lat="48.45014" lon="1.48958">
        <ele>135</ele>
        <time>2024-12-19T15:06:19.168+00:00</time>
      </trkpt>
      <trkpt lat="48.45015" lon="1.4896">
        <ele>130</ele>
        <time>2024-12-19T15:06:24.169+00:00</time>
      </trkpt>
      <trkpt lat="48.45017" lon="1.48963">
        <ele>130</ele>
        <time>2024-12-19T15:06:28.762+00:00</time>
      </trkpt>
      <trkpt lat="48.45026" lon="1.4897">
        <ele>130</ele>
        <time>2024-12-19T15:06:33.138+00:00</time>
      </trkpt>
      <trkpt lat="48.45027" lon="1.48962">
        <ele>130</ele>
        <time>2024-12-19T15:06:37.169+00:00</time>
      </trkpt>
      <trkpt lat="48.45031" lon="1.4896">
        <ele>130</ele>
        <time>2024-12-19T15:06:41.540+00:00</time>
      </trkpt>
      <trkpt lat="48.45034" lon="1.48959">
        <ele>130</ele>
        <time>2024-12-19T15:06:45.904+00:00</time>
      </trkpt>
      <trkpt lat="48.45039" lon="1.48959">
        <ele>130</ele>
        <time>2024-12-19T15:06:50.141+00:00</time>
      </trkpt>
      <trkpt lat="48.45042" lon="1.4896">
        <ele>130</ele>
        <time>2024-12-19T15:06:54.457+00:00</time>
      </trkpt>
      <trkpt lat="48.45044" lon="1.48962">
        <ele>131</ele>
        <time>2024-12-19T15:06:59.062+00:00</time>
      </trkpt>
      <trkpt lat="48.45046" lon="1.48963">
        <ele>131</ele>
        <time>2024-12-19T15:07:03.169+00:00</time>
      </trkpt>
      <trkpt lat="48.45049" lon="1.48964">
        <ele>131</ele>
        <time>2024-12-19T15:07:07.567+00:00</time>
      </trkpt>
      <trkpt lat="48.45053" lon="1.48959">
        <ele>131</ele>
        <time>2024-12-19T15:07:12.026+00:00</time>
      </trkpt>
      <trkpt lat="48.45053" lon="1.48952">
        <ele>135</ele>
        <time>2024-12-19T15:07:16.412+00:00</time>
      </trkpt>
      <trkpt lat="48.45053" lon="1.48945">
        <ele>135</ele>
        <time>2024-12-19T15:07:20.945+00:00</time>
      </trkpt>
      <trkpt lat="48.45054" lon="1.48936">
        <ele>135</ele>
        <time>2024-12-19T15:07:25.168+00:00</time>
      </trkpt>
      <trkpt lat="48.45054" lon="1.48929">
        <ele>140</ele>
        <time>2024-12-19T15:07:30.019+00:00</time>
      </trkpt>
      <trkpt lat="48.45054" lon="1.48928">
        <ele>140</ele>
        <time>2024-12-19T15:07:31.397+00:00</time>
      </trkpt>
      <trkpt lat="48.45055" lon="1.4892">
        <ele>140</ele>
        <time>2024-12-19T15:07:40.028+00:00</time>
      </trkpt>
      <trkpt lat="48.45053" lon="1.48915">
        <ele>140</ele>
        <time>2024-12-19T15:07:44.743+00:00</time>
      </trkpt>
      <trkpt lat="48.45049" lon="1.48914">
        <ele>140</ele>
        <time>2024-12-19T15:07:49.168+00:00</time>
      </trkpt>
      <trkpt lat="48.45044" lon="1.48915">
        <ele>140</ele>
        <time>2024-12-19T15:07:54.169+00:00</time>
      </trkpt>
      <trkpt lat="48.45043" lon="1.48918">
        <ele>140</ele>
        <time>2024-12-19T15:07:58.168+00:00</time>
      </trkpt>
      <trkpt lat="48.45038" lon="1.48916">
        <ele>139</ele>
        <time>2024-12-19T15:08:03.165+00:00</time>
      </trkpt>
      <trkpt lat="48.45034" lon="1.48911">
        <ele>139</ele>
        <time>2024-12-19T15:08:07.168+00:00</time>
      </trkpt>
      <trkpt lat="48.4503" lon="1.48906">
        <ele>139</ele>
        <time>2024-12-19T15:08:12.143+00:00</time>
      </trkpt>
      <trkpt lat="48.45027" lon="1.48902">
        <ele>143</ele>
        <time>2024-12-19T15:08:16.979+00:00</time>
      </trkpt>
      <trkpt lat="48.45023" lon="1.48898">
        <ele>143</ele>
        <time>2024-12-19T15:08:22.169+00:00</time>
      </trkpt>
      <trkpt lat="48.45019" lon="1.48895">
        <ele>143</ele>
        <time>2024-12-19T15:08:27.059+00:00</time>
      </trkpt>
      <trkpt lat="48.45016" lon="1.48894">
        <ele>143</ele>
        <time>2024-12-19T15:08:31.169+00:00</time>
      </trkpt>
      <trkpt lat="48.45011" lon="1.48895">
        <ele>143</ele>
        <time>2024-12-19T15:08:35.800+00:00</time>
      </trkpt>
      <trkpt lat="48.45007" lon="1.48898">
        <ele>143</ele>
        <time>2024-12-19T15:08:40.168+00:00</time>
      </trkpt>
      <trkpt lat="48.45003" lon="1.48903">
        <ele>137</ele>
        <time>2024-12-19T15:08:44.859+00:00</time>
      </trkpt>
      <trkpt lat="48.44999" lon="1.48907">
        <ele>137</ele>
        <time>2024-12-19T15:08:49.062+00:00</time>
      </trkpt>
      <trkpt lat="48.44996" lon="1.48908">
        <ele>137</ele>
        <time>2024-12-19T15:08:53.522+00:00</time>
      </trkpt>
      <trkpt lat="48.44992" lon="1.48913">
        <ele>137</ele>
        <time>2024-12-19T15:08:57.864+00:00</time>
      </trkpt>
      <trkpt lat="48.4499" lon="1.48918">
        <ele>137</ele>
        <time>2024-12-19T15:09:02.101+00:00</time>
      </trkpt>
      <trkpt lat="48.44988" lon="1.48923">
        <ele>137</ele>
        <time>2024-12-19T15:09:06.442+00:00</time>
      </trkpt>
      <trkpt lat="48.44987" lon="1.48928">
        <ele>137</ele>
        <time>2024-12-19T15:09:10.536+00:00</time>
      </trkpt>
      <trkpt lat="48.44987" lon="1.48936">
        <ele>132</ele>
        <time>2024-12-19T15:09:14.843+00:00</time>
      </trkpt>
      <trkpt lat="48.4498" lon="1.48945">
        <ele>134</ele>
        <time>2024-12-19T15:09:19.141+00:00</time>
      </trkpt>
      <trkpt lat="48.44983" lon="1.48951">
        <ele>134</ele>
        <time>2024-12-19T15:09:23.704+00:00</time>
      </trkpt>
      <trkpt lat="48.44989" lon="1.48955">
        <ele>132</ele>
        <time>2024-12-19T15:09:28.002+00:00</time>
      </trkpt>
      <trkpt lat="48.44984" lon="1.48966">
        <ele>131</ele>
        <time>2024-12-19T15:09:32.168+00:00</time>
      </trkpt>
      <trkpt lat="48.4498" lon="1.4897">
        <ele>131</ele>
        <time>2024-12-19T15:09:37.168+00:00</time>
      </trkpt>
      <trkpt lat="48.44975" lon="1.48973">
        <ele>131</ele>
        <time>2024-12-19T15:09:42.169+00:00</time>
      </trkpt>
      <trkpt lat="48.44973" lon="1.48973">
        <ele>131</ele>
        <time>2024-12-19T15:09:46.483+00:00</time>
      </trkpt>
      <trkpt lat="48.44968" lon="1.48971">
        <ele>131</ele>
        <time>2024-12-19T15:09:51.061+00:00</time>
      </trkpt>
      <trkpt lat="48.44965" lon="1.48969">
        <ele>131</ele>
        <time>2024-12-19T15:09:55.169+00:00</time>
      </trkpt>
      <trkpt lat="48.44962" lon="1.48967">
        <ele>131</ele>
        <time>2024-12-19T15:09:59.802+00:00</time>
      </trkpt>
      <trkpt lat="48.44961" lon="1.48961">
        <ele>131</ele>
        <time>2024-12-19T15:10:03.882+00:00</time>
      </trkpt>
      <trkpt lat="48.44959" lon="1.48957">
        <ele>134</ele>
        <time>2024-12-19T15:10:08.168+00:00</time>
      </trkpt>
      <trkpt lat="48.44957" lon="1.48955">
        <ele>136</ele>
        <time>2024-12-19T15:10:12.903+00:00</time>
      </trkpt>
      <trkpt lat="48.44954" lon="1.48958">
        <ele>136</ele>
        <time>2024-12-19T15:10:17.039+00:00</time>
      </trkpt>
      <trkpt lat="48.44953" lon="1.48955">
        <ele>136</ele>
        <time>2024-12-19T15:10:21.169+00:00</time>
      </trkpt>
      <trkpt lat="48.44955" lon="1.48951">
        <ele>136</ele>
        <time>2024-12-19T15:10:25.540+00:00</time>
      </trkpt>
      <trkpt lat="48.44956" lon="1.48947">
        <ele>136</ele>
        <time>2024-12-19T15:10:29.942+00:00</time>
      </trkpt>
      <trkpt lat="48.44954" lon="1.48942">
        <ele>136</ele>
        <time>2024-12-19T15:10:34.563+00:00</time>
      </trkpt>
      <trkpt lat="48.44953" lon="1.48935">
        <ele>136</ele>
        <time>2024-12-19T15:10:39.176+00:00</time>
      </trkpt>
      <trkpt lat="48.44953" lon="1.48934">
        <ele>136</ele>
        <time>2024-12-19T15:10:43.519+00:00</time>
      </trkpt>
      <trkpt lat="48.44952" lon="1.4893">
        <ele>143</ele>
        <time>2024-12-19T15:10:48.021+00:00</time>
      </trkpt>
      <trkpt lat="48.4495" lon="1.48926">
        <ele>143</ele>
        <time>2024-12-19T15:10:52.560+00:00</time>
      </trkpt>
      <trkpt lat="48.44949" lon="1.48922">
        <ele>143</ele>
        <time>2024-12-19T15:10:56.744+00:00</time>
      </trkpt>
      <trkpt lat="48.44951" lon="1.48917">
        <ele>143</ele>
        <time>2024-12-19T15:11:15.169+00:00</time>
      </trkpt>
      <trkpt lat="48.4495" lon="1.48914">
        <ele>143</ele>
        <time>2024-12-19T15:11:19.820+00:00</time>
      </trkpt>
      <trkpt lat="48.4495" lon="1.48909">
        <ele>143</ele>
        <time>2024-12-19T15:11:24.168+00:00</time>
      </trkpt>
      <trkpt lat="48.44949" lon="1.48905">
        <ele>143</ele>
        <time>2024-12-19T15:11:28.665+00:00</time>
      </trkpt>
      <trkpt lat="48.44948" lon="1.48899">
        <ele>150</ele>
        <time>2024-12-19T15:11:32.996+00:00</time>
      </trkpt>
      <trkpt lat="48.44945" lon="1.48895">
        <ele>150</ele>
        <time>2024-12-19T15:11:37.081+00:00</time>
      </trkpt>
      <trkpt lat="48.44942" lon="1.48891">
        <ele>150</ele>
        <time>2024-12-19T15:11:41.661+00:00</time>
      </trkpt>
      <trkpt lat="48.4494" lon="1.4889">
        <ele>150</ele>
        <time>2024-12-19T15:11:45.703+00:00</time>
      </trkpt>
      <trkpt lat="48.44937" lon="1.48889">
        <ele>150</ele>
        <time>2024-12-19T15:11:49.779+00:00</time>
      </trkpt>
      <trkpt lat="48.44931" lon="1.48882">
        <ele>150</ele>
        <time>2024-12-19T15:12:07.169+00:00</time>
      </trkpt>
      <trkpt lat="48.4493" lon="1.4888">
        <ele>150</ele>
        <time>2024-12-19T15:12:11.280+00:00</time>
      </trkpt>
      <trkpt lat="48.44928" lon="1.48876">
        <ele>150</ele>
        <time>2024-12-19T15:12:15.696+00:00</time>
      </trkpt>
      <trkpt lat="48.44925" lon="1.48872">
        <ele>156</ele>
        <time>2024-12-19T15:12:20.081+00:00</time>
      </trkpt>
      <trkpt lat="48.44923" lon="1.48868">
        <ele>156</ele>
        <time>2024-12-19T15:12:24.402+00:00</time>
      </trkpt>
      <trkpt lat="48.44921" lon="1.48866">
        <ele>156</ele>
        <time>2024-12-19T15:12:28.702+00:00</time>
      </trkpt>
      <trkpt lat="48.44919" lon="1.48863">
        <ele>156</ele>
        <time>2024-12-19T15:12:33.168+00:00</time>
      </trkpt>
      <trkpt lat="48.44916" lon="1.4886">
        <ele>156</ele>
        <time>2024-12-19T15:12:37.563+00:00</time>
      </trkpt>
      <trkpt lat="48.44914" lon="1.48855">
        <ele>156</ele>
        <time>2024-12-19T15:12:41.878+00:00</time>
      </trkpt>
      <trkpt lat="48.44912" lon="1.4885">
        <ele>156</ele>
        <time>2024-12-19T15:12:47.165+00:00</time>
      </trkpt>
      <trkpt lat="48.4491" lon="1.48846">
        <ele>160</ele>
        <time>2024-12-19T15:12:51.169+00:00</time>
      </trkpt>
      <trkpt lat="48.44908" lon="1.4884">
        <ele>160</ele>
        <time>2024-12-19T15:12:56.169+00:00</time>
      </trkpt>
      <trkpt lat="48.4491" lon="1.48833">
        <ele>160</ele>
        <time>2024-12-19T15:13:00.941+00:00</time>
      </trkpt>
      <trkpt lat="48.44912" lon="1.48825">
        <ele>160</ele>
        <time>2024-12-19T15:13:05.521+00:00</time>
      </trkpt>
      <trkpt lat="48.44915" lon="1.4882">
        <ele>160</ele>
        <time>2024-12-19T15:13:10.116+00:00</time>
      </trkpt>
      <trkpt lat="48.44916" lon="1.48817">
        <ele>162</ele>
        <time>2024-12-19T15:13:14.178+00:00</time>
      </trkpt>
      <trkpt lat="48.44917" lon="1.48812">
        <ele>162</ele>
        <time>2024-12-19T15:13:18.902+00:00</time>
      </trkpt>
      <trkpt lat="48.4492" lon="1.48802">
        <ele>162</ele>
        <time>2024-12-19T15:13:33.168+00:00</time>
      </trkpt>
      <trkpt lat="48.4492" lon="1.48802">
        <ele>162</ele>
        <time>2024-12-19T15:13:38.169+00:00</time>
      </trkpt>
      <trkpt lat="48.44918" lon="1.488">
        <ele>162</ele>
        <time>2024-12-19T15:13:43.169+00:00</time>
      </trkpt>
      <trkpt lat="48.44914" lon="1.48793">
        <ele>162</ele>
        <time>2024-12-19T15:13:48.168+00:00</time>
      </trkpt>
      <trkpt lat="48.44912" lon="1.48788">
        <ele>161</ele>
        <time>2024-12-19T15:13:52.960+00:00</time>
      </trkpt>
      <trkpt lat="48.44911" lon="1.48783">
        <ele>161</ele>
        <time>2024-12-19T15:13:57.343+00:00</time>
      </trkpt>
      <trkpt lat="48.44908" lon="1.48777">
        <ele>161</ele>
        <time>2024-12-19T15:14:01.899+00:00</time>
      </trkpt>
      <trkpt lat="48.44905" lon="1.48772">
        <ele>161</ele>
        <time>2024-12-19T15:14:05.983+00:00</time>
      </trkpt>
      <trkpt lat="48.44902" lon="1.48768">
        <ele>161</ele>
        <time>2024-12-19T15:14:10.562+00:00</time>
      </trkpt>
      <trkpt lat="48.44901" lon="1.48755">
        <ele>160</ele>
        <time>2024-12-19T15:14:49.169+00:00</time>
      </trkpt>
      <trkpt lat="48.44899" lon="1.48752">
        <ele>160</ele>
        <time>2024-12-19T15:14:53.981+00:00</time>
      </trkpt>
      <trkpt lat="48.44895" lon="1.48748">
        <ele>160</ele>
        <time>2024-12-19T15:14:58.169+00:00</time>
      </trkpt>
      <trkpt lat="48.44892" lon="1.48746">
        <ele>160</ele>
        <time>2024-12-19T15:15:02.168+00:00</time>
      </trkpt>
      <trkpt lat="48.44888" lon="1.4874">
        <ele>160</ele>
        <time>2024-12-19T15:15:06.996+00:00</time>
      </trkpt>
      <trkpt lat="48.44884" lon="1.48736">
        <ele>160</ele>
        <time>2024-12-19T15:15:12.169+00:00</time>
      </trkpt>
      <trkpt lat="48.4488" lon="1.48731">
        <ele>160</ele>
        <time>2024-12-19T15:15:17.170+00:00</time>
      </trkpt>
      <trkpt lat="48.44876" lon="1.48726">
        <ele>160</ele>
        <time>2024-12-19T15:15:21.846+00:00</time>
      </trkpt>
      <trkpt lat="48.44873" lon="1.48721">
        <ele>160</ele>
        <time>2024-12-19T15:15:26.169+00:00</time>
      </trkpt>
      <trkpt lat="48.4487" lon="1.48718">
        <ele>160</ele>
        <time>2024-12-19T15:15:30.722+00:00</time>
      </trkpt>
      <trkpt lat="48.44866" lon="1.48713">
        <ele>160</ele>
        <time>2024-12-19T15:15:35.170+00:00</time>
      </trkpt>
      <trkpt lat="48.44861" lon="1.48708">
        <ele>160</ele>
        <time>2024-12-19T15:15:39.880+00:00</time>
      </trkpt>
      <trkpt lat="48.44857" lon="1.48705">
        <ele>160</ele>
        <time>2024-12-19T15:15:44.520+00:00</time>
      </trkpt>
      <trkpt lat="48.44853" lon="1.48705">
        <ele>160</ele>
        <time>2024-12-19T15:15:49.025+00:00</time>
      </trkpt>
      <trkpt lat="48.44851" lon="1.487">
        <ele>160</ele>
        <time>2024-12-19T15:15:53.170+00:00</time>
      </trkpt>
      <trkpt lat="48.44848" lon="1.48696">
        <ele>160</ele>
        <time>2024-12-19T15:15:58.169+00:00</time>
      </trkpt>
      <trkpt lat="48.44846" lon="1.48694">
        <ele>161</ele>
        <time>2024-12-19T15:16:03.180+00:00</time>
      </trkpt>
      <trkpt lat="48.44843" lon="1.48692">
        <ele>161</ele>
        <time>2024-12-19T15:16:22.170+00:00</time>
      </trkpt>
      <trkpt lat="48.44843" lon="1.48692">
        <ele>161</ele>
        <time>2024-12-19T15:16:29.170+00:00</time>
      </trkpt>
      <trkpt lat="48.44843" lon="1.48687">
        <ele>161</ele>
        <time>2024-12-19T15:16:33.683+00:00</time>
      </trkpt>
      <trkpt lat="48.44845" lon="1.48681">
        <ele>161</ele>
        <time>2024-12-19T15:16:38.060+00:00</time>
      </trkpt>
      <trkpt lat="48.44848" lon="1.48678">
        <ele>159</ele>
        <time>2024-12-19T15:16:42.170+00:00</time>
      </trkpt>
      <trkpt lat="48.44851" lon="1.48678">
        <ele>159</ele>
        <time>2024-12-19T15:16:46.782+00:00</time>
      </trkpt>
      <trkpt lat="48.44855" lon="1.4867">
        <ele>159</ele>
        <time>2024-12-19T15:16:51.169+00:00</time>
      </trkpt>
      <trkpt lat="48.44858" lon="1.48667">
        <ele>159</ele>
        <time>2024-12-19T15:16:55.701+00:00</time>
      </trkpt>
      <trkpt lat="48.44861" lon="1.48663">
        <ele>159</ele>
        <time>2024-12-19T15:17:00.076+00:00</time>
      </trkpt>
      <trkpt lat="48.44865" lon="1.48659">
        <ele>159</ele>
        <time>2024-12-19T15:17:04.169+00:00</time>
      </trkpt>
      <trkpt lat="48.44869" lon="1.48654">
        <ele>159</ele>
        <time>2024-12-19T15:17:08.784+00:00</time>
      </trkpt>
      <trkpt lat="48.44874" lon="1.48649">
        <ele>158</ele>
        <time>2024-12-19T15:17:13.170+00:00</time>
      </trkpt>
      <trkpt lat="48.44878" lon="1.48644">
        <ele>158</ele>
        <time>2024-12-19T15:17:18.069+00:00</time>
      </trkpt>
      <trkpt lat="48.44881" lon="1.48639">
        <ele>158</ele>
        <time>2024-12-19T15:17:22.170+00:00</time>
      </trkpt>
      <trkpt lat="48.44886" lon="1.48634">
        <ele>158</ele>
        <time>2024-12-19T15:17:26.863+00:00</time>
      </trkpt>
      <trkpt lat="48.44889" lon="1.48629">
        <ele>158</ele>
        <time>2024-12-19T15:17:31.061+00:00</time>
      </trkpt>
      <trkpt lat="48.44892" lon="1.48624">
        <ele>157</ele>
        <time>2024-12-19T15:17:35.143+00:00</time>
      </trkpt>
      <trkpt lat="48.44894" lon="1.4862">
        <ele>157</ele>
        <time>2024-12-19T15:17:39.170+00:00</time>
      </trkpt>
      <trkpt lat="48.44897" lon="1.48614">
        <ele>157</ele>
        <time>2024-12-19T15:17:43.681+00:00</time>
      </trkpt>
      <trkpt lat="48.44901" lon="1.48608">
        <ele>157</ele>
        <time>2024-12-19T15:17:48.182+00:00</time>
      </trkpt>
      <trkpt lat="48.44904" lon="1.48601">
        <ele>156</ele>
        <time>2024-12-19T15:17:52.743+00:00</time>
      </trkpt>
      <trkpt lat="48.44906" lon="1.48595">
        <ele>155</ele>
        <time>2024-12-19T15:17:57.024+00:00</time>
      </trkpt>
      <trkpt lat="48.44909" lon="1.4859">
        <ele>155</ele>
        <time>2024-12-19T15:18:01.382+00:00</time>
      </trkpt>
      <trkpt lat="48.44912" lon="1.48583">
        <ele>155</ele>
        <time>2024-12-19T15:18:05.979+00:00</time>
      </trkpt>
      <trkpt lat="48.44914" lon="1.48577">
        <ele>155</ele>
        <time>2024-12-19T15:18:10.139+00:00</time>
      </trkpt>
      <trkpt lat="48.44916" lon="1.48571">
        <ele>155</ele>
        <time>2024-12-19T15:18:14.463+00:00</time>
      </trkpt>
      <trkpt lat="48.44918" lon="1.48565">
        <ele>155</ele>
        <time>2024-12-19T15:18:18.522+00:00</time>
      </trkpt>
      <trkpt lat="48.44919" lon="1.48557">
        <ele>155</ele>
        <time>2024-12-19T15:18:22.630+00:00</time>
      </trkpt>
      <trkpt lat="48.44921" lon="1.48549">
        <ele>155</ele>
        <time>2024-12-19T15:18:32.170+00:00</time>
      </trkpt>
      <trkpt lat="48.4492" lon="1.48546">
        <ele>155</ele>
        <time>2024-12-19T15:18:36.280+00:00</time>
      </trkpt>
      <trkpt lat="48.44921" lon="1.48538">
        <ele>154</ele>
        <time>2024-12-19T15:18:41.169+00:00</time>
      </trkpt>
      <trkpt lat="48.44919" lon="1.48537">
        <ele>154</ele>
        <time>2024-12-19T15:18:45.170+00:00</time>
      </trkpt>
      <trkpt lat="48.44921" lon="1.4853">
        <ele>154</ele>
        <time>2024-12-19T15:18:49.601+00:00</time>
      </trkpt>
      <trkpt lat="48.4492" lon="1.48524">
        <ele>154</ele>
        <time>2024-12-19T15:18:54.170+00:00</time>
      </trkpt>
      <trkpt lat="48.44922" lon="1.48516">
        <ele>154</ele>
        <time>2024-12-19T15:18:59.162+00:00</time>
      </trkpt>
      <trkpt lat="48.44922" lon="1.48508">
        <ele>154</ele>
        <time>2024-12-19T15:19:03.169+00:00</time>
      </trkpt>
      <trkpt lat="48.44922" lon="1.48501">
        <ele>154</ele>
        <time>2024-12-19T15:19:07.783+00:00</time>
      </trkpt>
      <trkpt lat="48.44922" lon="1.48492">
        <ele>154</ele>
        <time>2024-12-19T15:19:11.904+00:00</time>
      </trkpt>
      <trkpt lat="48.44921" lon="1.48483">
        <ele>153</ele>
        <time>2024-12-19T15:19:16.170+00:00</time>
      </trkpt>
      <trkpt lat="48.44922" lon="1.48472">
        <ele>153</ele>
        <time>2024-12-19T15:19:20.882+00:00</time>
      </trkpt>
      <trkpt lat="48.44923" lon="1.48466">
        <ele>153</ele>
        <time>2024-12-19T15:19:25.170+00:00</time>
      </trkpt>
      <trkpt lat="48.44923" lon="1.48457">
        <ele>152</ele>
        <time>2024-12-19T15:19:29.700+00:00</time>
      </trkpt>
      <trkpt lat="48.44923" lon="1.48449">
        <ele>152</ele>
        <time>2024-12-19T15:19:34.169+00:00</time>
      </trkpt>
      <trkpt lat="48.44925" lon="1.48442">
        <ele>152</ele>
        <time>2024-12-19T15:19:39.017+00:00</time>
      </trkpt>
      <trkpt lat="48.44923" lon="1.48434">
        <ele>152</ele>
        <time>2024-12-19T15:19:43.519+00:00</time>
      </trkpt>
      <trkpt lat="48.44922" lon="1.48415">
        <ele>150</ele>
        <time>2024-12-19T15:20:00.101+00:00</time>
      </trkpt>
      <trkpt lat="48.44921" lon="1.48412">
        <ele>150</ele>
        <time>2024-12-19T15:20:04.520+00:00</time>
      </trkpt>
      <trkpt lat="48.44918" lon="1.48407">
        <ele>150</ele>
        <time>2024-12-19T15:20:08.579+00:00</time>
      </trkpt>
      <trkpt lat="48.44914" lon="1.48403">
        <ele>148</ele>
        <time>2024-12-19T15:20:12.654+00:00</time>
      </trkpt>
      <trkpt lat="48.4491" lon="1.48398">
        <ele>148</ele>
        <time>2024-12-19T15:20:17.081+00:00</time>
      </trkpt>
      <trkpt lat="48.44907" lon="1.48395">
        <ele>148</ele>
        <time>2024-12-19T15:20:21.157+00:00</time>
      </trkpt>
      <trkpt lat="48.44905" lon="1.48391">
        <ele>148</ele>
        <time>2024-12-19T15:20:25.855+00:00</time>
      </trkpt>
      <trkpt lat="48.44901" lon="1.48389">
        <ele>149</ele>
        <time>2024-12-19T15:20:30.078+00:00</time>
      </trkpt>
      <trkpt lat="48.44897" lon="1.48387">
        <ele>149</ele>
        <time>2024-12-19T15:20:34.169+00:00</time>
      </trkpt>
      <trkpt lat="48.44893" lon="1.48383">
        <ele>149</ele>
        <time>2024-12-19T15:20:38.373+00:00</time>
      </trkpt>
      <trkpt lat="48.4489" lon="1.48377">
        <ele>149</ele>
        <time>2024-12-19T15:20:43.115+00:00</time>
      </trkpt>
      <trkpt lat="48.44887" lon="1.48371">
        <ele>146</ele>
        <time>2024-12-19T15:20:47.739+00:00</time>
      </trkpt>
      <trkpt lat="48.44884" lon="1.48367">
        <ele>146</ele>
        <time>2024-12-19T15:20:51.959+00:00</time>
      </trkpt>
      <trkpt lat="48.4488" lon="1.48366">
        <ele>146</ele>
        <time>2024-12-19T15:20:56.170+00:00</time>
      </trkpt>
      <trkpt lat="48.44879" lon="1.48367">
        <ele>146</ele>
        <time>2024-12-19T15:21:00.742+00:00</time>
      </trkpt>
      <trkpt lat="48.44874" lon="1.48369">
        <ele>146</ele>
        <time>2024-12-19T15:21:04.920+00:00</time>
      </trkpt>
      <trkpt lat="48.44869" lon="1.48372">
        <ele>146</ele>
        <time>2024-12-19T15:21:09.261+00:00</time>
      </trkpt>
      <trkpt lat="48.44864" lon="1.48375">
        <ele>146</ele>
        <time>2024-12-19T15:21:13.576+00:00</time>
      </trkpt>
      <trkpt lat="48.4486" lon="1.48378">
        <ele>149</ele>
        <time>2024-12-19T15:21:17.900+00:00</time>
      </trkpt>
      <trkpt lat="48.44857" lon="1.48383">
        <ele>149</ele>
        <time>2024-12-19T15:21:22.187+00:00</time>
      </trkpt>
      <trkpt lat="48.44851" lon="1.48386">
        <ele>149</ele>
        <time>2024-12-19T15:21:27.041+00:00</time>
      </trkpt>
      <trkpt lat="48.44846" lon="1.48388">
        <ele>149</ele>
        <time>2024-12-19T15:21:31.475+00:00</time>
      </trkpt>
      <trkpt lat="48.44842" lon="1.48391">
        <ele>149</ele>
        <time>2024-12-19T15:21:35.995+00:00</time>
      </trkpt>
      <trkpt lat="48.44838" lon="1.48395">
        <ele>149</ele>
        <time>2024-12-19T15:21:41.060+00:00</time>
      </trkpt>
      <trkpt lat="48.44834" lon="1.48395">
        <ele>149</ele>
        <time>2024-12-19T15:21:45.169+00:00</time>
      </trkpt>
      <trkpt lat="48.44831" lon="1.484">
        <ele>149</ele>
        <time>2024-12-19T15:21:49.540+00:00</time>
      </trkpt>
      <trkpt lat="48.44827" lon="1.48403">
        <ele>150</ele>
        <time>2024-12-19T15:21:53.877+00:00</time>
      </trkpt>
      <trkpt lat="48.44821" lon="1.48405">
        <ele>150</ele>
        <time>2024-12-19T15:21:58.044+00:00</time>
      </trkpt>
      <trkpt lat="48.44816" lon="1.48409">
        <ele>149</ele>
        <time>2024-12-19T15:22:03.169+00:00</time>
      </trkpt>
      <trkpt lat="48.44812" lon="1.48412">
        <ele>149</ele>
        <time>2024-12-19T15:22:07.520+00:00</time>
      </trkpt>
      <trkpt lat="48.44807" lon="1.48418">
        <ele>149</ele>
        <time>2024-12-19T15:22:11.759+00:00</time>
      </trkpt>
      <trkpt lat="48.44803" lon="1.48422">
        <ele>149</ele>
        <time>2024-12-19T15:22:16.134+00:00</time>
      </trkpt>
      <trkpt lat="48.44799" lon="1.48425">
        <ele>149</ele>
        <time>2024-12-19T15:22:20.169+00:00</time>
      </trkpt>
      <trkpt lat="48.44795" lon="1.48429">
        <ele>149</ele>
        <time>2024-12-19T15:22:25.169+00:00</time>
      </trkpt>
      <trkpt lat="48.4479" lon="1.48432">
        <ele>150</ele>
        <time>2024-12-19T15:22:30.169+00:00</time>
      </trkpt>
      <trkpt lat="48.44785" lon="1.48434">
        <ele>150</ele>
        <time>2024-12-19T15:22:35.039+00:00</time>
      </trkpt>
      <trkpt lat="48.4478" lon="1.48437">
        <ele>150</ele>
        <time>2024-12-19T15:22:39.170+00:00</time>
      </trkpt>
      <trkpt lat="48.44775" lon="1.48441">
        <ele>150</ele>
        <time>2024-12-19T15:22:44.170+00:00</time>
      </trkpt>
      <trkpt lat="48.44771" lon="1.48444">
        <ele>150</ele>
        <time>2024-12-19T15:22:49.169+00:00</time>
      </trkpt>
      <trkpt lat="48.44766" lon="1.48446">
        <ele>150</ele>
        <time>2024-12-19T15:22:54.040+00:00</time>
      </trkpt>
      <trkpt lat="48.44761" lon="1.48446">
        <ele>149</ele>
        <time>2024-12-19T15:22:58.239+00:00</time>
      </trkpt>
      <trkpt lat="48.44751" lon="1.48442">
        <ele>149</ele>
        <time>2024-12-19T15:23:18.008+00:00</time>
      </trkpt>
      <trkpt lat="48.44748" lon="1.48436">
        <ele>149</ele>
        <time>2024-12-19T15:23:23.006+00:00</time>
      </trkpt>
      <trkpt lat="48.44746" lon="1.48431">
        <ele>149</ele>
        <time>2024-12-19T15:23:28.166+00:00</time>
      </trkpt>
      <trkpt lat="48.44744" lon="1.48424">
        <ele>148</ele>
        <time>2024-12-19T15:23:32.561+00:00</time>
      </trkpt>
      <trkpt lat="48.44745" lon="1.48417">
        <ele>148</ele>
        <time>2024-12-19T15:23:36.800+00:00</time>
      </trkpt>
      <trkpt lat="48.44742" lon="1.48408">
        <ele>148</ele>
        <time>2024-12-19T15:23:41.169+00:00</time>
      </trkpt>
      <trkpt lat="48.44738" lon="1.48405">
        <ele>148</ele>
        <time>2024-12-19T15:23:45.499+00:00</time>
      </trkpt>
      <trkpt lat="48.44731" lon="1.48405">
        <ele>149</ele>
        <time>2024-12-19T15:23:50.170+00:00</time>
      </trkpt>
      <trkpt lat="48.44726" lon="1.48408">
        <ele>149</ele>
        <time>2024-12-19T15:23:54.661+00:00</time>
      </trkpt>
      <trkpt lat="48.44721" lon="1.48408">
        <ele>149</ele>
        <time>2024-12-19T15:23:58.999+00:00</time>
      </trkpt>
      <trkpt lat="48.44716" lon="1.48408">
        <ele>149</ele>
        <time>2024-12-19T15:24:03.169+00:00</time>
      </trkpt>
      <trkpt lat="48.44715" lon="1.48406">
        <ele>149</ele>
        <time>2024-12-19T15:24:05.035+00:00</time>
      </trkpt>
      <trkpt lat="48.44707" lon="1.48417">
        <ele>148</ele>
        <time>2024-12-19T15:24:12.170+00:00</time>
      </trkpt>
      <trkpt lat="48.44705" lon="1.48416">
        <ele>148</ele>
        <time>2024-12-19T15:24:16.224+00:00</time>
      </trkpt>
      <trkpt lat="48.44705" lon="1.48402">
        <ele>148</ele>
        <time>2024-12-19T15:24:20.734+00:00</time>
      </trkpt>
      <trkpt lat="48.44705" lon="1.48396">
        <ele>148</ele>
        <time>2024-12-19T15:24:24.852+00:00</time>
      </trkpt>
      <trkpt lat="48.44707" lon="1.48391">
        <ele>148</ele>
        <time>2024-12-19T15:24:29.169+00:00</time>
      </trkpt>
      <trkpt lat="48.44709" lon="1.48392">
        <ele>150</ele>
        <time>2024-12-19T15:24:34.170+00:00</time>
      </trkpt>
      <trkpt lat="48.44704" lon="1.484">
        <ele>148</ele>
        <time>2024-12-19T15:24:39.169+00:00</time>
      </trkpt>
      <trkpt lat="48.44701" lon="1.48407">
        <ele>148</ele>
        <time>2024-12-19T15:24:44.170+00:00</time>
      </trkpt>
      <trkpt lat="48.447" lon="1.4841">
        <ele>148</ele>
        <time>2024-12-19T15:24:49.169+00:00</time>
      </trkpt>
      <trkpt lat="48.44699" lon="1.48407">
        <ele>148</ele>
        <time>2024-12-19T15:24:53.918+00:00</time>
      </trkpt>
      <trkpt lat="48.44696" lon="1.48402">
        <ele>148</ele>
        <time>2024-12-19T15:24:58.170+00:00</time>
      </trkpt>
      <trkpt lat="48.44693" lon="1.48397">
        <ele>148</ele>
        <time>2024-12-19T15:25:03.170+00:00</time>
      </trkpt>
      <trkpt lat="48.4469" lon="1.48391">
        <ele>148</ele>
        <time>2024-12-19T15:25:07.184+00:00</time>
      </trkpt>
      <trkpt lat="48.44688" lon="1.48392">
        <ele>148</ele>
        <time>2024-12-19T15:25:11.169+00:00</time>
      </trkpt>
      <trkpt lat="48.44684" lon="1.48393">
        <ele>148</ele>
        <time>2024-12-19T15:25:15.704+00:00</time>
      </trkpt>
      <trkpt lat="48.44679" lon="1.48394">
        <ele>147</ele>
        <time>2024-12-19T15:25:20.170+00:00</time>
      </trkpt>
      <trkpt lat="48.44674" lon="1.48395">
        <ele>147</ele>
        <time>2024-12-19T15:25:24.521+00:00</time>
      </trkpt>
      <trkpt lat="48.44669" lon="1.48395">
        <ele>147</ele>
        <time>2024-12-19T15:25:28.971+00:00</time>
      </trkpt>
      <trkpt lat="48.44668" lon="1.48396">
        <ele>147</ele>
        <time>2024-12-19T15:25:33.076+00:00</time>
      </trkpt>
      <trkpt lat="48.44674" lon="1.48395">
        <ele>147</ele>
        <time>2024-12-19T15:25:37.301+00:00</time>
      </trkpt>
      <trkpt lat="48.44679" lon="1.48397">
        <ele>147</ele>
        <time>2024-12-19T15:25:41.762+00:00</time>
      </trkpt>
      <trkpt lat="48.44679" lon="1.48403">
        <ele>148</ele>
        <time>2024-12-19T15:26:42.169+00:00</time>
      </trkpt>
      <trkpt lat="48.44677" lon="1.48407">
        <ele>148</ele>
        <time>2024-12-19T15:26:46.847+00:00</time>
      </trkpt>
      <trkpt lat="48.44674" lon="1.48411">
        <ele>148</ele>
        <time>2024-12-19T15:26:50.874+00:00</time>
      </trkpt>
      <trkpt lat="48.44668" lon="1.48413">
        <ele>148</ele>
        <time>2024-12-19T15:26:55.170+00:00</time>
      </trkpt>
      <trkpt lat="48.44663" lon="1.48411">
        <ele>148</ele>
        <time>2024-12-19T15:27:00.170+00:00</time>
      </trkpt>
      <trkpt lat="48.44658" lon="1.48408">
        <ele>148</ele>
        <time>2024-12-19T15:27:04.359+00:00</time>
      </trkpt>
      <trkpt lat="48.44652" lon="1.48405">
        <ele>153</ele>
        <time>2024-12-19T15:27:08.734+00:00</time>
      </trkpt>
      <trkpt lat="48.44645" lon="1.48399">
        <ele>152</ele>
        <time>2024-12-19T15:27:12.795+00:00</time>
      </trkpt>
      <trkpt lat="48.4464" lon="1.48392">
        <ele>152</ele>
        <time>2024-12-19T15:27:17.034+00:00</time>
      </trkpt>
      <trkpt lat="48.44634" lon="1.48387">
        <ele>152</ele>
        <time>2024-12-19T15:27:21.169+00:00</time>
      </trkpt>
      <trkpt lat="48.44628" lon="1.48386">
        <ele>152</ele>
        <time>2024-12-19T15:27:25.419+00:00</time>
      </trkpt>
      <trkpt lat="48.44623" lon="1.48385">
        <ele>157</ele>
        <time>2024-12-19T15:27:29.598+00:00</time>
      </trkpt>
      <trkpt lat="48.44619" lon="1.48385">
        <ele>157</ele>
        <time>2024-12-19T15:27:33.710+00:00</time>
      </trkpt>
      <trkpt lat="48.44615" lon="1.48384">
        <ele>157</ele>
        <time>2024-12-19T15:27:37.959+00:00</time>
      </trkpt>
      <trkpt lat="48.44611" lon="1.48387">
        <ele>157</ele>
        <time>2024-12-19T15:27:42.255+00:00</time>
      </trkpt>
      <trkpt lat="48.44608" lon="1.48392">
        <ele>157</ele>
        <time>2024-12-19T15:27:46.659+00:00</time>
      </trkpt>
      <trkpt lat="48.44607" lon="1.48398">
        <ele>157</ele>
        <time>2024-12-19T15:27:50.819+00:00</time>
      </trkpt>
      <trkpt lat="48.44602" lon="1.48399">
        <ele>157</ele>
        <time>2024-12-19T15:27:55.447+00:00</time>
      </trkpt>
      <trkpt lat="48.44598" lon="1.48399">
        <ele>157</ele>
        <time>2024-12-19T15:28:00.099+00:00</time>
      </trkpt>
      <trkpt lat="48.44593" lon="1.48396">
        <ele>158</ele>
        <time>2024-12-19T15:28:05.169+00:00</time>
      </trkpt>
      <trkpt lat="48.44592" lon="1.48392">
        <ele>158</ele>
        <time>2024-12-19T15:28:10.169+00:00</time>
      </trkpt>
      <trkpt lat="48.44592" lon="1.48394">
        <ele>158</ele>
        <time>2024-12-19T15:28:15.170+00:00</time>
      </trkpt>
      <trkpt lat="48.44591" lon="1.4839">
        <ele>158</ele>
        <time>2024-12-19T15:28:20.170+00:00</time>
      </trkpt>
      <trkpt lat="48.44586" lon="1.48385">
        <ele>158</ele>
        <time>2024-12-19T15:28:24.560+00:00</time>
      </trkpt>
      <trkpt lat="48.44583" lon="1.48385">
        <ele>158</ele>
        <time>2024-12-19T15:28:28.863+00:00</time>
      </trkpt>
      <trkpt lat="48.4458" lon="1.48385">
        <ele>158</ele>
        <time>2024-12-19T15:28:32.885+00:00</time>
      </trkpt>
      <trkpt lat="48.44575" lon="1.48386">
        <ele>158</ele>
        <time>2024-12-19T15:28:38.170+00:00</time>
      </trkpt>
      <trkpt lat="48.44572" lon="1.48386">
        <ele>158</ele>
        <time>2024-12-19T15:28:42.170+00:00</time>
      </trkpt>
      <trkpt lat="48.44572" lon="1.48386">
        <ele>158</ele>
        <time>2024-12-19T15:28:46.578+00:00</time>
      </trkpt>
      <trkpt lat="48.44569" lon="1.48386">
        <ele>158</ele>
        <time>2024-12-19T15:28:49.964+00:00</time>
      </trkpt>
      <trkpt lat="48.44558" lon="1.48409">
        <ele>157</ele>
        <time>2024-12-19T15:30:29.169+00:00</time>
      </trkpt>
      <trkpt lat="48.44554" lon="1.48406">
        <ele>157</ele>
        <time>2024-12-19T15:30:33.170+00:00</time>
      </trkpt>
      <trkpt lat="48.4455" lon="1.48401">
        <ele>158</ele>
        <time>2024-12-19T15:30:38.169+00:00</time>
      </trkpt>
      <trkpt lat="48.44546" lon="1.48396">
        <ele>158</ele>
        <time>2024-12-19T15:30:42.774+00:00</time>
      </trkpt>
      <trkpt lat="48.44542" lon="1.48392">
        <ele>158</ele>
        <time>2024-12-19T15:30:47.105+00:00</time>
      </trkpt>
      <trkpt lat="48.44538" lon="1.48388">
        <ele>157</ele>
        <time>2024-12-19T15:30:51.099+00:00</time>
      </trkpt>
      <trkpt lat="48.44537" lon="1.48386">
        <ele>157</ele>
        <time>2024-12-19T15:30:56.170+00:00</time>
      </trkpt>
      <trkpt lat="48.44533" lon="1.48382">
        <ele>157</ele>
        <time>2024-12-19T15:31:00.855+00:00</time>
      </trkpt>
      <trkpt lat="48.44529" lon="1.48378">
        <ele>157</ele>
        <time>2024-12-19T15:31:05.170+00:00</time>
      </trkpt>
      <trkpt lat="48.44525" lon="1.48374">
        <ele>158</ele>
        <time>2024-12-19T15:31:09.555+00:00</time>
      </trkpt>
      <trkpt lat="48.44521" lon="1.48371">
        <ele>158</ele>
        <time>2024-12-19T15:31:13.955+00:00</time>
      </trkpt>
      <trkpt lat="48.44518" lon="1.4837">
        <ele>158</ele>
        <time>2024-12-19T15:31:18.059+00:00</time>
      </trkpt>
      <trkpt lat="48.44514" lon="1.48367">
        <ele>158</ele>
        <time>2024-12-19T15:31:22.169+00:00</time>
      </trkpt>
      <trkpt lat="48.44509" lon="1.48365">
        <ele>156</ele>
        <time>2024-12-19T15:31:27.169+00:00</time>
      </trkpt>
      <trkpt lat="48.44503" lon="1.48363">
        <ele>156</ele>
        <time>2024-12-19T15:31:32.169+00:00</time>
      </trkpt>
      <trkpt lat="48.44497" lon="1.48362">
        <ele>156</ele>
        <time>2024-12-19T15:31:36.780+00:00</time>
      </trkpt>
      <trkpt lat="48.44492" lon="1.48361">
        <ele>156</ele>
        <time>2024-12-19T15:31:40.915+00:00</time>
      </trkpt>
      <trkpt lat="48.44487" lon="1.48361">
        <ele>156</ele>
        <time>2024-12-19T15:31:45.171+00:00</time>
      </trkpt>
      <trkpt lat="48.44482" lon="1.48361">
        <ele>156</ele>
        <time>2024-12-19T15:31:49.424+00:00</time>
      </trkpt>
      <trkpt lat="48.44478" lon="1.4836">
        <ele>156</ele>
        <time>2024-12-19T15:31:54.171+00:00</time>
      </trkpt>
      <trkpt lat="48.44473" lon="1.48361">
        <ele>156</ele>
        <time>2024-12-19T15:31:58.859+00:00</time>
      </trkpt>
      <trkpt lat="48.44468" lon="1.4836">
        <ele>156</ele>
        <time>2024-12-19T15:32:02.961+00:00</time>
      </trkpt>
      <trkpt lat="48.44464" lon="1.4836">
        <ele>156</ele>
        <time>2024-12-19T15:32:07.170+00:00</time>
      </trkpt>
      <trkpt lat="48.44461" lon="1.48354">
        <ele>156</ele>
        <time>2024-12-19T15:32:11.942+00:00</time>
      </trkpt>
      <trkpt lat="48.44457" lon="1.4835">
        <ele>157</ele>
        <time>2024-12-19T15:32:16.377+00:00</time>
      </trkpt>
      <trkpt lat="48.44451" lon="1.48351">
        <ele>157</ele>
        <time>2024-12-19T15:32:20.779+00:00</time>
      </trkpt>
      <trkpt lat="48.44444" lon="1.48353">
        <ele>157</ele>
        <time>2024-12-19T15:32:25.170+00:00</time>
      </trkpt>
      <trkpt lat="48.4444" lon="1.4835">
        <ele>157</ele>
        <time>2024-12-19T15:32:29.435+00:00</time>
      </trkpt>
      <trkpt lat="48.44436" lon="1.4835">
        <ele>157</ele>
        <time>2024-12-19T15:32:33.740+00:00</time>
      </trkpt>
      <trkpt lat="48.44431" lon="1.48353">
        <ele>157</ele>
        <time>2024-12-19T15:32:37.859+00:00</time>
      </trkpt>
      <trkpt lat="48.44427" lon="1.48355">
        <ele>158</ele>
        <time>2024-12-19T15:32:42.175+00:00</time>
      </trkpt>
      <trkpt lat="48.44424" lon="1.48356">
        <ele>158</ele>
        <time>2024-12-19T15:32:46.320+00:00</time>
      </trkpt>
      <trkpt lat="48.44419" lon="1.48359">
        <ele>158</ele>
        <time>2024-12-19T15:32:50.726+00:00</time>
      </trkpt>
      <trkpt lat="48.44418" lon="1.48364">
        <ele>158</ele>
        <time>2024-12-19T15:32:54.959+00:00</time>
      </trkpt>
      <trkpt lat="48.44419" lon="1.48372">
        <ele>158</ele>
        <time>2024-12-19T15:32:59.247+00:00</time>
      </trkpt>
      <trkpt lat="48.44422" lon="1.48378">
        <ele>159</ele>
        <time>2024-12-19T15:33:03.714+00:00</time>
      </trkpt>
      <trkpt lat="48.44423" lon="1.48383">
        <ele>159</ele>
        <time>2024-12-19T15:33:08.171+00:00</time>
      </trkpt>
      <trkpt lat="48.44426" lon="1.48384">
        <ele>159</ele>
        <time>2024-12-19T15:33:13.170+00:00</time>
      </trkpt>
      <trkpt lat="48.44428" lon="1.48392">
        <ele>159</ele>
        <time>2024-12-19T15:33:18.059+00:00</time>
      </trkpt>
      <trkpt lat="48.4443" lon="1.48399">
        <ele>159</ele>
        <time>2024-12-19T15:33:22.171+00:00</time>
      </trkpt>
      <trkpt lat="48.44432" lon="1.48406">
        <ele>160</ele>
        <time>2024-12-19T15:33:26.861+00:00</time>
      </trkpt>
      <trkpt lat="48.44433" lon="1.48413">
        <ele>160</ele>
        <time>2024-12-19T15:33:31.159+00:00</time>
      </trkpt>
      <trkpt lat="48.44434" lon="1.48419">
        <ele>160</ele>
        <time>2024-12-19T15:33:35.620+00:00</time>
      </trkpt>
      <trkpt lat="48.44435" lon="1.48426">
        <ele>160</ele>
        <time>2024-12-19T15:33:39.961+00:00</time>
      </trkpt>
      <trkpt lat="48.44434" lon="1.48435">
        <ele>162</ele>
        <time>2024-12-19T15:33:45.098+00:00</time>
      </trkpt>
      <trkpt lat="48.44436" lon="1.48442">
        <ele>162</ele>
        <time>2024-12-19T15:33:49.180+00:00</time>
      </trkpt>
      <trkpt lat="48.44439" lon="1.48439">
        <ele>162</ele>
        <time>2024-12-19T15:33:53.376+00:00</time>
      </trkpt>
      <trkpt lat="48.44444" lon="1.48431">
        <ele>162</ele>
        <time>2024-12-19T15:33:57.780+00:00</time>
      </trkpt>
      <trkpt lat="48.44449" lon="1.48426">
        <ele>160</ele>
        <time>2024-12-19T15:34:02+00:00</time>
      </trkpt>
      <trkpt lat="48.44453" lon="1.48422">
        <ele>160</ele>
        <time>2024-12-19T15:34:06.171+00:00</time>
      </trkpt>
      <trkpt lat="48.44458" lon="1.48417">
        <ele>160</ele>
        <time>2024-12-19T15:34:11.040+00:00</time>
      </trkpt>
      <trkpt lat="48.44462" lon="1.4841">
        <ele>158</ele>
        <time>2024-12-19T15:34:15.577+00:00</time>
      </trkpt>
      <trkpt lat="48.44466" lon="1.48405">
        <ele>158</ele>
        <time>2024-12-19T15:34:19.934+00:00</time>
      </trkpt>
      <trkpt lat="48.44476" lon="1.48401">
        <ele>157</ele>
        <time>2024-12-19T15:35:29.171+00:00</time>
      </trkpt>
      <trkpt lat="48.44476" lon="1.48402">
        <ele>157</ele>
        <time>2024-12-19T15:35:33.147+00:00</time>
      </trkpt>
      <trkpt lat="48.44476" lon="1.48404">
        <ele>158</ele>
        <time>2024-12-19T15:35:38.171+00:00</time>
      </trkpt>
      <trkpt lat="48.44477" lon="1.48405">
        <ele>158</ele>
        <time>2024-12-19T15:35:43.138+00:00</time>
      </trkpt>
      <trkpt lat="48.44477" lon="1.48405">
        <ele>158</ele>
        <time>2024-12-19T15:35:48.153+00:00</time>
      </trkpt>
      <trkpt lat="48.44475" lon="1.48405">
        <ele>158</ele>
        <time>2024-12-19T15:38:28.171+00:00</time>
      </trkpt>
      <trkpt lat="48.44475" lon="1.48404">
        <ele>158</ele>
        <time>2024-12-19T15:38:32.170+00:00</time>
      </trkpt>
      <trkpt lat="48.44476" lon="1.48403">
        <ele>158</ele>
        <time>2024-12-19T15:38:37.171+00:00</time>
      </trkpt>
      <trkpt lat="48.44474" lon="1.48402">
        <ele>157</ele>
        <time>2024-12-19T15:38:42.171+00:00</time>
      </trkpt>
      <trkpt lat="48.44466" lon="1.48384">
        <ele>157</ele>
        <time>2024-12-19T15:38:47.170+00:00</time>
      </trkpt>
      <trkpt lat="48.44471" lon="1.484">
        <ele>157</ele>
        <time>2024-12-19T15:42:24.170+00:00</time>
      </trkpt>
      <trkpt lat="48.44471" lon="1.484">
        <ele>157</ele>
        <time>2024-12-19T15:42:28.171+00:00</time>
      </trkpt>
      <trkpt lat="48.44474" lon="1.484">
        <ele>157</ele>
        <time>2024-12-19T15:42:33.171+00:00</time>
      </trkpt>
      <trkpt lat="48.44478" lon="1.48399">
        <ele>157</ele>
        <time>2024-12-19T15:42:37.562+00:00</time>
      </trkpt>
      <trkpt lat="48.44482" lon="1.48404">
        <ele>158</ele>
        <time>2024-12-19T15:42:42.066+00:00</time>
      </trkpt>
      <trkpt lat="48.44479" lon="1.48408">
        <ele>158</ele>
        <time>2024-12-19T15:43:13.998+00:00</time>
      </trkpt>
      <trkpt lat="48.44478" lon="1.48406">
        <ele>158</ele>
        <time>2024-12-19T15:43:18.092+00:00</time>
      </trkpt>
      <trkpt lat="48.44476" lon="1.48404">
        <ele>158</ele>
        <time>2024-12-19T15:43:23.107+00:00</time>
      </trkpt>
      <trkpt lat="48.44474" lon="1.48403">
        <ele>157</ele>
        <time>2024-12-19T15:43:27.171+00:00</time>
      </trkpt>
      <trkpt lat="48.44469" lon="1.48395">
        <ele>157</ele>
        <time>2024-12-19T15:43:33.171+00:00</time>
      </trkpt>
      <trkpt lat="48.44472" lon="1.4839">
        <ele>157</ele>
        <time>2024-12-19T15:45:02.683+00:00</time>
      </trkpt>
      <trkpt lat="48.44472" lon="1.48388">
        <ele>157</ele>
        <time>2024-12-19T15:45:07.145+00:00</time>
      </trkpt>
      <trkpt lat="48.44476" lon="1.48385">
        <ele>157</ele>
        <time>2024-12-19T15:45:11.452+00:00</time>
      </trkpt>
      <trkpt lat="48.44479" lon="1.4838">
        <ele>157</ele>
        <time>2024-12-19T15:45:15.700+00:00</time>
      </trkpt>
      <trkpt lat="48.44485" lon="1.48382">
        <ele>157</ele>
        <time>2024-12-19T15:45:20.022+00:00</time>
      </trkpt>
      <trkpt lat="48.44489" lon="1.48383">
        <ele>157</ele>
        <time>2024-12-19T15:45:24.171+00:00</time>
      </trkpt>
      <trkpt lat="48.44495" lon="1.48386">
        <ele>157</ele>
        <time>2024-12-19T15:45:28.381+00:00</time>
      </trkpt>
      <trkpt lat="48.445" lon="1.48388">
        <ele>157</ele>
        <time>2024-12-19T15:45:32.663+00:00</time>
      </trkpt>
      <trkpt lat="48.44505" lon="1.4839">
        <ele>157</ele>
        <time>2024-12-19T15:45:36.783+00:00</time>
      </trkpt>
      <trkpt lat="48.44509" lon="1.48395">
        <ele>157</ele>
        <time>2024-12-19T15:45:41.171+00:00</time>
      </trkpt>
      <trkpt lat="48.44514" lon="1.48402">
        <ele>157</ele>
        <time>2024-12-19T15:45:46.170+00:00</time>
      </trkpt>
      <trkpt lat="48.44518" lon="1.48406">
        <ele>157</ele>
        <time>2024-12-19T15:45:50.731+00:00</time>
      </trkpt>
      <trkpt lat="48.44522" lon="1.4841">
        <ele>157</ele>
        <time>2024-12-19T15:45:54.801+00:00</time>
      </trkpt>
      <trkpt lat="48.44527" lon="1.48413">
        <ele>157</ele>
        <time>2024-12-19T15:45:59.171+00:00</time>
      </trkpt>
      <trkpt lat="48.44532" lon="1.48417">
        <ele>157</ele>
        <time>2024-12-19T15:46:03.460+00:00</time>
      </trkpt>
      <trkpt lat="48.44537" lon="1.4842">
        <ele>157</ele>
        <time>2024-12-19T15:46:07.945+00:00</time>
      </trkpt>
      <trkpt lat="48.44541" lon="1.48424">
        <ele>157</ele>
        <time>2024-12-19T15:46:12.005+00:00</time>
      </trkpt>
      <trkpt lat="48.44545" lon="1.48425">
        <ele>157</ele>
        <time>2024-12-19T15:46:16.159+00:00</time>
      </trkpt>
      <trkpt lat="48.44549" lon="1.48427">
        <ele>157</ele>
        <time>2024-12-19T15:46:20.171+00:00</time>
      </trkpt>
      <trkpt lat="48.44551" lon="1.48433">
        <ele>156</ele>
        <time>2024-12-19T15:46:24.743+00:00</time>
      </trkpt>
      <trkpt lat="48.44551" lon="1.48443">
        <ele>156</ele>
        <time>2024-12-19T15:46:28.779+00:00</time>
      </trkpt>
      <trkpt lat="48.4455" lon="1.48451">
        <ele>156</ele>
        <time>2024-12-19T15:46:33.171+00:00</time>
      </trkpt>
      <trkpt lat="48.44547" lon="1.48456">
        <ele>156</ele>
        <time>2024-12-19T15:46:38.170+00:00</time>
      </trkpt>
      <trkpt lat="48.44546" lon="1.4846">
        <ele>156</ele>
        <time>2024-12-19T15:46:43.022+00:00</time>
      </trkpt>
      <trkpt lat="48.44549" lon="1.48467">
        <ele>156</ele>
        <time>2024-12-19T15:46:47.171+00:00</time>
      </trkpt>
      <trkpt lat="48.44553" lon="1.48474">
        <ele>156</ele>
        <time>2024-12-19T15:46:51.579+00:00</time>
      </trkpt>
      <trkpt lat="48.44559" lon="1.48481">
        <ele>156</ele>
        <time>2024-12-19T15:46:56.170+00:00</time>
      </trkpt>
      <trkpt lat="48.44563" lon="1.48486">
        <ele>156</ele>
        <time>2024-12-19T15:47:00.483+00:00</time>
      </trkpt>
      <trkpt lat="48.44567" lon="1.4849">
        <ele>158</ele>
        <time>2024-12-19T15:47:04.774+00:00</time>
      </trkpt>
      <trkpt lat="48.44572" lon="1.48494">
        <ele>157</ele>
        <time>2024-12-19T15:47:08.885+00:00</time>
      </trkpt>
      <trkpt lat="48.44577" lon="1.48495">
        <ele>157</ele>
        <time>2024-12-19T15:47:13.081+00:00</time>
      </trkpt>
      <trkpt lat="48.44582" lon="1.48497">
        <ele>157</ele>
        <time>2024-12-19T15:47:17.645+00:00</time>
      </trkpt>
      <trkpt lat="48.44586" lon="1.48502">
        <ele>157</ele>
        <time>2024-12-19T15:47:22.047+00:00</time>
      </trkpt>
      <trkpt lat="48.44587" lon="1.48507">
        <ele>157</ele>
        <time>2024-12-19T15:47:26.524+00:00</time>
      </trkpt>
      <trkpt lat="48.44586" lon="1.48513">
        <ele>157</ele>
        <time>2024-12-19T15:47:30.865+00:00</time>
      </trkpt>
      <trkpt lat="48.44588" lon="1.4852">
        <ele>159</ele>
        <time>2024-12-19T15:47:35.171+00:00</time>
      </trkpt>
      <trkpt lat="48.44582" lon="1.48532">
        <ele>159</ele>
        <time>2024-12-19T15:47:40.170+00:00</time>
      </trkpt>
      <trkpt lat="48.44584" lon="1.4854">
        <ele>159</ele>
        <time>2024-12-19T15:47:44.465+00:00</time>
      </trkpt>
      <trkpt lat="48.44587" lon="1.48544">
        <ele>161</ele>
        <time>2024-12-19T15:47:49.170+00:00</time>
      </trkpt>
      <trkpt lat="48.4459" lon="1.48549">
        <ele>161</ele>
        <time>2024-12-19T15:47:54.162+00:00</time>
      </trkpt>
      <trkpt lat="48.44594" lon="1.48554">
        <ele>161</ele>
        <time>2024-12-19T15:47:58.623+00:00</time>
      </trkpt>
      <trkpt lat="48.44597" lon="1.48557">
        <ele>161</ele>
        <time>2024-12-19T15:48:02.668+00:00</time>
      </trkpt>
      <trkpt lat="48.44601" lon="1.4856">
        <ele>160</ele>
        <time>2024-12-19T15:48:07.170+00:00</time>
      </trkpt>
      <trkpt lat="48.44604" lon="1.48565">
        <ele>160</ele>
        <time>2024-12-19T15:48:11.606+00:00</time>
      </trkpt>
      <trkpt lat="48.4461" lon="1.48569">
        <ele>160</ele>
        <time>2024-12-19T15:48:15.803+00:00</time>
      </trkpt>
      <trkpt lat="48.44614" lon="1.48572">
        <ele>161</ele>
        <time>2024-12-19T15:48:20.023+00:00</time>
      </trkpt>
      <trkpt lat="48.44617" lon="1.48578">
        <ele>161</ele>
        <time>2024-12-19T15:48:24.171+00:00</time>
      </trkpt>
      <trkpt lat="48.4462" lon="1.48583">
        <ele>161</ele>
        <time>2024-12-19T15:48:28.604+00:00</time>
      </trkpt>
      <trkpt lat="48.44623" lon="1.48589">
        <ele>161</ele>
        <time>2024-12-19T15:48:32.784+00:00</time>
      </trkpt>
      <trkpt lat="48.44624" lon="1.48594">
        <ele>161</ele>
        <time>2024-12-19T15:48:37.171+00:00</time>
      </trkpt>
      <trkpt lat="48.44623" lon="1.486">
        <ele>162</ele>
        <time>2024-12-19T15:48:41.305+00:00</time>
      </trkpt>
      <trkpt lat="48.44619" lon="1.48605">
        <ele>162</ele>
        <time>2024-12-19T15:48:45.901+00:00</time>
      </trkpt>
      <trkpt lat="48.44615" lon="1.48611">
        <ele>162</ele>
        <time>2024-12-19T15:48:50.482+00:00</time>
      </trkpt>
      <trkpt lat="48.44612" lon="1.48615">
        <ele>162</ele>
        <time>2024-12-19T15:48:55.045+00:00</time>
      </trkpt>
      <trkpt lat="48.44608" lon="1.48619">
        <ele>162</ele>
        <time>2024-12-19T15:48:59.505+00:00</time>
      </trkpt>
      <trkpt lat="48.44606" lon="1.48622">
        <ele>162</ele>
        <time>2024-12-19T15:49:04.060+00:00</time>
      </trkpt>
      <trkpt lat="48.44605" lon="1.48627">
        <ele>162</ele>
        <time>2024-12-19T15:49:08.143+00:00</time>
      </trkpt>
      <trkpt lat="48.44601" lon="1.48628">
        <ele>162</ele>
        <time>2024-12-19T15:49:12.364+00:00</time>
      </trkpt>
      <trkpt lat="48.44597" lon="1.48633">
        <ele>163</ele>
        <time>2024-12-19T15:49:16.453+00:00</time>
      </trkpt>
      <trkpt lat="48.44592" lon="1.48638">
        <ele>163</ele>
        <time>2024-12-19T15:49:20.619+00:00</time>
      </trkpt>
      <trkpt lat="48.44581" lon="1.48644">
        <ele>163</ele>
        <time>2024-12-19T15:49:25.145+00:00</time>
      </trkpt>
      <trkpt lat="48.44574" lon="1.48645">
        <ele>163</ele>
        <time>2024-12-19T15:49:29.784+00:00</time>
      </trkpt>
      <trkpt lat="48.44574" lon="1.48655">
        <ele>163</ele>
        <time>2024-12-19T15:49:34.170+00:00</time>
      </trkpt>
      <trkpt lat="48.44572" lon="1.4866">
        <ele>163</ele>
        <time>2024-12-19T15:49:38.901+00:00</time>
      </trkpt>
      <trkpt lat="48.44568" lon="1.48663">
        <ele>164</ele>
        <time>2024-12-19T15:49:43.140+00:00</time>
      </trkpt>
      <trkpt lat="48.44563" lon="1.48665">
        <ele>164</ele>
        <time>2024-12-19T15:50:06.171+00:00</time>
      </trkpt>
      <trkpt lat="48.44561" lon="1.48667">
        <ele>164</ele>
        <time>2024-12-19T15:50:11.170+00:00</time>
      </trkpt>
      <trkpt lat="48.4456" lon="1.48667">
        <ele>164</ele>
        <time>2024-12-19T15:50:16.171+00:00</time>
      </trkpt>
      <trkpt lat="48.44559" lon="1.48668">
        <ele>164</ele>
        <time>2024-12-19T15:50:20.745+00:00</time>
      </trkpt>
      <trkpt lat="48.44554" lon="1.48673">
        <ele>164</ele>
        <time>2024-12-19T15:50:25.171+00:00</time>
      </trkpt>
      <trkpt lat="48.4455" lon="1.48677">
        <ele>164</ele>
        <time>2024-12-19T15:50:29.171+00:00</time>
      </trkpt>
      <trkpt lat="48.44549" lon="1.48675">
        <ele>164</ele>
        <time>2024-12-19T15:50:34.059+00:00</time>
      </trkpt>
      <trkpt lat="48.44547" lon="1.4868">
        <ele>164</ele>
        <time>2024-12-19T15:50:38.161+00:00</time>
      </trkpt>
      <trkpt lat="48.44544" lon="1.48685">
        <ele>164</ele>
        <time>2024-12-19T15:50:42.171+00:00</time>
      </trkpt>
      <trkpt lat="48.44542" lon="1.48688">
        <ele>164</ele>
        <time>2024-12-19T15:50:46.826+00:00</time>
      </trkpt>
      <trkpt lat="48.44539" lon="1.48689">
        <ele>164</ele>
        <time>2024-12-19T15:50:51.171+00:00</time>
      </trkpt>
      <trkpt lat="48.44537" lon="1.48693">
        <ele>164</ele>
        <time>2024-12-19T15:50:56.105+00:00</time>
      </trkpt>
      <trkpt lat="48.44533" lon="1.48697">
        <ele>164</ele>
        <time>2024-12-19T15:51:00.900+00:00</time>
      </trkpt>
      <trkpt lat="48.4453" lon="1.48699">
        <ele>164</ele>
        <time>2024-12-19T15:51:05.461+00:00</time>
      </trkpt>
      <trkpt lat="48.44526" lon="1.48705">
        <ele>164</ele>
        <time>2024-12-19T15:51:19.170+00:00</time>
      </trkpt>
      <trkpt lat="48.44522" lon="1.48709">
        <ele>164</ele>
        <time>2024-12-19T15:51:23.679+00:00</time>
      </trkpt>
      <trkpt lat="48.44518" lon="1.48715">
        <ele>164</ele>
        <time>2024-12-19T15:51:27.942+00:00</time>
      </trkpt>
      <trkpt lat="48.44514" lon="1.4872">
        <ele>164</ele>
        <time>2024-12-19T15:51:32.624+00:00</time>
      </trkpt>
      <trkpt lat="48.44511" lon="1.48723">
        <ele>164</ele>
        <time>2024-12-19T15:51:36.762+00:00</time>
      </trkpt>
      <trkpt lat="48.44508" lon="1.48734">
        <ele>164</ele>
        <time>2024-12-19T15:51:41.170+00:00</time>
      </trkpt>
      <trkpt lat="48.44505" lon="1.48738">
        <ele>164</ele>
        <time>2024-12-19T15:51:46.170+00:00</time>
      </trkpt>
      <trkpt lat="48.44504" lon="1.48743">
        <ele>164</ele>
        <time>2024-12-19T15:51:50.966+00:00</time>
      </trkpt>
      <trkpt lat="48.44501" lon="1.48746">
        <ele>164</ele>
        <time>2024-12-19T15:51:55.984+00:00</time>
      </trkpt>
      <trkpt lat="48.44505" lon="1.48753">
        <ele>164</ele>
        <time>2024-12-19T15:52:01.059+00:00</time>
      </trkpt>
      <trkpt lat="48.44505" lon="1.48758">
        <ele>164</ele>
        <time>2024-12-19T15:52:05.171+00:00</time>
      </trkpt>
      <trkpt lat="48.44509" lon="1.48766">
        <ele>163</ele>
        <time>2024-12-19T15:52:14.141+00:00</time>
      </trkpt>
      <trkpt lat="48.44511" lon="1.48773">
        <ele>163</ele>
        <time>2024-12-19T15:52:18.586+00:00</time>
      </trkpt>
      <trkpt lat="48.44514" lon="1.4878">
        <ele>160</ele>
        <time>2024-12-19T15:52:22.647+00:00</time>
      </trkpt>
      <trkpt lat="48.44516" lon="1.48785">
        <ele>160</ele>
        <time>2024-12-19T15:52:27.171+00:00</time>
      </trkpt>
      <trkpt lat="48.44517" lon="1.48786">
        <ele>160</ele>
        <time>2024-12-19T15:52:31.640+00:00</time>
      </trkpt>
      <trkpt lat="48.44519" lon="1.48793">
        <ele>161</ele>
        <time>2024-12-19T15:52:36.171+00:00</time>
      </trkpt>
      <trkpt lat="48.44519" lon="1.48798">
        <ele>161</ele>
        <time>2024-12-19T15:52:40.142+00:00</time>
      </trkpt>
      <trkpt lat="48.44522" lon="1.48809">
        <ele>161</ele>
        <time>2024-12-19T15:52:49.171+00:00</time>
      </trkpt>
      <trkpt lat="48.44522" lon="1.48812">
        <ele>161</ele>
        <time>2024-12-19T15:52:53.171+00:00</time>
      </trkpt>
      <trkpt lat="48.44518" lon="1.48815">
        <ele>161</ele>
        <time>2024-12-19T15:52:58.021+00:00</time>
      </trkpt>
      <trkpt lat="48.44514" lon="1.48819">
        <ele>161</ele>
        <time>2024-12-19T15:53:02.121+00:00</time>
      </trkpt>
      <trkpt lat="48.44508" lon="1.48825">
        <ele>161</ele>
        <time>2024-12-19T15:53:06.778+00:00</time>
      </trkpt>
      <trkpt lat="48.44502" lon="1.4883">
        <ele>161</ele>
        <time>2024-12-19T15:53:11.340+00:00</time>
      </trkpt>
      <trkpt lat="48.44497" lon="1.48835">
        <ele>161</ele>
        <time>2024-12-19T15:53:16.171+00:00</time>
      </trkpt>
      <trkpt lat="48.44493" lon="1.48841">
        <ele>161</ele>
        <time>2024-12-19T15:53:20.172+00:00</time>
      </trkpt>
      <trkpt lat="48.44487" lon="1.48845">
        <ele>161</ele>
        <time>2024-12-19T15:53:24.901+00:00</time>
      </trkpt>
      <trkpt lat="48.44483" lon="1.4885">
        <ele>160</ele>
        <time>2024-12-19T15:53:29.222+00:00</time>
      </trkpt>
      <trkpt lat="48.44484" lon="1.4886">
        <ele>160</ele>
        <time>2024-12-19T15:53:33.799+00:00</time>
      </trkpt>
      <trkpt lat="48.44482" lon="1.48867">
        <ele>160</ele>
        <time>2024-12-19T15:53:38.045+00:00</time>
      </trkpt>
      <trkpt lat="48.44481" lon="1.48877">
        <ele>160</ele>
        <time>2024-12-19T15:53:42.624+00:00</time>
      </trkpt>
      <trkpt lat="48.44479" lon="1.48886">
        <ele>160</ele>
        <time>2024-12-19T15:53:47.102+00:00</time>
      </trkpt>
      <trkpt lat="48.44478" lon="1.48892">
        <ele>160</ele>
        <time>2024-12-19T15:53:51.759+00:00</time>
      </trkpt>
      <trkpt lat="48.44478" lon="1.48897">
        <ele>160</ele>
        <time>2024-12-19T15:53:55.939+00:00</time>
      </trkpt>
      <trkpt lat="48.44478" lon="1.48903">
        <ele>160</ele>
        <time>2024-12-19T15:54:00.172+00:00</time>
      </trkpt>
      <trkpt lat="48.44478" lon="1.4891">
        <ele>160</ele>
        <time>2024-12-19T15:54:04.262+00:00</time>
      </trkpt>
      <trkpt lat="48.44478" lon="1.48917">
        <ele>160</ele>
        <time>2024-12-19T15:54:08.699+00:00</time>
      </trkpt>
      <trkpt lat="48.44479" lon="1.48925">
        <ele>160</ele>
        <time>2024-12-19T15:54:13.172+00:00</time>
      </trkpt>
      <trkpt lat="48.4448" lon="1.48932">
        <ele>160</ele>
        <time>2024-12-19T15:54:17.172+00:00</time>
      </trkpt>
      <trkpt lat="48.44482" lon="1.4894">
        <ele>160</ele>
        <time>2024-12-19T15:54:21.680+00:00</time>
      </trkpt>
      <trkpt lat="48.44483" lon="1.48949">
        <ele>160</ele>
        <time>2024-12-19T15:54:26.172+00:00</time>
      </trkpt>
      <trkpt lat="48.44485" lon="1.48955">
        <ele>160</ele>
        <time>2024-12-19T15:54:30.360+00:00</time>
      </trkpt>
      <trkpt lat="48.44486" lon="1.48961">
        <ele>158</ele>
        <time>2024-12-19T15:54:34.624+00:00</time>
      </trkpt>
      <trkpt lat="48.44486" lon="1.48967">
        <ele>158</ele>
        <time>2024-12-19T15:54:39.160+00:00</time>
      </trkpt>
      <trkpt lat="48.44486" lon="1.48977">
        <ele>158</ele>
        <time>2024-12-19T15:54:44.172+00:00</time>
      </trkpt>
      <trkpt lat="48.4448" lon="1.48985">
        <ele>158</ele>
        <time>2024-12-19T15:54:48.881+00:00</time>
      </trkpt>
      <trkpt lat="48.44476" lon="1.48989">
        <ele>156</ele>
        <time>2024-12-19T15:54:53.525+00:00</time>
      </trkpt>
      <trkpt lat="48.44475" lon="1.48989">
        <ele>156</ele>
        <time>2024-12-19T15:54:54.172+00:00</time>
      </trkpt>
      <trkpt lat="48.44471" lon="1.48996">
        <ele>156</ele>
        <time>2024-12-19T15:55:02.029+00:00</time>
      </trkpt>
      <trkpt lat="48.44473" lon="1.48997">
        <ele>156</ele>
        <time>2024-12-19T15:55:19.882+00:00</time>
      </trkpt>
      <trkpt lat="48.44474" lon="1.48999">
        <ele>156</ele>
        <time>2024-12-19T15:55:24.171+00:00</time>
      </trkpt>
      <trkpt lat="48.44475" lon="1.49">
        <ele>156</ele>
        <time>2024-12-19T15:55:29.144+00:00</time>
      </trkpt>
      <trkpt lat="48.44476" lon="1.49007">
        <ele>156</ele>
        <time>2024-12-19T15:55:33.172+00:00</time>
      </trkpt>
      <trkpt lat="48.44477" lon="1.49016">
        <ele>154</ele>
        <time>2024-12-19T15:55:37.660+00:00</time>
      </trkpt>
      <trkpt lat="48.44479" lon="1.49022">
        <ele>154</ele>
        <time>2024-12-19T15:56:01.172+00:00</time>
      </trkpt>
      <trkpt lat="48.44477" lon="1.49023">
        <ele>154</ele>
        <time>2024-12-19T15:56:05.899+00:00</time>
      </trkpt>
      <trkpt lat="48.44477" lon="1.49023">
        <ele>154</ele>
        <time>2024-12-19T15:56:08.950+00:00</time>
      </trkpt>
      <trkpt lat="48.44471" lon="1.49029">
        <ele>154</ele>
        <time>2024-12-19T15:56:17.172+00:00</time>
      </trkpt>
      <trkpt lat="48.44471" lon="1.4903">
        <ele>154</ele>
        <time>2024-12-19T15:56:22.172+00:00</time>
      </trkpt>
      <trkpt lat="48.44471" lon="1.49033">
        <ele>154</ele>
        <time>2024-12-19T15:56:31.172+00:00</time>
      </trkpt>
      <trkpt lat="48.44472" lon="1.49037">
        <ele>154</ele>
        <time>2024-12-19T15:56:36.171+00:00</time>
      </trkpt>
      <trkpt lat="48.44473" lon="1.49039">
        <ele>154</ele>
        <time>2024-12-19T15:56:40.567+00:00</time>
      </trkpt>
      <trkpt lat="48.44473" lon="1.49041">
        <ele>154</ele>
        <time>2024-12-19T15:56:45.047+00:00</time>
      </trkpt>
      <trkpt lat="48.44475" lon="1.49044">
        <ele>151</ele>
        <time>2024-12-19T15:56:49.759+00:00</time>
      </trkpt>
      <trkpt lat="48.44482" lon="1.49053">
        <ele>151</ele>
        <time>2024-12-19T15:57:21.172+00:00</time>
      </trkpt>
      <trkpt lat="48.44482" lon="1.49052">
        <ele>151</ele>
        <time>2024-12-19T15:57:26.171+00:00</time>
      </trkpt>
      <trkpt lat="48.44485" lon="1.49042">
        <ele>151</ele>
        <time>2024-12-19T15:57:30.888+00:00</time>
      </trkpt>
      <trkpt lat="48.44489" lon="1.49044">
        <ele>149</ele>
        <time>2024-12-19T15:57:35.172+00:00</time>
      </trkpt>
      <trkpt lat="48.44492" lon="1.49051">
        <ele>149</ele>
        <time>2024-12-19T15:57:40.116+00:00</time>
      </trkpt>
      <trkpt lat="48.4449" lon="1.49054">
        <ele>149</ele>
        <time>2024-12-19T15:57:50.172+00:00</time>
      </trkpt>
      <trkpt lat="48.44488" lon="1.49051">
        <ele>149</ele>
        <time>2024-12-19T15:57:54.960+00:00</time>
      </trkpt>
      <trkpt lat="48.44485" lon="1.49052">
        <ele>151</ele>
        <time>2024-12-19T15:57:59.171+00:00</time>
      </trkpt>
      <trkpt lat="48.44484" lon="1.49049">
        <ele>151</ele>
        <time>2024-12-19T15:58:03.805+00:00</time>
      </trkpt>
      <trkpt lat="48.44485" lon="1.49041">
        <ele>154</ele>
        <time>2024-12-19T15:58:08.061+00:00</time>
      </trkpt>
      <trkpt lat="48.44483" lon="1.49037">
        <ele>154</ele>
        <time>2024-12-19T15:58:12.171+00:00</time>
      </trkpt>
      <trkpt lat="48.44478" lon="1.49034">
        <ele>154</ele>
        <time>2024-12-19T15:58:17.172+00:00</time>
      </trkpt>
      <trkpt lat="48.44478" lon="1.49029">
        <ele>154</ele>
        <time>2024-12-19T15:58:22.171+00:00</time>
      </trkpt>
      <trkpt lat="48.44477" lon="1.49024">
        <ele>154</ele>
        <time>2024-12-19T15:58:26.964+00:00</time>
      </trkpt>
      <trkpt lat="48.44481" lon="1.49029">
        <ele>154</ele>
        <time>2024-12-19T16:01:17.008+00:00</time>
      </trkpt>
      <trkpt lat="48.44481" lon="1.49031">
        <ele>154</ele>
        <time>2024-12-19T16:01:21.172+00:00</time>
      </trkpt>
      <trkpt lat="48.44481" lon="1.49032">
        <ele>154</ele>
        <time>2024-12-19T16:01:25.662+00:00</time>
      </trkpt>
      <trkpt lat="48.44481" lon="1.49033">
        <ele>154</ele>
        <time>2024-12-19T16:01:31.172+00:00</time>
      </trkpt>
      <trkpt lat="48.44483" lon="1.49032">
        <ele>154</ele>
        <time>2024-12-19T16:01:35.172+00:00</time>
      </trkpt>
      <trkpt lat="48.44484" lon="1.49033">
        <ele>154</ele>
        <time>2024-12-19T16:01:39.172+00:00</time>
      </trkpt>
      <trkpt lat="48.44483" lon="1.49037">
        <ele>154</ele>
        <time>2024-12-19T16:01:44.059+00:00</time>
      </trkpt>
      <trkpt lat="48.44483" lon="1.49045">
        <ele>151</ele>
        <time>2024-12-19T16:01:48.639+00:00</time>
      </trkpt>
      <trkpt lat="48.44485" lon="1.49052">
        <ele>151</ele>
        <time>2024-12-19T16:01:52.759+00:00</time>
      </trkpt>
      <trkpt lat="48.44488" lon="1.4906">
        <ele>149</ele>
        <time>2024-12-19T16:01:57.171+00:00</time>
      </trkpt>
      <trkpt lat="48.44492" lon="1.49064">
        <ele>149</ele>
        <time>2024-12-19T16:02:01.364+00:00</time>
      </trkpt>
      <trkpt lat="48.44496" lon="1.49069">
        <ele>149</ele>
        <time>2024-12-19T16:02:05.400+00:00</time>
      </trkpt>
      <trkpt lat="48.44498" lon="1.49076">
        <ele>145</ele>
        <time>2024-12-19T16:02:10.172+00:00</time>
      </trkpt>
      <trkpt lat="48.44497" lon="1.49079">
        <ele>145</ele>
        <time>2024-12-19T16:02:15.172+00:00</time>
      </trkpt>
      <trkpt lat="48.44497" lon="1.49079">
        <ele>145</ele>
        <time>2024-12-19T16:02:20.172+00:00</time>
      </trkpt>
      <trkpt lat="48.44498" lon="1.49078">
        <ele>145</ele>
        <time>2024-12-19T16:02:24.172+00:00</time>
      </trkpt>
      <trkpt lat="48.44501" lon="1.49071">
        <ele>145</ele>
        <time>2024-12-19T16:02:28.464+00:00</time>
      </trkpt>
      <trkpt lat="48.44514" lon="1.4907">
        <ele>145</ele>
        <time>2024-12-19T16:02:33.079+00:00</time>
      </trkpt>
      <trkpt lat="48.44517" lon="1.49069">
        <ele>149</ele>
        <time>2024-12-19T16:02:37.171+00:00</time>
      </trkpt>
      <trkpt lat="48.44522" lon="1.49065">
        <ele>149</ele>
        <time>2024-12-19T16:02:41.171+00:00</time>
      </trkpt>
      <trkpt lat="48.44528" lon="1.49063">
        <ele>149</ele>
        <time>2024-12-19T16:02:45.760+00:00</time>
      </trkpt>
      <trkpt lat="48.44535" lon="1.49057">
        <ele>149</ele>
        <time>2024-12-19T16:02:50.172+00:00</time>
      </trkpt>
      <trkpt lat="48.44539" lon="1.49056">
        <ele>149</ele>
        <time>2024-12-19T16:02:54.246+00:00</time>
      </trkpt>
      <trkpt lat="48.44543" lon="1.49054">
        <ele>147</ele>
        <time>2024-12-19T16:02:58.799+00:00</time>
      </trkpt>
      <trkpt lat="48.44547" lon="1.49053">
        <ele>147</ele>
        <time>2024-12-19T16:03:02.886+00:00</time>
      </trkpt>
      <trkpt lat="48.44552" lon="1.49054">
        <ele>147</ele>
        <time>2024-12-19T16:03:07.021+00:00</time>
      </trkpt>
      <trkpt lat="48.44555" lon="1.49054">
        <ele>147</ele>
        <time>2024-12-19T16:03:11.172+00:00</time>
      </trkpt>
      <trkpt lat="48.4456" lon="1.49046">
        <ele>147</ele>
        <time>2024-12-19T16:03:16.201+00:00</time>
      </trkpt>
      <trkpt lat="48.44566" lon="1.49042">
        <ele>154</ele>
        <time>2024-12-19T16:03:21.025+00:00</time>
      </trkpt>
      <trkpt lat="48.44569" lon="1.49032">
        <ele>154</ele>
        <time>2024-12-19T16:03:25.172+00:00</time>
      </trkpt>
      <trkpt lat="48.44572" lon="1.49025">
        <ele>152</ele>
        <time>2024-12-19T16:03:29.698+00:00</time>
      </trkpt>
      <trkpt lat="48.44573" lon="1.49021">
        <ele>152</ele>
        <time>2024-12-19T16:03:33.760+00:00</time>
      </trkpt>
      <trkpt lat="48.44573" lon="1.49012">
        <ele>156</ele>
        <time>2024-12-19T16:03:38.171+00:00</time>
      </trkpt>
      <trkpt lat="48.44575" lon="1.49007">
        <ele>156</ele>
        <time>2024-12-19T16:03:42.842+00:00</time>
      </trkpt>
      <trkpt lat="48.44578" lon="1.49003">
        <ele>156</ele>
        <time>2024-12-19T16:03:47.105+00:00</time>
      </trkpt>
      <trkpt lat="48.44575" lon="1.48994">
        <ele>156</ele>
        <time>2024-12-19T16:03:51.172+00:00</time>
      </trkpt>
      <trkpt lat="48.44574" lon="1.48986">
        <ele>159</ele>
        <time>2024-12-19T16:03:55.582+00:00</time>
      </trkpt>
      <trkpt lat="48.44574" lon="1.48977">
        <ele>159</ele>
        <time>2024-12-19T16:03:59.821+00:00</time>
      </trkpt>
      <trkpt lat="48.44573" lon="1.48969">
        <ele>159</ele>
        <time>2024-12-19T16:04:03.923+00:00</time>
      </trkpt>
      <trkpt lat="48.44573" lon="1.48961">
        <ele>159</ele>
        <time>2024-12-19T16:04:08.164+00:00</time>
      </trkpt>
      <trkpt lat="48.44572" lon="1.48956">
        <ele>161</ele>
        <time>2024-12-19T16:04:12.219+00:00</time>
      </trkpt>
      <trkpt lat="48.44573" lon="1.4895">
        <ele>161</ele>
        <time>2024-12-19T16:04:16.724+00:00</time>
      </trkpt>
      <trkpt lat="48.44573" lon="1.48947">
        <ele>161</ele>
        <time>2024-12-19T16:04:25.905+00:00</time>
      </trkpt>
      <trkpt lat="48.44575" lon="1.48945">
        <ele>161</ele>
        <time>2024-12-19T16:04:30.172+00:00</time>
      </trkpt>
      <trkpt lat="48.44578" lon="1.48944">
        <ele>161</ele>
        <time>2024-12-19T16:04:34.171+00:00</time>
      </trkpt>
      <trkpt lat="48.44582" lon="1.48944">
        <ele>161</ele>
        <time>2024-12-19T16:04:38.723+00:00</time>
      </trkpt>
      <trkpt lat="48.44586" lon="1.48944">
        <ele>161</ele>
        <time>2024-12-19T16:04:43.172+00:00</time>
      </trkpt>
      <trkpt lat="48.44589" lon="1.48941">
        <ele>161</ele>
        <time>2024-12-19T16:04:47.542+00:00</time>
      </trkpt>
      <trkpt lat="48.44589" lon="1.48939">
        <ele>161</ele>
        <time>2024-12-19T16:04:53.001+00:00</time>
      </trkpt>
      <trkpt lat="48.44593" lon="1.48937">
        <ele>161</ele>
        <time>2024-12-19T16:04:57.171+00:00</time>
      </trkpt>
      <trkpt lat="48.44598" lon="1.48934">
        <ele>160</ele>
        <time>2024-12-19T16:05:01.981+00:00</time>
      </trkpt>
      <trkpt lat="48.44617" lon="1.48908">
        <ele>161</ele>
        <time>2024-12-19T16:06:10.738+00:00</time>
      </trkpt>
      <trkpt lat="48.44618" lon="1.48908">
        <ele>161</ele>
        <time>2024-12-19T16:06:15.171+00:00</time>
      </trkpt>
      <trkpt lat="48.44623" lon="1.489">
        <ele>161</ele>
        <time>2024-12-19T16:06:19.171+00:00</time>
      </trkpt>
      <trkpt lat="48.44627" lon="1.48893">
        <ele>160</ele>
        <time>2024-12-19T16:06:27.171+00:00</time>
      </trkpt>
      <trkpt lat="48.44628" lon="1.48891">
        <ele>160</ele>
        <time>2024-12-19T16:06:33.171+00:00</time>
      </trkpt>
      <trkpt lat="48.44629" lon="1.48892">
        <ele>160</ele>
        <time>2024-12-19T16:06:37.171+00:00</time>
      </trkpt>
      <trkpt lat="48.44633" lon="1.4889">
        <ele>160</ele>
        <time>2024-12-19T16:06:41.866+00:00</time>
      </trkpt>
      <trkpt lat="48.44637" lon="1.48894">
        <ele>160</ele>
        <time>2024-12-19T16:06:46.171+00:00</time>
      </trkpt>
      <trkpt lat="48.44639" lon="1.48892">
        <ele>160</ele>
        <time>2024-12-19T16:06:50.624+00:00</time>
      </trkpt>
      <trkpt lat="48.44638" lon="1.48888">
        <ele>160</ele>
        <time>2024-12-19T16:07:09.584+00:00</time>
      </trkpt>
      <trkpt lat="48.44638" lon="1.48885">
        <ele>160</ele>
        <time>2024-12-19T16:07:14.166+00:00</time>
      </trkpt>
      <trkpt lat="48.44644" lon="1.48883">
        <ele>160</ele>
        <time>2024-12-19T16:07:18.924+00:00</time>
      </trkpt>
      <trkpt lat="48.44649" lon="1.48877">
        <ele>160</ele>
        <time>2024-12-19T16:07:23.171+00:00</time>
      </trkpt>
      <trkpt lat="48.44653" lon="1.48873">
        <ele>161</ele>
        <time>2024-12-19T16:07:28.172+00:00</time>
      </trkpt>
      <trkpt lat="48.4466" lon="1.48854">
        <ele>161</ele>
        <time>2024-12-19T16:07:55.172+00:00</time>
      </trkpt>
      <trkpt lat="48.44659" lon="1.48853">
        <ele>161</ele>
        <time>2024-12-19T16:08:00.172+00:00</time>
      </trkpt>
      <trkpt lat="48.44659" lon="1.48852">
        <ele>161</ele>
        <time>2024-12-19T16:08:05.171+00:00</time>
      </trkpt>
      <trkpt lat="48.44659" lon="1.48852">
        <ele>161</ele>
        <time>2024-12-19T16:08:10.172+00:00</time>
      </trkpt>
      <trkpt lat="48.44658" lon="1.48851">
        <ele>161</ele>
        <time>2024-12-19T16:08:25.171+00:00</time>
      </trkpt>
      <trkpt lat="48.44653" lon="1.48862">
        <ele>161</ele>
        <time>2024-12-19T16:08:34.172+00:00</time>
      </trkpt>
      <trkpt lat="48.44652" lon="1.48862">
        <ele>161</ele>
        <time>2024-12-19T16:08:39.172+00:00</time>
      </trkpt>
      <trkpt lat="48.44649" lon="1.4886">
        <ele>161</ele>
        <time>2024-12-19T16:08:43.205+00:00</time>
      </trkpt>
      <trkpt lat="48.44647" lon="1.48856">
        <ele>161</ele>
        <time>2024-12-19T16:08:48.101+00:00</time>
      </trkpt>
      <trkpt lat="48.44645" lon="1.48851">
        <ele>161</ele>
        <time>2024-12-19T16:08:52.682+00:00</time>
      </trkpt>
      <trkpt lat="48.44643" lon="1.48849">
        <ele>161</ele>
        <time>2024-12-19T16:09:02.172+00:00</time>
      </trkpt>
      <trkpt lat="48.44643" lon="1.4885">
        <ele>161</ele>
        <time>2024-12-19T16:09:08.172+00:00</time>
      </trkpt>
      <trkpt lat="48.44637" lon="1.48849">
        <ele>161</ele>
        <time>2024-12-19T16:09:12.459+00:00</time>
      </trkpt>
      <trkpt lat="48.44638" lon="1.48837">
        <ele>161</ele>
        <time>2024-12-19T16:09:16.980+00:00</time>
      </trkpt>
      <trkpt lat="48.44637" lon="1.4883">
        <ele>161</ele>
        <time>2024-12-19T16:09:22.063+00:00</time>
      </trkpt>
      <trkpt lat="48.44635" lon="1.48823">
        <ele>161</ele>
        <time>2024-12-19T16:09:26.407+00:00</time>
      </trkpt>
      <trkpt lat="48.44633" lon="1.48816">
        <ele>161</ele>
        <time>2024-12-19T16:09:30.807+00:00</time>
      </trkpt>
      <trkpt lat="48.44631" lon="1.48808">
        <ele>161</ele>
        <time>2024-12-19T16:09:35.214+00:00</time>
      </trkpt>
      <trkpt lat="48.44629" lon="1.48799">
        <ele>161</ele>
        <time>2024-12-19T16:09:39.622+00:00</time>
      </trkpt>
      <trkpt lat="48.44627" lon="1.48792">
        <ele>161</ele>
        <time>2024-12-19T16:09:44.122+00:00</time>
      </trkpt>
      <trkpt lat="48.44624" lon="1.48786">
        <ele>160</ele>
        <time>2024-12-19T16:09:48.523+00:00</time>
      </trkpt>
      <trkpt lat="48.44623" lon="1.48779">
        <ele>160</ele>
        <time>2024-12-19T16:09:53.060+00:00</time>
      </trkpt>
      <trkpt lat="48.44621" lon="1.48772">
        <ele>160</ele>
        <time>2024-12-19T16:09:57.450+00:00</time>
      </trkpt>
      <trkpt lat="48.44619" lon="1.48764">
        <ele>161</ele>
        <time>2024-12-19T16:10:02.171+00:00</time>
      </trkpt>
      <trkpt lat="48.44617" lon="1.48757">
        <ele>161</ele>
        <time>2024-12-19T16:10:06.900+00:00</time>
      </trkpt>
      <trkpt lat="48.44614" lon="1.48749">
        <ele>161</ele>
        <time>2024-12-19T16:10:11.171+00:00</time>
      </trkpt>
      <trkpt lat="48.44612" lon="1.48743">
        <ele>161</ele>
        <time>2024-12-19T16:10:15.479+00:00</time>
      </trkpt>
      <trkpt lat="48.4461" lon="1.48737">
        <ele>161</ele>
        <time>2024-12-19T16:10:19.469+00:00</time>
      </trkpt>
      <trkpt lat="48.44608" lon="1.48731">
        <ele>163</ele>
        <time>2024-12-19T16:10:23.901+00:00</time>
      </trkpt>
      <trkpt lat="48.44604" lon="1.48724">
        <ele>163</ele>
        <time>2024-12-19T16:10:28.171+00:00</time>
      </trkpt>
      <trkpt lat="48.446" lon="1.48717">
        <ele>163</ele>
        <time>2024-12-19T16:10:32.774+00:00</time>
      </trkpt>
      <trkpt lat="48.44597" lon="1.48711">
        <ele>163</ele>
        <time>2024-12-19T16:10:37.175+00:00</time>
      </trkpt>
      <trkpt lat="48.44593" lon="1.48703">
        <ele>163</ele>
        <time>2024-12-19T16:10:42.172+00:00</time>
      </trkpt>
      <trkpt lat="48.4459" lon="1.48696">
        <ele>163</ele>
        <time>2024-12-19T16:10:46.574+00:00</time>
      </trkpt>
      <trkpt lat="48.44587" lon="1.4869">
        <ele>163</ele>
        <time>2024-12-19T16:10:50.795+00:00</time>
      </trkpt>
      <trkpt lat="48.44583" lon="1.48684">
        <ele>163</ele>
        <time>2024-12-19T16:10:55.172+00:00</time>
      </trkpt>
      <trkpt lat="48.4458" lon="1.48682">
        <ele>163</ele>
        <time>2024-12-19T16:11:00.076+00:00</time>
      </trkpt>
      <trkpt lat="48.44574" lon="1.48682">
        <ele>163</ele>
        <time>2024-12-19T16:11:04.172+00:00</time>
      </trkpt>
      <trkpt lat="48.4457" lon="1.48684">
        <ele>163</ele>
        <time>2024-12-19T16:11:08.438+00:00</time>
      </trkpt>
      <trkpt lat="48.44565" lon="1.48688">
        <ele>164</ele>
        <time>2024-12-19T16:11:13.118+00:00</time>
      </trkpt>
      <trkpt lat="48.4456" lon="1.48694">
        <ele>164</ele>
        <time>2024-12-19T16:11:17.969+00:00</time>
      </trkpt>
      <trkpt lat="48.44557" lon="1.48697">
        <ele>164</ele>
        <time>2024-12-19T16:11:22.012+00:00</time>
      </trkpt>
      <trkpt lat="48.44553" lon="1.48701">
        <ele>164</ele>
        <time>2024-12-19T16:11:27.171+00:00</time>
      </trkpt>
      <trkpt lat="48.44549" lon="1.48703">
        <ele>164</ele>
        <time>2024-12-19T16:11:31.172+00:00</time>
      </trkpt>
      <trkpt lat="48.44543" lon="1.48708">
        <ele>164</ele>
        <time>2024-12-19T16:11:35.649+00:00</time>
      </trkpt>
      <trkpt lat="48.44538" lon="1.48712">
        <ele>164</ele>
        <time>2024-12-19T16:11:39.853+00:00</time>
      </trkpt>
      <trkpt lat="48.44534" lon="1.48716">
        <ele>164</ele>
        <time>2024-12-19T16:11:44.049+00:00</time>
      </trkpt>
      <trkpt lat="48.44528" lon="1.4872">
        <ele>164</ele>
        <time>2024-12-19T16:11:48.374+00:00</time>
      </trkpt>
      <trkpt lat="48.44523" lon="1.48726">
        <ele>164</ele>
        <time>2024-12-19T16:11:52.995+00:00</time>
      </trkpt>
      <trkpt lat="48.44519" lon="1.48731">
        <ele>164</ele>
        <time>2024-12-19T16:11:57.400+00:00</time>
      </trkpt>
      <trkpt lat="48.44514" lon="1.48735">
        <ele>164</ele>
        <time>2024-12-19T16:12:01.695+00:00</time>
      </trkpt>
      <trkpt lat="48.44509" lon="1.48738">
        <ele>164</ele>
        <time>2024-12-19T16:12:05.993+00:00</time>
      </trkpt>
      <trkpt lat="48.44503" lon="1.48739">
        <ele>164</ele>
        <time>2024-12-19T16:12:10.172+00:00</time>
      </trkpt>
      <trkpt lat="48.44499" lon="1.48742">
        <ele>164</ele>
        <time>2024-12-19T16:12:14.548+00:00</time>
      </trkpt>
      <trkpt lat="48.44494" lon="1.48744">
        <ele>164</ele>
        <time>2024-12-19T16:12:18.931+00:00</time>
      </trkpt>
      <trkpt lat="48.44491" lon="1.48743">
        <ele>164</ele>
        <time>2024-12-19T16:12:23.171+00:00</time>
      </trkpt>
      <trkpt lat="48.44492" lon="1.48745">
        <ele>164</ele>
        <time>2024-12-19T16:12:27.674+00:00</time>
      </trkpt>
      <trkpt lat="48.44489" lon="1.48751">
        <ele>164</ele>
        <time>2024-12-19T16:12:31.851+00:00</time>
      </trkpt>
      <trkpt lat="48.44483" lon="1.48757">
        <ele>166</ele>
        <time>2024-12-19T16:12:36.171+00:00</time>
      </trkpt>
      <trkpt lat="48.44473" lon="1.4876">
        <ele>166</ele>
        <time>2024-12-19T16:12:41.053+00:00</time>
      </trkpt>
      <trkpt lat="48.44469" lon="1.48765">
        <ele>164</ele>
        <time>2024-12-19T16:12:45.172+00:00</time>
      </trkpt>
      <trkpt lat="48.44466" lon="1.48772">
        <ele>164</ele>
        <time>2024-12-19T16:12:49.633+00:00</time>
      </trkpt>
      <trkpt lat="48.44459" lon="1.48773">
        <ele>164</ele>
        <time>2024-12-19T16:12:54.172+00:00</time>
      </trkpt>
      <trkpt lat="48.44453" lon="1.48771">
        <ele>164</ele>
        <time>2024-12-19T16:12:59.150+00:00</time>
      </trkpt>
      <trkpt lat="48.44446" lon="1.48772">
        <ele>164</ele>
        <time>2024-12-19T16:13:03.172+00:00</time>
      </trkpt>
      <trkpt lat="48.44438" lon="1.4877">
        <ele>164</ele>
        <time>2024-12-19T16:13:08.172+00:00</time>
      </trkpt>
      <trkpt lat="48.44432" lon="1.4877">
        <ele>164</ele>
        <time>2024-12-19T16:13:12.455+00:00</time>
      </trkpt>
      <trkpt lat="48.44426" lon="1.48768">
        <ele>162</ele>
        <time>2024-12-19T16:13:16.651+00:00</time>
      </trkpt>
      <trkpt lat="48.44421" lon="1.48769">
        <ele>162</ele>
        <time>2024-12-19T16:13:20.676+00:00</time>
      </trkpt>
      <trkpt lat="48.44416" lon="1.48771">
        <ele>162</ele>
        <time>2024-12-19T16:13:25.034+00:00</time>
      </trkpt>
      <trkpt lat="48.44413" lon="1.48773">
        <ele>162</ele>
        <time>2024-12-19T16:13:29.315+00:00</time>
      </trkpt>
      <trkpt lat="48.44414" lon="1.48777">
        <ele>162</ele>
        <time>2024-12-19T16:13:33.631+00:00</time>
      </trkpt>
      <trkpt lat="48.44414" lon="1.48782">
        <ele>162</ele>
        <time>2024-12-19T16:13:37.655+00:00</time>
      </trkpt>
      <trkpt lat="48.44412" lon="1.4879">
        <ele>162</ele>
        <time>2024-12-19T16:13:41.910+00:00</time>
      </trkpt>
      <trkpt lat="48.44412" lon="1.48801">
        <ele>162</ele>
        <time>2024-12-19T16:13:47.172+00:00</time>
      </trkpt>
      <trkpt lat="48.44412" lon="1.48811">
        <ele>162</ele>
        <time>2024-12-19T16:13:51.685+00:00</time>
      </trkpt>
      <trkpt lat="48.44415" lon="1.48812">
        <ele>162</ele>
        <time>2024-12-19T16:13:55.928+00:00</time>
      </trkpt>
      <trkpt lat="48.44416" lon="1.48799">
        <ele>162</ele>
        <time>2024-12-19T16:14:00.724+00:00</time>
      </trkpt>
      <trkpt lat="48.44416" lon="1.48789">
        <ele>162</ele>
        <time>2024-12-19T16:14:05.170+00:00</time>
      </trkpt>
      <trkpt lat="48.44416" lon="1.4878">
        <ele>162</ele>
        <time>2024-12-19T16:14:09.787+00:00</time>
      </trkpt>
      <trkpt lat="48.44418" lon="1.48773">
        <ele>162</ele>
        <time>2024-12-19T16:14:14.106+00:00</time>
      </trkpt>
      <trkpt lat="48.44419" lon="1.48767">
        <ele>162</ele>
        <time>2024-12-19T16:14:19.165+00:00</time>
      </trkpt>
      <trkpt lat="48.44419" lon="1.48763">
        <ele>162</ele>
        <time>2024-12-19T16:14:24.175+00:00</time>
      </trkpt>
      <trkpt lat="48.44436" lon="1.48776">
        <ele>164</ele>
        <time>2024-12-19T16:15:16.805+00:00</time>
      </trkpt>
      <trkpt lat="48.44441" lon="1.48773">
        <ele>164</ele>
        <time>2024-12-19T16:15:21.005+00:00</time>
      </trkpt>
      <trkpt lat="48.4445" lon="1.48773">
        <ele>164</ele>
        <time>2024-12-19T16:15:25.505+00:00</time>
      </trkpt>
      <trkpt lat="48.44457" lon="1.48774">
        <ele>164</ele>
        <time>2024-12-19T16:15:30.145+00:00</time>
      </trkpt>
      <trkpt lat="48.44464" lon="1.48774">
        <ele>164</ele>
        <time>2024-12-19T16:15:34.606+00:00</time>
      </trkpt>
      <trkpt lat="48.44469" lon="1.48772">
        <ele>164</ele>
        <time>2024-12-19T16:15:38.905+00:00</time>
      </trkpt>
      <trkpt lat="48.44472" lon="1.48774">
        <ele>164</ele>
        <time>2024-12-19T16:15:42.945+00:00</time>
      </trkpt>
      <trkpt lat="48.44476" lon="1.48771">
        <ele>164</ele>
        <time>2024-12-19T16:15:47.182+00:00</time>
      </trkpt>
      <trkpt lat="48.44477" lon="1.48763">
        <ele>166</ele>
        <time>2024-12-19T16:15:51.564+00:00</time>
      </trkpt>
      <trkpt lat="48.44483" lon="1.48759">
        <ele>166</ele>
        <time>2024-12-19T16:15:56.205+00:00</time>
      </trkpt>
      <trkpt lat="48.44488" lon="1.48749">
        <ele>164</ele>
        <time>2024-12-19T16:16:00.506+00:00</time>
      </trkpt>
      <trkpt lat="48.44495" lon="1.48747">
        <ele>164</ele>
        <time>2024-12-19T16:16:04.925+00:00</time>
      </trkpt>
      <trkpt lat="48.445" lon="1.48751">
        <ele>164</ele>
        <time>2024-12-19T16:16:09.425+00:00</time>
      </trkpt>
      <trkpt lat="48.44503" lon="1.48759">
        <ele>164</ele>
        <time>2024-12-19T16:16:13.708+00:00</time>
      </trkpt>
      <trkpt lat="48.44508" lon="1.48767">
        <ele>163</ele>
        <time>2024-12-19T16:16:17.945+00:00</time>
      </trkpt>
      <trkpt lat="48.44512" lon="1.48773">
        <ele>163</ele>
        <time>2024-12-19T16:16:22.171+00:00</time>
      </trkpt>
      <trkpt lat="48.44519" lon="1.48768">
        <ele>160</ele>
        <time>2024-12-19T16:16:26.606+00:00</time>
      </trkpt>
      <trkpt lat="48.44524" lon="1.4876">
        <ele>162</ele>
        <time>2024-12-19T16:16:31.171+00:00</time>
      </trkpt>
      <trkpt lat="48.44524" lon="1.4876">
        <ele>162</ele>
        <time>2024-12-19T16:16:36.175+00:00</time>
      </trkpt>
      <trkpt lat="48.44524" lon="1.48758">
        <ele>162</ele>
        <time>2024-12-19T16:16:41.178+00:00</time>
      </trkpt>
      <trkpt lat="48.44526" lon="1.48749">
        <ele>162</ele>
        <time>2024-12-19T16:16:46.169+00:00</time>
      </trkpt>
      <trkpt lat="48.44529" lon="1.48742">
        <ele>162</ele>
        <time>2024-12-19T16:16:52.169+00:00</time>
      </trkpt>
      <trkpt lat="48.4453" lon="1.48746">
        <ele>162</ele>
        <time>2024-12-19T16:16:57.178+00:00</time>
      </trkpt>
      <trkpt lat="48.44532" lon="1.48746">
        <ele>162</ele>
        <time>2024-12-19T16:17:04.180+00:00</time>
      </trkpt>
      <trkpt lat="48.44532" lon="1.48747">
        <ele>162</ele>
        <time>2024-12-19T16:17:09.176+00:00</time>
      </trkpt>
      <trkpt lat="48.44539" lon="1.48749">
        <ele>162</ele>
        <time>2024-12-19T16:17:13.179+00:00</time>
      </trkpt>
      <trkpt lat="48.44531" lon="1.48741">
        <ele>162</ele>
        <time>2024-12-19T16:17:18.168+00:00</time>
      </trkpt>
      <trkpt lat="48.44526" lon="1.48744">
        <ele>162</ele>
        <time>2024-12-19T16:17:22.167+00:00</time>
      </trkpt>
      <trkpt lat="48.44525" lon="1.48744">
        <ele>162</ele>
        <time>2024-12-19T16:17:27.185+00:00</time>
      </trkpt>
      <trkpt lat="48.44524" lon="1.4874">
        <ele>162</ele>
        <time>2024-12-19T16:17:32.166+00:00</time>
      </trkpt>
      <trkpt lat="48.44523" lon="1.48736">
        <ele>164</ele>
        <time>2024-12-19T16:17:37.169+00:00</time>
      </trkpt>
      <trkpt lat="48.44523" lon="1.48736">
        <ele>162</ele>
        <time>2024-12-19T16:17:42.185+00:00</time>
      </trkpt>
      <trkpt lat="48.44523" lon="1.48737">
        <ele>162</ele>
        <time>2024-12-19T16:17:47.169+00:00</time>
      </trkpt>
      <trkpt lat="48.44523" lon="1.48737">
        <ele>162</ele>
        <time>2024-12-19T16:17:52.175+00:00</time>
      </trkpt>
      <trkpt lat="48.44523" lon="1.48753">
        <ele>162</ele>
        <time>2024-12-19T16:18:34.603+00:00</time>
      </trkpt>
    </trkseg>
  </trk>
</gpx>